GFSGBSN_500_temp_000.txt.gz
Temp
-16 -16 -16 -16 -15 -15 -15 -15 -15 -15 -16 -16 -15 -15 -15 -15 -15 -15 -15 -15 -15 -15 -15 -15 -15 -15 -15 -15 -15 -15 -15 -15 -15 -15 -16 -16 -16 -16 -15 -16 -15 -16 -15 -14 -14 -13 -13
-16 -16 -16 -16 -15 -15 -15 -15 -15 -15 -16 -15 -15 -15 -15 -16 -15 -15 -15 -15 -15 -15 -15 -15 -15 -15 -16 -15 -16 -16 -15 -15 -16 -16 -16 -16 -16 -16 -16 -16 -16 -14 -14 -13 -13 -13 -13
-16 -16 -16 -15 -15 -15 -15 -15 -15 -15 -16 -16 -16 -15 -15 -15 -15 -15 -15 -15 -15 -15 -15 -15 -15 -15 -16 -15 -16 -15 -15 -15 -15 -14 -15 -14 -15 -15 -15 -14 -14 -14 -13 -13 -13 -13 -13
-16 -16 -16 -15 -15 -15 -15 -15 -15 -15 -15 -15 -15 -15 -15 -15 -15 -15 -15 -15 -15 -15 -15 -15 -15 -15 -15 -15 -15 -15 -14 -15 -14 -14 -14 -14 -14 -14 -15 -14 -13 -13 -13 -14 -14 -14 -13
-16 -16 -16 -15 -15 -15 -15 -15 -15 -14 -14 -15 -15 -15 -15 -15 -15 -15 -15 -15 -14 -14 -14 -15 -15 -15 -15 -15 -15 -14 -14 -14 -14 -14 -14 -14 -14 -14 -14 -13 -13 -13 -14 -15 -14 -14 -13
-16 -16 -15 -15 -15 -15 -15 -15 -14 -14 -14 -14 -15 -15 -15 -15 -15 -14 -14 -14 -15 -15 -15 -15 -15 -15 -15 -15 -15 -15 -15 -14 -14 -14 -14 -14 -14 -14 -13 -15 -15 -14 -14 -15 -14 -13 -13
-16 -16 -15 -15 -15 -15 -15 -15 -14 -14 -14 -15 -15 -15 -14 -14 -14 -14 -15 -15 -15 -15 -15 -14 -15 -14 -15 -15 -15 -15 -15 -14 -14 -14 -14 -14 -15 -15 -13 -13 -13 -14 -14 -14 -15 -13 -13
-16 -16 -15 -15 -15 -15 -15 -14 -14 -14 -14 -15 -14 -14 -14 -14 -14 -15 -14 -14 -15 -15 -15 -15 -15 -15 -15 -15 -14 -14 -14 -14 -14 -14 -14 -15 -13 -14 -14 -14 -14 -14 -14 -14 -14 -13 -13
-16 -16 -15 -15 -15 -15 -15 -14 -14 -14 -14 -14 -14 -14 -14 -14 -14 -14 -15 -15 -15 -15 -15 -15 -14 -14 -14 -14 -14 -14 -14 -14 -14 -14 -14 -13 -14 -14 -14 -14 -14 -14 -14 -13 -14 -13 -13
-16 -16 -15 -15 -15 -15 -14 -14 -14 -13 -13 -14 -14 -14 -14 -14 -15 -15 -15 -15 -15 -15 -14 -14 -14 -14 -14 -14 -14 -14 -14 -14 -14 -14 -14 -14 -14 -14 -14 -14 -14 -14 -14 -14 -14 -14 -14
-16 -16 -15 -15 -15 -14 -14 -14 -14 -13 -13 -14 -14 -14 -14 -14 -14 -15 -15 -14 -14 -14 -14 -14 -14 -14 -14 -14 -14 -14 -14 -14 -14 -14 -14 -14 -14 -14 -14 -14 -14 -14 -14 -14 -14 -13 -14
-16 -16 -15 -15 -15 -14 -14 -14 -13 -13 -13 -14 -14 -14 -14 -14 -14 -14 -14 -14 -14 -14 -14 -14 -14 -14 -14 -14 -14 -14 -14 -14 -14 -14 -14 -14 -14 -14 -14 -14 -14 -14 -14 -14 -14 -14 -14
-16 -16 -15 -15 -15 -14 -14 -13 -13 -13 -13 -14 -14 -14 -14 -14 -14 -14 -14 -14 -14 -14 -14 -14 -14 -14 -14 -14 -14 -14 -14 -14 -14 -14 -14 -14 -14 -14 -14 -14 -14 -14 -14 -14 -14 -15 -15
-16 -16 -15 -15 -15 -14 -14 -14 -13 -13 -13 -14 -14 -14 -14 -14 -14 -14 -14 -14 -14 -14 -14 -14 -14 -14 -14 -14 -14 -14 -14 -14 -15 -14 -14 -15 -14 -14 -14 -14 -14 -15 -15 -15 -15 -15 -15
-17 -16 -15 -15 -15 -14 -14 -14 -13 -13 -14 -14 -14 -14 -14 -14 -14 -14 -14 -14 -14 -14 -14 -14 -14 -14 -14 -14 -14 -14 -14 -14 -14 -14 -14 -14 -14 -14 -14 -14 -14 -15 -15 -15 -15 -15 -15
-17 -16 -15 -15 -15 -14 -14 -14 -13 -13 -14 -14 -14 -14 -14 -14 -14 -14 -14 -14 -14 -14 -14 -14 -14 -14 -14 -14 -14 -15 -14 -15 -14 -14 -14 -14 -14 -15 -15 -15 -15 -15 -15 -15 -15 -15 -15
-17 -17 -16 -15 -15 -14 -14 -14 -14 -14 -14 -14 -14 -14 -14 -14 -14 -14 -14 -14 -14 -14 -14 -14 -14 -14 -14 -14 -14 -14 -15 -15 -14 -14 -14 -14 -15 -15 -15 -15 -15 -14 -14 -15 -15 -16 -16
-17 -17 -16 -15 -15 -14 -14 -14 -14 -14 -14 -14 -14 -14 -14 -14 -14 -14 -14 -14 -14 -14 -14 -14 -14 -14 -14 -14 -14 -14 -14 -14 -14 -14 -14 -14 -15 -15 -15 -15 -15 -15 -15 -15 -15 -16 -16
-17 -17 -17 -16 -15 -15 -14 -14 -14 -14 -14 -14 -14 -14 -14 -14 -14 -14 -14 -14 -14 -14 -13 -13 -14 -14 -14 -14 -14 -14 -14 -14 -14 -14 -14 -14 -14 -14 -14 -13 -14 -15 -15 -15 -15 -16 -16
-17 -17 -17 -16 -16 -15 -15 -14 -14 -14 -14 -14 -14 -14 -14 -14 -14 -14 -14 -14 -14 -13 -13 -14 -14 -14 -14 -14 -14 -14 -14 -14 -14 -14 -14 -14 -14 -15 -15 -15 -15 -15 -15 -15 -15 -16 -16
-17 -18 -17 -17 -16 -16 -15 -15 -14 -14 -14 -14 -14 -14 -14 -14 -14 -14 -14 -14 -14 -13 -13 -14 -14 -14 -14 -14 -14 -14 -14 -14 -14 -14 -14 -14 -14 -15 -15 -15 -15 -15 -16 -16 -16 -16 -17
-17 -18 -18 -17 -17 -16 -16 -15 -14 -14 -14 -14 -14 -14 -14 -14 -14 -14 -14 -14 -14 -13 -14 -14 -14 -14 -14 -14 -14 -14 -14 -14 -15 -15 -14 -14 -15 -15 -15 -15 -15 -15 -16 -15 -16 -16 -17
-18 -18 -18 -18 -17 -17 -16 -16 -15 -15 -14 -14 -14 -14 -14 -14 -14 -14 -14 -14 -13 -14 -14 -14 -14 -14 -13 -14 -14 -14 -14 -14 -14 -15 -15 -15 -15 -15 -15 -15 -15 -16 -16 -16 -16 -16 -17
-18 -18 -18 -18 -17 -17 -17 -16 -16 -15 -15 -14 -14 -14 -14 -14 -14 -14 -14 -14 -13 -14 -14 -14 -14 -14 -14 -14 -14 -14 -14 -15 -15 -15 -15 -15 -15 -15 -15 -15 -16 -16 -16 -16 -16 -17 -17
-18 -18 -18 -18 -18 -17 -17 -17 -16 -16 -15 -15 -15 -15 -14 -14 -14 -14 -14 -14 -13 -14 -14 -14 -14 -14 -14 -14 -14 -14 -15 -15 -15 -15 -15 -15 -15 -15 -15 -15 -16 -16 -16 -16 -16 -17 -17
-18 -18 -18 -18 -18 -18 -17 -17 -17 -16 -16 -16 -15 -15 -15 -15 -14 -14 -14 -14 -14 -14 -15 -15 -15 -14 -14 -14 -14 -15 -15 -15 -15 -15 -15 -15 -15 -15 -16 -16 -16 -16 -16 -16 -17 -17 -17
-18 -18 -18 -18 -18 -18 -18 -17 -17 -17 -17 -17 -16 -16 -15 -15 -15 -15 -14 -15 -15 -15 -15 -15 -15 -15 -15 -15 -15 -15 -15 -15 -15 -15 -15 -15 -15 -16 -16 -16 -16 -16 -16 -17 -17 -17 -17
-18 -18 -19 -18 -18 -18 -18 -18 -17 -17 -17 -17 -17 -17 -16 -16 -16 -15 -15 -15 -15 -15 -15 -15 -15 -15 -15 -15 -15 -15 -15 -15 -15 -15 -15 -15 -16 -16 -16 -17 -17 -16 -17 -17 -17 -18 -18
-18 -19 -19 -19 -18 -18 -18 -18 -18 -18 -17 -17 -17 -17 -17 -17 -16 -16 -16 -16 -16 -15 -15 -16 -16 -16 -15 -15 -15 -15 -15 -15 -15 -16 -16 -16 -17 -16 -17 -17 -17 -17 -17 -18 -18 -18 -18

GFSGBSN_500_temp_003.txt.gz
Temp
-14 -15 -15 -15 -16 -16 -15 -15 -15 -15 -15 -16 -16 -16 -16 -15 -15 -15 -15 -16 -16 -16 -16 -16 -16 -16 -15 -14 -15 -15 -15 -15 -15 -16 -16 -16 -16 -16 -15 -15 -16 -15 -14 -14 -15 -14 -14
-14 -14 -15 -15 -16 -15 -15 -15 -15 -15 -15 -15 -16 -16 -15 -16 -15 -15 -15 -15 -16 -16 -16 -15 -16 -15 -15 -15 -16 -16 -16 -16 -16 -16 -16 -15 -16 -15 -16 -16 -15 -14 -14 -14 -14 -14 -13
-15 -15 -15 -16 -16 -15 -15 -15 -15 -15 -15 -16 -16 -15 -15 -15 -15 -16 -16 -16 -16 -16 -15 -16 -16 -15 -16 -16 -15 -16 -16 -15 -15 -16 -16 -15 -16 -16 -16 -16 -14 -14 -14 -14 -14 -14 -14
-15 -15 -15 -16 -15 -15 -15 -15 -15 -15 -15 -15 -16 -16 -15 -15 -16 -16 -16 -15 -15 -15 -15 -16 -16 -16 -16 -16 -16 -16 -16 -15 -14 -14 -14 -15 -16 -15 -14 -14 -14 -14 -13 -14 -14 -14 -14
-15 -15 -16 -15 -15 -15 -15 -15 -15 -15 -15 -15 -16 -15 -15 -15 -15 -16 -15 -15 -15 -15 -15 -16 -16 -16 -16 -16 -16 -16 -15 -15 -16 -15 -15 -14 -15 -14 -14 -15 -15 -15 -15 -15 -15 -14 -14
-15 -15 -16 -15 -15 -15 -15 -15 -15 -15 -14 -15 -15 -16 -16 -15 -15 -15 -15 -15 -16 -16 -16 -16 -16 -16 -16 -16 -16 -15 -15 -15 -15 -15 -15 -15 -16 -16 -16 -14 -14 -15 -15 -15 -15 -14 -14
-15 -15 -16 -15 -15 -15 -15 -15 -15 -15 -14 -14 -15 -15 -15 -15 -15 -15 -15 -15 -15 -15 -15 -15 -16 -15 -16 -15 -15 -15 -15 -15 -15 -15 -15 -15 -14 -14 -14 -14 -15 -15 -15 -15 -15 -13 -14
-15 -15 -15 -15 -15 -15 -15 -15 -15 -15 -15 -15 -15 -15 -16 -15 -15 -15 -15 -15 -15 -15 -15 -15 -15 -15 -15 -15 -15 -15 -15 -15 -15 -15 -15 -15 -14 -15 -15 -15 -15 -15 -14 -14 -14 -13 -14
-15 -15 -15 -15 -15 -15 -15 -15 -15 -15 -15 -15 -15 -15 -15 -15 -15 -15 -15 -15 -15 -15 -15 -15 -15 -15 -15 -15 -15 -15 -15 -15 -15 -14 -14 -14 -14 -15 -14 -14 -14 -14 -14 -14 -14 -14 -14
-15 -16 -15 -15 -15 -15 -15 -15 -15 -15 -15 -15 -15 -15 -15 -15 -15 -15 -15 -15 -15 -15 -15 -15 -15 -15 -15 -15 -15 -14 -15 -15 -14 -14 -14 -14 -14 -14 -14 -14 -14 -14 -14 -14 -14 -14 -14
-15 -16 -15 -15 -15 -15 -15 -15 -15 -14 -15 -14 -14 -14 -15 -15 -15 -15 -15 -15 -15 -15 -15 -15 -15 -14 -14 -14 -14 -14 -14 -14 -14 -14 -14 -14 -14 -14 -14 -14 -14 -14 -14 -14 -14 -14 -14
-16 -15 -15 -15 -15 -15 -15 -14 -14 -14 -14 -14 -14 -14 -14 -15 -15 -15 -15 -15 -15 -14 -14 -14 -14 -14 -14 -14 -14 -14 -14 -14 -14 -14 -14 -14 -14 -14 -14 -14 -14 -14 -14 -14 -14 -14 -14
-17 -16 -16 -15 -15 -15 -15 -14 -14 -14 -14 -14 -14 -14 -14 -14 -15 -15 -14 -14 -14 -14 -14 -14 -14 -14 -14 -14 -14 -14 -14 -14 -14 -14 -14 -14 -14 -14 -14 -14 -14 -14 -14 -14 -14 -14 -14
-17 -16 -16 -15 -15 -15 -14 -14 -14 -14 -14 -14 -14 -14 -14 -14 -15 -15 -14 -14 -14 -14 -14 -14 -14 -14 -14 -15 -15 -14 -14 -15 -15 -15 -14 -14 -14 -14 -14 -14 -14 -14 -14 -14 -15 -15 -15
-17 -16 -16 -15 -15 -15 -14 -14 -14 -14 -14 -14 -14 -14 -14 -14 -14 -14 -14 -14 -14 -14 -14 -14 -14 -14 -14 -14 -14 -14 -15 -15 -15 -15 -15 -14 -14 -14 -14 -14 -14 -14 -15 -15 -15 -15 -15
-17 -17 -16 -16 -15 -15 -14 -14 -14 -14 -14 -14 -14 -14 -14 -15 -14 -14 -14 -14 -15 -14 -14 -14 -14 -14 -14 -14 -14 -14 -15 -15 -15 -15 -15 -15 -15 -14 -14 -14 -14 -14 -15 -15 -15 -15 -15
-17 -17 -16 -16 -15 -14 -14 -14 -14 -14 -14 -14 -14 -14 -14 -14 -14 -14 -14 -14 -14 -15 -14 -14 -14 -14 -14 -14 -14 -14 -14 -15 -15 -14 -14 -15 -15 -14 -14 -14 -14 -14 -14 -15 -15 -15 -16
-17 -17 -16 -16 -15 -14 -14 -14 -14 -14 -14 -14 -14 -14 -14 -14 -14 -14 -15 -14 -14 -14 -14 -14 -14 -14 -14 -14 -14 -14 -15 -15 -14 -14 -14 -15 -15 -15 -14 -14 -14 -14 -15 -15 -15 -15 -15
-17 -17 -16 -16 -15 -15 -14 -14 -14 -14 -14 -14 -14 -14 -14 -14 -14 -14 -14 -14 -14 -14 -14 -14 -14 -14 -14 -14 -14 -14 -14 -14 -14 -14 -14 -14 -14 -14 -14 -14 -15 -14 -14 -14 -15 -15 -16
-18 -17 -17 -16 -16 -15 -14 -14 -14 -14 -14 -14 -14 -14 -14 -14 -14 -14 -14 -14 -14 -14 -14 -14 -14 -14 -14 -14 -14 -14 -14 -14 -14 -14 -14 -14 -14 -14 -14 -14 -14 -15 -15 -15 -15 -15 -15
-18 -18 -17 -16 -16 -15 -15 -15 -14 -14 -14 -14 -14 -14 -14 -14 -14 -14 -14 -14 -14 -14 -14 -14 -14 -14 -14 -14 -14 -14 -14 -14 -14 -14 -14 -14 -14 -14 -15 -15 -15 -15 -15 -15 -15 -15 -15
-18 -18 -18 -17 -17 -16 -15 -15 -15 -14 -14 -14 -14 -14 -14 -14 -14 -14 -14 -14 -14 -14 -14 -14 -14 -14 -14 -13 -13 -14 -14 -14 -15 -15 -15 -14 -14 -15 -15 -15 -15 -15 -15 -15 -15 -16 -16
-18 -18 -18 -17 -17 -17 -16 -15 -15 -14 -14 -14 -14 -14 -14 -14 -14 -14 -14 -14 -14 -14 -14 -14 -14 -14 -13 -14 -14 -15 -15 -15 -15 -15 -15 -15 -14 -15 -15 -15 -15 -15 -15 -15 -15 -16 -16
-18 -18 -18 -18 -17 -17 -17 -16 -15 -15 -14 -14 -14 -14 -14 -14 -14 -14 -14 -14 -14 -14 -14 -13 -13 -14 -14 -15 -14 -14 -14 -14 -15 -15 -15 -15 -15 -15 -15 -15 -15 -15 -15 -15 -16 -16 -16
-18 -18 -18 -18 -18 -18 -17 -16 -16 -15 -15 -15 -14 -14 -14 -14 -14 -14 -14 -14 -13 -13 -13 -13 -14 -15 -14 -14 -14 -14 -15 -15 -15 -15 -15 -15 -15 -15 -15 -15 -15 -15 -15 -16 -16 -16 -17
-18 -18 -18 -18 -18 -18 -18 -17 -17 -16 -15 -15 -15 -14 -14 -14 -14 -14 -14 -14 -13 -14 -14 -14 -14 -15 -15 -15 -15 -14 -15 -15 -15 -15 -15 -15 -15 -15 -15 -15 -15 -15 -15 -16 -16 -16 -17
-18 -18 -18 -18 -18 -18 -18 -17 -17 -17 -16 -16 -15 -15 -15 -14 -15 -14 -14 -14 -14 -14 -14 -14 -14 -15 -15 -15 -15 -15 -15 -15 -15 -15 -15 -15 -15 -15 -15 -15 -16 -16 -16 -16 -16 -17 -17
-18 -18 -18 -18 -18 -18 -18 -18 -18 -17 -17 -17 -16 -16 -15 -15 -15 -15 -14 -14 -14 -14 -14 -15 -15 -15 -16 -16 -15 -15 -15 -15 -15 -15 -15 -15 -15 -16 -15 -16 -16 -16 -16 -16 -17 -17 -17
-18 -18 -18 -18 -18 -18 -18 -18 -18 -18 -17 -17 -17 -16 -16 -16 -16 -15 -15 -15 -14 -14 -15 -15 -15 -16 -16 -16 -16 -16 -15 -15 -15 -15 -15 -15 -16 -16 -16 -16 -16 -16 -16 -16 -17 -17 -18

GFSGBSN_500_temp_006.txt.gz
Temp
-12 -13 -13 -13 -14 -14 -14 -15 -14 -15 -15 -15 -15 -16 -16 -16 -16 -15 -15 -16 -16 -16 -16 -16 -16 -16 -15 -15 -15 -15 -15 -16 -16 -16 -15 -16 -15 -16 -16 -16 -16 -16 -16 -16 -16 -15 -14
-12 -13 -13 -13 -14 -14 -14 -15 -14 -15 -15 -15 -16 -16 -16 -16 -16 -15 -15 -15 -16 -16 -16 -16 -16 -16 -16 -16 -16 -16 -16 -16 -16 -16 -16 -16 -16 -16 -16 -16 -16 -16 -14 -15 -15 -15 -14
-13 -13 -13 -14 -14 -14 -15 -14 -15 -15 -15 -15 -16 -16 -16 -16 -16 -15 -15 -15 -16 -16 -16 -16 -16 -15 -15 -16 -16 -15 -16 -16 -16 -16 -16 -16 -15 -15 -16 -15 -15 -14 -15 -14 -15 -15 -14
-13 -13 -13 -14 -14 -14 -14 -14 -15 -15 -15 -15 -15 -16 -16 -16 -16 -16 -16 -16 -16 -16 -16 -16 -16 -16 -16 -16 -16 -15 -16 -16 -16 -16 -16 -16 -16 -16 -15 -15 -14 -14 -14 -14 -14 -14 -14
-13 -13 -13 -14 -14 -14 -14 -14 -14 -14 -15 -15 -15 -16 -16 -16 -16 -16 -16 -16 -16 -16 -16 -16 -16 -16 -16 -16 -16 -15 -16 -15 -15 -16 -15 -15 -16 -15 -15 -15 -15 -15 -14 -14 -14 -15 -15
-14 -13 -14 -14 -14 -15 -14 -14 -14 -14 -15 -15 -15 -16 -16 -16 -16 -16 -16 -16 -16 -16 -16 -17 -17 -16 -16 -16 -16 -16 -16 -16 -15 -16 -16 -15 -16 -16 -16 -15 -15 -15 -14 -14 -15 -15 -15
-14 -14 -14 -14 -14 -15 -15 -14 -15 -15 -15 -15 -15 -16 -16 -16 -16 -16 -16 -16 -16 -16 -16 -16 -16 -16 -16 -16 -16 -16 -16 -16 -16 -16 -16 -16 -16 -15 -15 -15 -15 -16 -16 -15 -15 -15 -15
-14 -14 -14 -14 -14 -15 -15 -14 -15 -15 -15 -15 -15 -16 -16 -16 -16 -16 -16 -16 -16 -16 -16 -16 -16 -16 -16 -16 -16 -16 -16 -16 -16 -16 -16 -15 -15 -15 -15 -15 -15 -15 -15 -15 -15 -15 -15
-14 -14 -15 -14 -14 -15 -14 -14 -15 -15 -15 -15 -15 -15 -16 -16 -16 -16 -15 -16 -16 -16 -16 -16 -16 -15 -15 -15 -15 -15 -15 -15 -15 -15 -15 -15 -15 -15 -14 -15 -15 -15 -15 -15 -15 -15 -15
-14 -14 -15 -15 -14 -14 -14 -15 -15 -15 -15 -16 -15 -15 -15 -15 -15 -15 -15 -15 -15 -16 -16 -15 -15 -15 -15 -15 -15 -15 -15 -15 -15 -15 -15 -15 -15 -14 -15 -15 -14 -15 -15 -15 -15 -15 -15
-15 -15 -15 -15 -15 -14 -15 -15 -15 -15 -16 -16 -15 -15 -15 -15 -15 -15 -15 -15 -15 -15 -15 -15 -15 -15 -15 -15 -15 -15 -15 -15 -15 -15 -15 -15 -15 -15 -15 -15 -14 -14 -15 -15 -14 -14 -14
-15 -15 -15 -15 -15 -15 -15 -15 -15 -15 -15 -15 -15 -15 -15 -15 -15 -15 -15 -15 -15 -15 -15 -15 -15 -15 -15 -15 -15 -15 -15 -15 -15 -14 -15 -15 -15 -15 -15 -15 -15 -14 -14 -14 -14 -14 -14
-16 -16 -15 -16 -15 -15 -15 -15 -15 -15 -15 -15 -15 -15 -15 -15 -15 -15 -15 -15 -15 -15 -15 -15 -15 -15 -15 -15 -15 -15 -15 -15 -15 -14 -14 -15 -15 -14 -14 -14 -14 -14 -14 -14 -14 -14 -15
-16 -16 -16 -16 -15 -15 -15 -15 -15 -15 -15 -14 -14 -15 -15 -15 -15 -15 -15 -15 -15 -14 -14 -14 -14 -15 -15 -15 -15 -14 -14 -15 -15 -15 -15 -14 -14 -14 -14 -14 -14 -14 -14 -14 -14 -15 -15
-17 -16 -16 -17 -15 -15 -15 -15 -14 -15 -15 -14 -15 -15 -15 -15 -15 -15 -15 -15 -15 -14 -14 -15 -14 -14 -15 -15 -15 -15 -15 -15 -15 -15 -15 -15 -15 -14 -14 -14 -14 -14 -14 -14 -15 -15 -15
-17 -17 -17 -16 -15 -15 -15 -15 -14 -15 -15 -15 -15 -15 -15 -15 -15 -15 -15 -15 -14 -14 -15 -15 -15 -14 -15 -15 -14 -15 -15 -15 -15 -14 -15 -15 -15 -14 -14 -14 -14 -14 -14 -14 -15 -15 -15
-17 -17 -17 -16 -15 -15 -15 -15 -14 -15 -14 -15 -15 -15 -15 -14 -15 -15 -15 -15 -14 -15 -15 -14 -15 -14 -14 -14 -14 -14 -15 -15 -14 -15 -14 -14 -14 -14 -14 -14 -14 -14 -14 -14 -14 -14 -15
-18 -18 -17 -16 -15 -15 -15 -15 -14 -15 -14 -14 -15 -15 -15 -14 -14 -15 -15 -15 -15 -15 -15 -14 -15 -14 -15 -14 -15 -15 -15 -15 -15 -14 -14 -14 -14 -14 -14 -14 -14 -14 -14 -14 -14 -14 -15
-18 -18 -17 -16 -15 -15 -15 -15 -14 -14 -14 -14 -15 -15 -14 -14 -14 -15 -14 -14 -15 -14 -14 -14 -14 -14 -15 -14 -15 -14 -14 -15 -15 -14 -14 -14 -14 -15 -15 -14 -14 -14 -14 -14 -14 -15 -15
-18 -18 -17 -16 -16 -16 -15 -15 -14 -14 -14 -15 -15 -14 -14 -14 -15 -15 -14 -14 -15 -14 -14 -14 -14 -14 -14 -14 -15 -14 -15 -14 -15 -15 -15 -15 -15 -15 -15 -15 -15 -14 -14 -14 -14 -14 -15
-18 -18 -17 -17 -16 -16 -15 -15 -14 -14 -14 -15 -14 -14 -14 -14 -14 -14 -14 -14 -14 -14 -14 -14 -14 -14 -14 -14 -14 -14 -14 -14 -15 -15 -15 -15 -15 -14 -14 -14 -14 -15 -15 -15 -15 -15 -15
-19 -18 -17 -17 -16 -16 -15 -15 -14 -14 -14 -15 -15 -14 -14 -14 -15 -14 -14 -14 -14 -14 -14 -14 -14 -14 -13 -14 -14 -15 -14 -15 -15 -15 -15 -15 -15 -15 -15 -15 -15 -15 -15 -15 -15 -15 -15
-19 -18 -17 -17 -17 -16 -16 -15 -14 -14 -14 -14 -14 -14 -14 -14 -14 -14 -14 -14 -14 -14 -14 -14 -14 -14 -14 -14 -15 -15 -15 -15 -15 -15 -15 -15 -15 -15 -15 -15 -15 -15 -15 -15 -15 -15 -16
-18 -18 -18 -18 -17 -16 -16 -15 -14 -14 -14 -14 -14 -14 -14 -14 -14 -14 -14 -14 -14 -14 -14 -14 -14 -14 -15 -14 -14 -14 -15 -15 -15 -15 -15 -15 -15 -15 -15 -15 -15 -15 -16 -16 -15 -15 -16
-19 -19 -18 -18 -17 -17 -16 -16 -15 -15 -14 -15 -14 -15 -15 -15 -15 -15 -14 -14 -14 -14 -14 -14 -14 -14 -14 -14 -14 -14 -14 -15 -15 -15 -15 -15 -15 -15 -15 -15 -15 -15 -15 -16 -15 -16 -16
-19 -19 -18 -19 -18 -17 -17 -16 -16 -15 -15 -15 -14 -15 -15 -15 -15 -14 -14 -14 -14 -14 -14 -14 -14 -14 -14 -14 -14 -14 -15 -15 -15 -15 -15 -16 -16 -16 -16 -15 -15 -15 -15 -16 -16 -16 -16
-19 -19 -19 -19 -18 -18 -18 -17 -16 -16 -15 -15 -15 -15 -15 -14 -15 -14 -14 -14 -14 -14 -14 -14 -14 -14 -14 -14 -14 -15 -15 -15 -15 -15 -15 -16 -16 -16 -16 -15 -15 -15 -16 -16 -16 -16 -16
-19 -19 -19 -19 -18 -18 -18 -18 -17 -16 -16 -15 -15 -15 -15 -15 -15 -15 -14 -14 -14 -14 -14 -14 -14 -14 -14 -14 -15 -15 -15 -15 -15 -15 -16 -16 -16 -16 -16 -16 -16 -16 -16 -16 -16 -17 -17
-19 -19 -19 -19 -19 -18 -18 -18 -18 -17 -17 -16 -16 -16 -15 -15 -15 -15 -15 -15 -14 -14 -14 -14 -14 -14 -14 -15 -15 -16 -16 -15 -16 -16 -16 -16 -16 -16 -16 -16 -16 -16 -16 -16 -16 -16 -16

GFSGBSN_500_temp_009.txt.gz
Temp
-12 -12 -12 -12 -12 -12 -13 -13 -14 -14 -15 -15 -15 -15 -15 -16 -16 -16 -16 -15 -16 -16 -16 -16 -16 -16 -15 -16 -16 -16 -16 -16 -16 -17 -16 -16 -16 -16 -15 -16 -16 -16 -16 -16 -16 -16 -15
-12 -12 -12 -12 -12 -12 -13 -13 -14 -14 -15 -15 -15 -15 -16 -16 -16 -16 -16 -15 -16 -16 -16 -16 -16 -16 -16 -16 -16 -16 -16 -16 -17 -16 -16 -16 -16 -16 -16 -16 -16 -15 -15 -15 -14 -15 -15
-12 -12 -12 -12 -12 -12 -13 -13 -14 -14 -15 -15 -15 -15 -15 -16 -16 -16 -16 -15 -16 -16 -16 -16 -16 -16 -16 -16 -16 -16 -16 -17 -17 -16 -16 -16 -15 -16 -16 -16 -16 -15 -15 -15 -15 -15 -15
-12 -12 -13 -12 -12 -13 -13 -13 -14 -14 -15 -15 -15 -15 -15 -16 -16 -16 -16 -16 -16 -16 -16 -16 -16 -17 -17 -16 -16 -16 -16 -16 -16 -16 -17 -16 -16 -16 -16 -16 -16 -15 -15 -15 -15 -15 -14
-13 -13 -13 -13 -13 -13 -13 -13 -14 -14 -15 -15 -15 -15 -16 -16 -16 -16 -16 -16 -16 -16 -16 -16 -16 -17 -17 -17 -17 -16 -16 -16 -16 -16 -16 -16 -17 -17 -16 -16 -15 -15 -15 -15 -15 -15 -15
-13 -13 -13 -13 -13 -13 -13 -14 -14 -15 -15 -15 -15 -15 -16 -16 -16 -16 -16 -16 -16 -16 -16 -17 -17 -17 -17 -17 -16 -16 -16 -16 -16 -16 -16 -16 -16 -16 -16 -16 -16 -16 -15 -15 -15 -15 -15
-13 -13 -13 -13 -13 -13 -13 -14 -14 -15 -15 -15 -15 -15 -15 -16 -16 -16 -16 -16 -16 -17 -17 -17 -17 -17 -17 -16 -17 -17 -16 -16 -17 -17 -16 -16 -16 -16 -16 -16 -15 -15 -15 -15 -16 -16 -15
-14 -14 -13 -13 -13 -13 -13 -14 -14 -15 -15 -15 -15 -16 -16 -16 -16 -16 -16 -16 -16 -16 -17 -17 -17 -16 -16 -16 -16 -16 -16 -16 -17 -16 -16 -16 -16 -16 -15 -16 -15 -15 -15 -15 -15 -15 -15
-14 -14 -14 -14 -14 -13 -14 -14 -14 -15 -15 -15 -15 -16 -15 -15 -16 -16 -16 -16 -16 -16 -16 -16 -16 -16 -16 -16 -16 -16 -16 -16 -16 -17 -17 -15 -15 -16 -16 -16 -15 -16 -16 -16 -15 -15 -15
-15 -14 -14 -14 -14 -13 -14 -14 -14 -15 -15 -15 -15 -15 -15 -16 -16 -16 -16 -16 -16 -16 -16 -16 -16 -16 -16 -16 -16 -16 -16 -16 -15 -16 -16 -16 -15 -15 -15 -15 -15 -16 -16 -16 -15 -15 -15
-15 -15 -14 -14 -14 -14 -14 -14 -15 -15 -15 -15 -15 -15 -16 -16 -16 -16 -16 -16 -16 -16 -16 -16 -16 -16 -15 -15 -15 -16 -15 -16 -16 -15 -15 -15 -15 -15 -15 -15 -15 -15 -15 -15 -15 -15 -15
-15 -15 -14 -14 -14 -14 -14 -14 -15 -15 -15 -15 -16 -15 -15 -15 -15 -15 -15 -16 -16 -16 -15 -15 -15 -15 -15 -15 -15 -15 -15 -15 -16 -16 -15 -15 -15 -15 -15 -15 -15 -15 -15 -15 -15 -15 -15
-15 -14 -15 -14 -14 -14 -15 -15 -15 -15 -15 -15 -16 -15 -15 -15 -15 -15 -15 -15 -16 -15 -15 -15 -15 -15 -15 -15 -15 -15 -15 -15 -15 -15 -15 -15 -15 -15 -15 -15 -15 -15 -15 -15 -15 -15 -15
-15 -15 -15 -15 -15 -15 -15 -15 -15 -15 -15 -15 -15 -15 -15 -15 -15 -15 -15 -15 -15 -15 -15 -15 -15 -15 -15 -15 -15 -15 -15 -15 -15 -15 -15 -15 -15 -15 -15 -15 -15 -15 -15 -15 -15 -15 -14
-16 -16 -16 -16 -15 -15 -15 -15 -15 -15 -15 -15 -15 -15 -15 -15 -15 -15 -15 -15 -15 -15 -15 -15 -15 -15 -15 -15 -15 -15 -15 -15 -15 -15 -15 -15 -15 -15 -15 -15 -15 -14 -14 -14 -15 -15 -14
-17 -17 -16 -16 -16 -15 -16 -15 -15 -15 -15 -15 -15 -15 -15 -15 -15 -15 -15 -15 -15 -15 -15 -15 -15 -15 -15 -15 -15 -15 -15 -15 -15 -15 -15 -15 -15 -15 -15 -15 -14 -14 -14 -14 -15 -14 -14
-17 -17 -17 -16 -16 -16 -16 -16 -15 -15 -15 -15 -15 -15 -15 -15 -15 -15 -15 -15 -15 -15 -15 -15 -15 -15 -15 -14 -14 -15 -15 -15 -15 -15 -15 -15 -15 -15 -15 -14 -14 -14 -14 -14 -14 -14 -14
-18 -17 -17 -17 -16 -17 -16 -16 -15 -15 -15 -15 -15 -15 -15 -15 -15 -15 -15 -15 -15 -15 -15 -15 -15 -15 -15 -15 -15 -15 -15 -15 -15 -15 -15 -15 -15 -15 -15 -15 -15 -15 -14 -14 -14 -14 -14
-18 -18 -17 -17 -17 -17 -17 -16 -15 -15 -15 -15 -15 -15 -15 -15 -15 -15 -15 -15 -15 -15 -15 -15 -15 -15 -15 -15 -15 -15 -15 -15 -15 -15 -15 -15 -15 -15 -15 -15 -15 -15 -14 -14 -14 -14 -14
-18 -18 -17 -17 -17 -17 -17 -16 -16 -15 -15 -15 -15 -15 -15 -15 -15 -15 -14 -15 -15 -15 -15 -15 -15 -14 -15 -15 -15 -15 -15 -15 -15 -15 -15 -15 -15 -15 -15 -15 -15 -15 -15 -15 -14 -15 -15
-18 -18 -18 -18 -17 -17 -17 -16 -16 -15 -15 -15 -15 -15 -15 -15 -15 -14 -14 -14 -15 -15 -15 -14 -14 -14 -14 -15 -15 -15 -15 -15 -15 -15 -15 -15 -15 -15 -15 -15 -15 -15 -15 -15 -15 -15 -15
-18 -18 -18 -18 -17 -17 -17 -16 -15 -15 -15 -15 -15 -15 -15 -15 -15 -14 -14 -14 -15 -15 -15 -15 -14 -14 -15 -15 -15 -15 -15 -15 -15 -15 -15 -15 -15 -15 -15 -15 -15 -15 -15 -15 -15 -15 -15
-19 -18 -18 -18 -18 -17 -16 -15 -15 -15 -15 -15 -15 -15 -15 -15 -15 -14 -14 -14 -15 -15 -15 -14 -14 -14 -14 -15 -15 -15 -15 -15 -15 -15 -15 -15 -15 -15 -15 -15 -15 -15 -15 -15 -16 -15 -15
-19 -18 -18 -18 -18 -17 -16 -15 -15 -15 -15 -15 -15 -15 -15 -15 -15 -14 -14 -15 -15 -14 -14 -14 -14 -14 -14 -14 -14 -14 -15 -15 -15 -15 -15 -15 -16 -16 -15 -15 -15 -15 -15 -16 -16 -16 -16
-19 -18 -19 -18 -18 -16 -16 -16 -16 -15 -15 -15 -15 -15 -15 -15 -15 -14 -15 -15 -14 -14 -14 -14 -14 -14 -14 -14 -14 -14 -15 -15 -15 -15 -15 -16 -16 -16 -16 -16 -15 -15 -16 -16 -16 -16 -16
-19 -19 -19 -19 -18 -17 -17 -16 -16 -16 -15 -15 -15 -15 -15 -15 -15 -15 -15 -15 -15 -14 -14 -14 -14 -14 -14 -14 -14 -14 -14 -14 -15 -15 -15 -16 -16 -16 -16 -16 -15 -15 -16 -16 -16 -16 -16
-19 -20 -19 -19 -18 -17 -17 -17 -16 -16 -16 -15 -15 -15 -15 -15 -15 -15 -15 -15 -14 -14 -14 -14 -14 -14 -14 -14 -14 -14 -14 -14 -15 -15 -15 -16 -16 -16 -16 -16 -15 -16 -16 -16 -16 -16 -16
-20 -20 -19 -19 -18 -18 -17 -17 -16 -17 -16 -15 -14 -15 -15 -15 -15 -15 -15 -15 -15 -15 -15 -14 -14 -14 -14 -14 -14 -14 -14 -14 -14 -15 -15 -15 -16 -16 -17 -16 -16 -16 -16 -17 -17 -16 -17
-20 -19 -19 -19 -19 -19 -18 -18 -17 -17 -16 -16 -15 -15 -15 -15 -15 -15 -15 -15 -15 -15 -15 -14 -14 -14 -14 -14 -14 -14 -14 -14 -15 -15 -16 -16 -17 -16 -17 -17 -17 -17 -16 -17 -16 -17 -17

GFSGBSN_500_temp_012.txt.gz
Temp
-12 -12 -12 -12 -12 -12 -12 -12 -13 -13 -13 -13 -13 -14 -15 -15 -15 -16 -16 -16 -16 -16 -16 -16 -16 -16 -16 -16 -16 -16 -16 -16 -16 -16 -16 -16 -16 -16 -16 -16 -16 -16 -15 -15 -15 -15 -16
-12 -12 -12 -12 -12 -12 -12 -12 -13 -13 -13 -13 -14 -14 -15 -15 -16 -16 -16 -16 -16 -16 -16 -16 -16 -16 -17 -17 -17 -16 -16 -16 -16 -17 -17 -17 -16 -16 -17 -16 -16 -16 -16 -15 -16 -16 -15
-13 -12 -12 -12 -12 -12 -12 -12 -13 -13 -13 -13 -14 -15 -15 -15 -15 -16 -16 -16 -16 -16 -16 -16 -16 -17 -17 -17 -17 -17 -16 -16 -16 -16 -17 -16 -16 -16 -16 -16 -16 -16 -15 -15 -15 -15 -15
-13 -13 -12 -12 -12 -12 -12 -13 -13 -13 -13 -13 -14 -15 -15 -15 -15 -16 -16 -16 -16 -16 -16 -16 -16 -17 -17 -16 -17 -18 -17 -16 -17 -17 -17 -16 -16 -16 -16 -16 -16 -16 -16 -15 -15 -15 -15
-13 -13 -13 -13 -12 -13 -13 -13 -13 -13 -13 -13 -14 -15 -15 -15 -16 -16 -16 -16 -16 -16 -16 -16 -17 -17 -17 -17 -18 -17 -17 -17 -17 -17 -17 -16 -16 -17 -17 -16 -16 -16 -16 -15 -15 -15 -15
-13 -13 -13 -13 -13 -13 -13 -13 -13 -13 -13 -14 -15 -15 -15 -15 -16 -16 -16 -16 -16 -17 -17 -17 -17 -17 -17 -17 -17 -17 -17 -17 -17 -17 -16 -16 -16 -16 -17 -16 -16 -15 -16 -15 -15 -15 -14
-13 -14 -14 -13 -13 -13 -13 -13 -13 -13 -13 -14 -15 -15 -15 -15 -16 -16 -16 -16 -17 -16 -17 -17 -17 -17 -17 -17 -17 -17 -17 -17 -17 -17 -16 -17 -17 -17 -17 -17 -16 -16 -16 -16 -16 -15 -15
-13 -13 -14 -14 -13 -13 -13 -13 -13 -13 -13 -14 -15 -15 -15 -16 -16 -16 -16 -17 -16 -17 -17 -17 -17 -17 -17 -17 -17 -17 -17 -17 -17 -17 -17 -17 -17 -17 -16 -16 -16 -15 -15 -15 -15 -15 -15
-13 -13 -14 -14 -14 -14 -13 -13 -14 -13 -14 -14 -15 -15 -15 -16 -16 -16 -16 -17 -17 -17 -17 -17 -17 -16 -16 -16 -16 -17 -17 -17 -17 -17 -17 -16 -16 -16 -16 -16 -16 -16 -15 -15 -16 -16 -15
-13 -13 -14 -14 -14 -14 -13 -13 -14 -14 -14 -14 -15 -15 -15 -16 -16 -16 -16 -16 -17 -17 -16 -17 -16 -16 -16 -16 -16 -17 -17 -17 -17 -17 -17 -17 -17 -17 -16 -16 -16 -15 -16 -15 -16 -16 -16
-14 -14 -14 -14 -14 -14 -14 -13 -14 -14 -14 -14 -15 -15 -15 -16 -16 -16 -16 -16 -16 -17 -17 -16 -16 -16 -16 -16 -16 -16 -16 -16 -17 -17 -16 -16 -16 -16 -16 -16 -15 -15 -15 -15 -16 -16 -16
-14 -15 -14 -14 -14 -14 -14 -14 -14 -14 -14 -14 -15 -15 -16 -16 -16 -16 -16 -16 -16 -16 -16 -16 -16 -16 -16 -16 -16 -16 -16 -16 -16 -16 -16 -16 -16 -16 -16 -15 -15 -15 -15 -15 -15 -15 -15
-15 -16 -15 -15 -15 -14 -14 -14 -14 -14 -14 -15 -15 -15 -16 -16 -15 -16 -16 -16 -16 -16 -16 -16 -16 -16 -16 -16 -16 -15 -16 -16 -16 -16 -16 -16 -15 -15 -15 -15 -15 -15 -15 -15 -15 -15 -15
-17 -17 -16 -15 -15 -14 -14 -14 -14 -14 -15 -15 -15 -16 -16 -15 -15 -15 -16 -16 -16 -16 -16 -16 -16 -16 -15 -16 -16 -15 -15 -15 -16 -15 -16 -16 -16 -15 -15 -15 -15 -15 -15 -15 -15 -15 -15
-19 -17 -16 -16 -15 -14 -14 -14 -14 -15 -15 -15 -15 -16 -15 -15 -15 -15 -16 -16 -16 -16 -15 -15 -15 -15 -15 -15 -15 -15 -15 -15 -15 -15 -15 -15 -15 -15 -15 -15 -15 -15 -15 -15 -15 -15 -15
-18 -17 -17 -16 -15 -15 -14 -14 -15 -15 -15 -15 -16 -16 -15 -15 -15 -15 -16 -16 -16 -15 -15 -15 -15 -15 -15 -15 -15 -15 -15 -15 -15 -15 -15 -15 -15 -15 -15 -15 -15 -15 -15 -15 -15 -14 -14
-18 -17 -17 -17 -16 -16 -15 -15 -15 -15 -15 -15 -16 -15 -15 -15 -15 -15 -16 -15 -15 -15 -15 -15 -15 -15 -15 -15 -15 -15 -15 -15 -15 -16 -16 -15 -15 -15 -15 -15 -15 -15 -15 -15 -15 -14 -14
-18 -17 -17 -18 -17 -16 -16 -16 -16 -15 -15 -15 -16 -15 -15 -15 -15 -15 -15 -15 -15 -15 -15 -15 -15 -15 -15 -15 -15 -15 -15 -15 -15 -15 -15 -15 -15 -15 -15 -15 -15 -15 -15 -15 -15 -15 -14
-17 -18 -18 -18 -17 -17 -17 -16 -16 -16 -15 -16 -15 -15 -15 -15 -15 -15 -15 -15 -15 -15 -15 -15 -15 -15 -15 -15 -15 -15 -15 -15 -15 -15 -15 -15 -15 -15 -15 -15 -15 -15 -15 -15 -15 -15 -15
-18 -18 -18 -18 -18 -17 -17 -17 -16 -16 -16 -16 -16 -15 -15 -15 -15 -15 -15 -15 -15 -15 -15 -15 -15 -15 -16 -16 -15 -15 -15 -15 -15 -15 -15 -15 -15 -15 -15 -15 -15 -15 -15 -15 -15 -15 -15
-18 -19 -18 -18 -18 -18 -18 -17 -16 -16 -16 -16 -15 -15 -15 -15 -15 -15 -15 -15 -15 -15 -15 -15 -15 -15 -15 -15 -16 -15 -15 -15 -15 -15 -15 -15 -15 -15 -15 -15 -15 -15 -15 -15 -15 -15 -15
-18 -18 -18 -18 -18 -18 -18 -17 -17 -16 -16 -16 -15 -15 -15 -15 -15 -15 -15 -15 -15 -15 -15 -15 -15 -15 -15 -15 -15 -15 -15 -15 -15 -15 -15 -15 -15 -15 -15 -15 -15 -15 -15 -15 -15 -15 -15
-19 -18 -18 -19 -19 -18 -18 -17 -17 -16 -16 -15 -15 -15 -15 -15 -15 -15 -15 -15 -15 -15 -15 -15 -15 -15 -15 -15 -15 -15 -15 -15 -15 -15 -15 -15 -15 -15 -15 -15 -15 -15 -15 -15 -15 -15 -15
-19 -18 -19 -19 -19 -19 -18 -17 -17 -16 -16 -16 -16 -15 -15 -15 -15 -15 -15 -15 -15 -15 -15 -15 -15 -15 -15 -15 -14 -14 -14 -14 -15 -15 -15 -15 -15 -15 -15 -15 -15 -15 -15 -15 -16 -16 -16
-19 -19 -19 -19 -19 -18 -18 -17 -17 -16 -16 -16 -16 -15 -15 -15 -16 -15 -15 -15 -15 -15 -15 -15 -15 -15 -15 -14 -14 -14 -14 -14 -14 -15 -15 -15 -15 -15 -15 -15 -15 -15 -15 -16 -16 -16 -16
-19 -19 -19 -19 -19 -18 -17 -17 -17 -16 -16 -15 -15 -16 -16 -16 -15 -15 -15 -15 -15 -15 -15 -15 -15 -15 -15 -14 -14 -14 -14 -14 -14 -14 -15 -15 -15 -15 -16 -16 -15 -15 -16 -16 -16 -15 -17
-19 -19 -19 -19 -19 -18 -17 -17 -17 -16 -16 -15 -15 -16 -16 -15 -15 -15 -15 -16 -15 -15 -15 -15 -15 -15 -14 -14 -14 -14 -14 -14 -14 -14 -15 -15 -15 -15 -15 -15 -15 -16 -16 -16 -16 -16 -16
-19 -19 -19 -19 -19 -18 -18 -17 -17 -16 -16 -16 -16 -15 -16 -15 -15 -15 -15 -15 -15 -15 -15 -15 -15 -15 -14 -14 -14 -14 -14 -14 -14 -14 -14 -15 -15 -16 -16 -16 -15 -16 -17 -17 -17 -17 -17
-19 -19 -19 -20 -19 -18 -18 -17 -17 -16 -17 -17 -16 -16 -16 -15 -16 -15 -15 -15 -15 -15 -15 -15 -15 -15 -15 -15 -14 -14 -14 -14 -14 -14 -15 -15 -16 -16 -16 -16 -16 -17 -17 -17 -17 -17 -17

GFSGBSN_500_temp_015.txt.gz
Temp
-12 -13 -13 -13 -12 -12 -12 -12 -12 -12 -13 -13 -13 -13 -13 -14 -14 -14 -15 -16 -16 -16 -16 -16 -16 -17 -16 -16 -16 -16 -16 -16 -17 -16 -16 -15 -15 -16 -16 -16 -16 -16 -16 -16 -15 -15 -16
-12 -13 -13 -13 -13 -12 -12 -12 -12 -12 -12 -13 -13 -13 -13 -14 -15 -15 -15 -16 -16 -16 -16 -16 -16 -17 -17 -16 -17 -17 -16 -16 -17 -16 -16 -16 -17 -17 -16 -16 -16 -16 -16 -16 -16 -17 -16
-12 -13 -13 -13 -13 -13 -12 -12 -12 -13 -13 -13 -13 -13 -13 -15 -15 -15 -15 -15 -16 -16 -16 -16 -16 -17 -17 -17 -17 -17 -16 -16 -17 -17 -17 -17 -16 -16 -16 -16 -16 -16 -16 -15 -16 -16 -16
-13 -13 -13 -13 -13 -13 -12 -12 -12 -13 -13 -13 -13 -13 -14 -15 -15 -15 -15 -16 -16 -16 -16 -16 -16 -17 -17 -17 -16 -17 -17 -17 -17 -17 -17 -16 -16 -16 -16 -16 -16 -16 -16 -15 -15 -16 -16
-13 -13 -13 -13 -13 -13 -13 -12 -12 -13 -13 -13 -13 -13 -14 -15 -15 -15 -16 -16 -16 -16 -16 -16 -17 -17 -17 -17 -17 -17 -17 -17 -17 -17 -17 -16 -17 -17 -17 -16 -16 -16 -15 -16 -16 -16 -16
-12 -13 -13 -13 -13 -13 -13 -13 -13 -13 -13 -13 -13 -13 -14 -14 -14 -15 -16 -16 -16 -16 -16 -17 -17 -17 -17 -17 -18 -17 -17 -17 -17 -17 -17 -17 -16 -17 -16 -16 -16 -16 -16 -15 -16 -15 -15
-12 -13 -13 -13 -13 -13 -13 -13 -13 -13 -13 -13 -13 -13 -14 -14 -15 -15 -16 -16 -16 -17 -17 -17 -17 -17 -17 -17 -17 -18 -17 -17 -17 -17 -17 -17 -17 -16 -17 -17 -16 -16 -16 -16 -15 -15 -15
-12 -13 -13 -13 -13 -13 -13 -13 -13 -13 -13 -13 -14 -13 -14 -14 -15 -16 -16 -17 -17 -17 -17 -17 -17 -17 -17 -17 -17 -17 -17 -17 -17 -17 -17 -17 -17 -17 -16 -16 -16 -16 -16 -16 -16 -16 -15
-13 -13 -13 -13 -13 -13 -14 -14 -13 -13 -13 -14 -14 -14 -15 -14 -15 -16 -16 -16 -16 -17 -17 -17 -17 -17 -17 -17 -17 -18 -18 -18 -17 -17 -17 -17 -17 -17 -17 -16 -16 -16 -17 -16 -16 -16 -16
-14 -14 -13 -13 -14 -13 -13 -14 -13 -13 -13 -14 -14 -14 -15 -15 -16 -16 -16 -16 -16 -17 -17 -17 -17 -17 -17 -17 -17 -17 -18 -18 -17 -17 -17 -17 -17 -17 -17 -16 -17 -16 -17 -16 -16 -16 -16
-14 -14 -13 -13 -13 -13 -13 -14 -14 -13 -14 -14 -14 -14 -14 -15 -16 -16 -16 -17 -17 -17 -17 -17 -17 -17 -17 -16 -17 -17 -17 -17 -17 -17 -17 -17 -17 -17 -17 -17 -17 -16 -16 -16 -16 -16 -15
-15 -14 -13 -13 -13 -13 -13 -14 -14 -14 -14 -14 -14 -14 -14 -16 -16 -16 -16 -17 -17 -17 -17 -17 -17 -17 -16 -16 -16 -16 -17 -17 -17 -17 -17 -17 -17 -17 -17 -17 -16 -16 -16 -16 -16 -15 -15
-15 -15 -13 -13 -13 -14 -14 -14 -14 -14 -14 -14 -14 -14 -15 -16 -16 -16 -16 -16 -17 -16 -17 -17 -16 -17 -16 -16 -16 -16 -16 -16 -16 -17 -17 -17 -16 -16 -16 -16 -16 -16 -16 -15 -15 -15 -15
-16 -16 -14 -14 -14 -14 -14 -14 -14 -14 -14 -14 -14 -14 -15 -16 -16 -16 -16 -16 -16 -16 -16 -16 -16 -16 -16 -16 -16 -16 -16 -16 -16 -16 -16 -16 -16 -16 -16 -16 -16 -15 -15 -15 -15 -15 -15
-17 -17 -15 -14 -14 -14 -15 -14 -14 -14 -14 -14 -14 -15 -15 -15 -16 -16 -16 -16 -16 -16 -16 -16 -16 -16 -16 -16 -16 -16 -16 -16 -16 -16 -16 -16 -15 -16 -15 -15 -15 -15 -15 -15 -15 -15 -15
-17 -17 -17 -16 -16 -15 -15 -15 -15 -14 -14 -14 -15 -15 -15 -16 -16 -16 -15 -16 -16 -16 -16 -16 -16 -16 -16 -16 -16 -16 -16 -16 -16 -16 -16 -15 -15 -15 -15 -15 -15 -15 -15 -15 -15 -15 -14
-17 -17 -17 -17 -17 -17 -16 -15 -15 -14 -15 -14 -15 -15 -15 -16 -16 -15 -15 -16 -16 -16 -16 -16 -16 -15 -16 -16 -16 -16 -16 -16 -16 -16 -16 -16 -15 -15 -15 -15 -15 -15 -15 -15 -15 -15 -14
-18 -17 -18 -17 -18 -17 -16 -16 -15 -14 -15 -15 -15 -15 -15 -16 -15 -15 -15 -15 -16 -16 -16 -15 -15 -15 -15 -15 -16 -16 -16 -16 -16 -16 -16 -16 -16 -15 -15 -15 -15 -15 -15 -15 -15 -15 -15
-18 -18 -18 -17 -18 -18 -18 -17 -16 -15 -15 -15 -15 -15 -15 -16 -15 -15 -15 -15 -16 -16 -15 -15 -15 -15 -15 -15 -15 -15 -15 -15 -16 -16 -16 -16 -16 -15 -15 -15 -15 -15 -15 -15 -15 -15 -15
-20 -19 -18 -19 -18 -18 -18 -17 -17 -16 -16 -15 -16 -15 -15 -15 -15 -15 -15 -15 -16 -16 -15 -15 -15 -15 -16 -16 -16 -15 -15 -15 -15 -15 -16 -16 -16 -15 -15 -15 -15 -15 -15 -15 -15 -15 -15
-20 -18 -18 -18 -18 -19 -18 -18 -18 -17 -16 -16 -15 -16 -15 -15 -15 -15 -15 -15 -16 -16 -15 -15 -15 -16 -16 -16 -16 -16 -15 -15 -15 -15 -15 -15 -15 -15 -15 -15 -15 -15 -15 -15 -15 -15 -15
-20 -19 -18 -19 -19 -19 -19 -18 -18 -18 -16 -16 -16 -16 -16 -16 -16 -16 -15 -15 -16 -16 -15 -15 -15 -16 -16 -16 -16 -16 -15 -15 -15 -15 -15 -15 -15 -15 -15 -15 -15 -15 -15 -15 -15 -15 -15
-18 -19 -19 -18 -19 -19 -18 -18 -18 -17 -17 -16 -16 -16 -16 -16 -16 -15 -15 -15 -15 -15 -15 -15 -15 -16 -15 -15 -15 -15 -15 -15 -15 -15 -15 -15 -15 -15 -15 -15 -15 -15 -15 -15 -15 -15 -15
-19 -19 -19 -19 -19 -18 -18 -18 -18 -17 -17 -17 -16 -16 -16 -16 -16 -15 -15 -15 -15 -15 -15 -15 -15 -15 -15 -15 -15 -15 -15 -15 -15 -15 -15 -15 -15 -15 -15 -15 -15 -15 -15 -15 -15 -16 -16
-18 -19 -19 -18 -18 -18 -18 -18 -18 -18 -17 -17 -17 -16 -16 -16 -16 -16 -15 -16 -15 -15 -15 -15 -15 -15 -15 -15 -15 -15 -14 -15 -15 -14 -14 -15 -15 -15 -15 -15 -14 -15 -15 -15 -15 -15 -16
-19 -20 -19 -18 -18 -19 -19 -19 -18 -18 -17 -17 -17 -16 -16 -16 -16 -16 -16 -15 -15 -15 -16 -15 -15 -15 -15 -15 -15 -15 -14 -15 -14 -14 -15 -15 -15 -15 -15 -15 -14 -15 -15 -15 -16 -15 -16
-20 -19 -19 -19 -19 -19 -19 -19 -19 -18 -17 -17 -17 -16 -16 -16 -16 -16 -16 -15 -16 -16 -16 -15 -15 -15 -15 -15 -15 -15 -15 -15 -14 -14 -14 -15 -14 -14 -15 -15 -14 -15 -16 -16 -16 -16 -16
-19 -19 -19 -19 -19 -19 -19 -19 -18 -18 -18 -17 -17 -16 -16 -16 -16 -16 -16 -16 -16 -16 -16 -15 -16 -15 -15 -15 -15 -15 -15 -14 -14 -14 -15 -15 -15 -15 -15 -15 -15 -16 -16 -16 -16 -16 -17
-19 -19 -19 -19 -19 -20 -19 -18 -18 -18 -18 -17 -17 -17 -16 -16 -16 -16 -16 -16 -16 -16 -16 -16 -15 -15 -15 -15 -15 -15 -15 -14 -15 -15 -15 -15 -15 -15 -15 -16 -16 -16 -16 -16 -16 -17 -17

GFSGBSN_500_temp_021.txt.gz
Temp
-11 -11 -11 -11 -11 -11 -11 -11 -11 -12 -12 -12 -12 -12 -12 -12 -12 -13 -13 -13 -14 -14 -15 -15 -16 -16 -16 -16 -16 -16 -16 -16 -16 -16 -17 -16 -17 -16 -16 -16 -16 -16 -16 -15 -15 -15 -15
-11 -11 -11 -11 -11 -11 -11 -11 -11 -12 -12 -12 -12 -12 -12 -13 -12 -13 -13 -13 -14 -14 -15 -16 -16 -16 -16 -16 -16 -16 -16 -16 -16 -16 -16 -16 -16 -16 -17 -16 -16 -16 -15 -15 -15 -15 -14
-12 -12 -12 -12 -12 -12 -12 -11 -12 -12 -13 -13 -12 -12 -12 -13 -13 -13 -13 -13 -14 -15 -15 -16 -16 -16 -16 -16 -17 -16 -16 -16 -17 -17 -17 -16 -16 -16 -16 -16 -16 -15 -15 -16 -16 -15 -16
-12 -12 -12 -12 -12 -12 -12 -12 -12 -12 -13 -13 -12 -12 -12 -13 -13 -13 -13 -14 -14 -15 -16 -16 -16 -16 -16 -17 -17 -16 -16 -16 -17 -17 -16 -16 -16 -16 -16 -16 -16 -16 -15 -16 -16 -16 -16
-12 -12 -13 -12 -12 -12 -12 -12 -12 -12 -13 -13 -12 -12 -13 -13 -13 -13 -13 -14 -14 -15 -16 -16 -16 -16 -16 -17 -16 -17 -17 -17 -18 -17 -17 -16 -17 -16 -16 -16 -16 -16 -16 -16 -16 -16 -16
-13 -13 -13 -13 -13 -13 -13 -13 -13 -13 -13 -13 -13 -12 -13 -13 -13 -13 -13 -14 -14 -15 -16 -16 -16 -16 -16 -17 -17 -17 -17 -17 -18 -17 -18 -17 -17 -16 -16 -17 -17 -17 -16 -16 -16 -16 -16
-14 -14 -14 -13 -13 -13 -13 -13 -13 -13 -13 -13 -13 -13 -13 -13 -13 -13 -13 -14 -15 -15 -15 -16 -16 -16 -17 -17 -17 -17 -17 -17 -17 -17 -17 -17 -16 -16 -16 -16 -16 -16 -16 -16 -16 -16 -16
-13 -13 -13 -14 -13 -13 -13 -13 -13 -13 -13 -13 -13 -13 -13 -13 -14 -14 -14 -14 -15 -15 -15 -15 -16 -16 -16 -16 -17 -17 -17 -17 -17 -17 -17 -16 -16 -16 -16 -17 -16 -16 -16 -16 -16 -16 -16
-14 -13 -13 -13 -13 -13 -13 -13 -13 -13 -13 -13 -13 -13 -13 -14 -14 -13 -14 -14 -15 -15 -16 -16 -16 -16 -17 -17 -17 -18 -17 -17 -17 -16 -16 -16 -16 -17 -16 -16 -17 -16 -16 -16 -16 -16 -16
-14 -13 -14 -13 -13 -14 -13 -13 -13 -13 -13 -13 -13 -13 -13 -13 -14 -14 -13 -14 -15 -16 -16 -15 -16 -16 -17 -17 -17 -17 -17 -17 -17 -16 -16 -17 -16 -17 -17 -16 -16 -16 -16 -16 -16 -16 -16
-15 -15 -14 -14 -13 -13 -14 -14 -13 -13 -13 -13 -13 -13 -13 -14 -14 -14 -14 -14 -15 -16 -16 -15 -16 -16 -17 -17 -18 -17 -17 -17 -17 -17 -16 -16 -17 -17 -16 -16 -16 -16 -16 -16 -16 -15 -15
-16 -15 -15 -14 -14 -14 -15 -15 -14 -14 -14 -13 -13 -14 -13 -14 -14 -14 -14 -15 -16 -16 -16 -16 -16 -16 -17 -17 -17 -18 -17 -18 -17 -17 -17 -16 -17 -17 -16 -17 -17 -16 -16 -16 -16 -16 -16
-16 -16 -16 -15 -15 -14 -15 -16 -15 -15 -14 -13 -13 -14 -14 -14 -14 -14 -14 -15 -16 -16 -16 -16 -16 -16 -16 -17 -17 -17 -17 -18 -18 -17 -17 -17 -17 -17 -17 -17 -17 -17 -17 -16 -16 -15 -16
-15 -16 -16 -16 -16 -16 -15 -16 -16 -15 -14 -13 -13 -14 -14 -15 -14 -14 -14 -15 -15 -16 -16 -16 -16 -16 -16 -16 -17 -17 -18 -18 -18 -17 -16 -16 -16 -16 -16 -17 -16 -16 -16 -16 -16 -16 -15
-15 -16 -16 -16 -16 -16 -16 -16 -16 -15 -15 -13 -13 -14 -14 -15 -14 -14 -14 -15 -15 -16 -16 -16 -16 -16 -16 -16 -16 -16 -16 -18 -17 -16 -16 -16 -16 -16 -16 -16 -17 -17 -16 -16 -16 -16 -15
-15 -15 -15 -16 -16 -16 -17 -16 -16 -15 -15 -14 -14 -14 -15 -15 -14 -14 -14 -15 -16 -16 -16 -16 -16 -16 -16 -16 -16 -16 -16 -17 -16 -16 -16 -17 -17 -16 -16 -16 -16 -16 -15 -16 -16 -16 -15
-16 -16 -15 -16 -17 -16 -16 -16 -16 -15 -15 -14 -14 -14 -15 -15 -15 -14 -14 -15 -16 -16 -16 -16 -16 -16 -16 -16 -16 -16 -17 -16 -16 -16 -16 -17 -16 -16 -16 -16 -16 -15 -15 -15 -16 -16 -15
-17 -17 -16 -16 -17 -17 -16 -16 -16 -16 -15 -14 -14 -14 -15 -15 -14 -14 -15 -16 -16 -16 -15 -15 -16 -16 -16 -16 -16 -16 -16 -16 -16 -16 -16 -16 -16 -16 -16 -15 -15 -15 -15 -15 -15 -15 -15
-21 -19 -17 -16 -17 -18 -16 -16 -16 -15 -15 -14 -14 -15 -15 -15 -14 -14 -16 -16 -15 -16 -15 -15 -16 -16 -16 -16 -16 -16 -16 -15 -16 -16 -16 -16 -16 -15 -15 -15 -15 -15 -15 -15 -15 -15 -15
-24 -23 -20 -17 -17 -18 -18 -17 -16 -15 -15 -14 -16 -15 -15 -15 -15 -15 -15 -15 -16 -16 -15 -15 -15 -15 -16 -16 -15 -15 -15 -15 -15 -15 -16 -16 -15 -15 -16 -17 -16 -15 -15 -15 -15 -14 -15
-26 -27 -25 -22 -18 -18 -18 -18 -16 -15 -15 -16 -16 -15 -14 -13 -15 -15 -16 -16 -16 -16 -15 -15 -15 -16 -16 -16 -15 -15 -15 -15 -15 -15 -15 -15 -15 -16 -16 -16 -16 -15 -15 -15 -15 -15 -15
-27 -28 -26 -24 -22 -19 -19 -19 -17 -15 -15 -16 -15 -15 -15 -15 -15 -15 -15 -16 -16 -16 -16 -15 -15 -16 -16 -16 -16 -16 -16 -16 -16 -15 -15 -15 -15 -15 -15 -15 -15 -15 -15 -15 -15 -15 -15
-27 -28 -27 -24 -22 -20 -19 -19 -18 -19 -15 -14 -16 -17 -15 -15 -15 -16 -15 -16 -16 -16 -16 -16 -16 -16 -16 -15 -16 -16 -16 -16 -16 -16 -15 -15 -15 -15 -15 -15 -15 -14 -15 -15 -15 -15 -15
-28 -28 -27 -25 -22 -21 -20 -19 -18 -19 -14 -16 -16 -16 -16 -16 -15 -16 -16 -16 -16 -16 -16 -16 -16 -16 -16 -16 -16 -16 -16 -16 -16 -16 -16 -16 -16 -15 -15 -15 -15 -15 -15 -15 -15 -15 -16
-29 -29 -27 -23 -23 -21 -20 -18 -19 -18 -18 -18 -18 -17 -17 -16 -16 -17 -16 -16 -16 -16 -16 -16 -16 -16 -16 -16 -16 -16 -16 -16 -16 -16 -16 -16 -15 -15 -15 -15 -15 -15 -15 -15 -15 -15 -15
-29 -28 -25 -22 -22 -21 -20 -19 -18 -19 -20 -19 -18 -17 -16 -16 -16 -17 -17 -16 -16 -16 -16 -16 -15 -16 -16 -16 -16 -16 -16 -16 -15 -15 -15 -15 -15 -15 -15 -15 -14 -14 -15 -14 -14 -15 -14
-27 -25 -22 -22 -20 -20 -20 -18 -19 -19 -20 -19 -18 -18 -16 -17 -18 -17 -17 -16 -16 -16 -16 -16 -16 -16 -16 -16 -16 -16 -16 -16 -15 -15 -15 -15 -15 -15 -15 -15 -14 -14 -14 -14 -14 -14 -15
-22 -22 -22 -22 -21 -19 -19 -19 -19 -19 -19 -18 -19 -18 -18 -18 -18 -17 -17 -16 -16 -16 -16 -16 -16 -16 -16 -16 -16 -16 -15 -15 -15 -15 -15 -15 -15 -15 -15 -15 -14 -14 -14 -14 -14 -14 -15
-22 -22 -21 -21 -19 -19 -19 -19 -19 -19 -19 -19 -19 -18 -18 -18 -17 -17 -17 -17 -16 -16 -16 -16 -16 -16 -16 -16 -15 -16 -15 -15 -15 -15 -15 -15 -15 -15 -15 -15 -15 -14 -14 -14 -15 -15 -15

GFSGBSN_500_temp_024.txt.gz
Temp
-11 -11 -11 -11 -11 -11 -11 -11 -11 -11 -11 -11 -11 -12 -12 -12 -12 -12 -12 -13 -13 -13 -13 -14 -15 -15 -16 -16 -16 -16 -16 -16 -16 -16 -17 -17 -17 -17 -17 -16 -16 -16 -16 -16 -15 -15 -14
-12 -11 -11 -11 -11 -12 -12 -11 -11 -12 -11 -11 -12 -12 -12 -12 -12 -12 -12 -13 -13 -13 -13 -14 -15 -16 -16 -16 -16 -16 -16 -16 -16 -16 -16 -17 -17 -16 -17 -17 -17 -16 -15 -14 -15 -15 -14
-12 -12 -12 -12 -11 -11 -12 -12 -12 -12 -11 -12 -12 -12 -12 -12 -12 -12 -13 -13 -13 -13 -14 -14 -15 -16 -16 -16 -16 -16 -16 -16 -16 -16 -17 -16 -17 -16 -16 -16 -16 -16 -15 -15 -15 -15 -15
-12 -12 -12 -12 -12 -12 -12 -12 -12 -12 -12 -12 -12 -12 -12 -12 -13 -12 -13 -13 -13 -13 -14 -14 -15 -16 -16 -16 -16 -16 -16 -16 -16 -16 -18 -16 -16 -16 -16 -16 -16 -15 -15 -15 -15 -15 -15
-13 -13 -13 -13 -12 -12 -12 -12 -12 -12 -12 -12 -12 -12 -12 -12 -13 -13 -13 -13 -13 -13 -14 -14 -15 -15 -16 -16 -16 -16 -16 -17 -17 -18 -17 -16 -16 -16 -16 -16 -16 -15 -15 -16 -16 -16 -16
-13 -13 -13 -13 -13 -13 -13 -13 -12 -12 -12 -12 -12 -13 -12 -12 -13 -13 -13 -13 -13 -13 -14 -14 -15 -15 -16 -16 -16 -16 -16 -17 -17 -17 -17 -17 -17 -17 -16 -16 -16 -16 -16 -16 -16 -15 -15
-14 -13 -13 -13 -13 -14 -14 -14 -13 -13 -13 -13 -13 -13 -12 -12 -13 -13 -13 -13 -13 -13 -14 -14 -15 -15 -15 -16 -16 -16 -16 -17 -17 -18 -17 -17 -17 -17 -16 -16 -16 -16 -16 -16 -16 -15 -15
-14 -14 -14 -14 -14 -14 -14 -14 -14 -13 -13 -13 -13 -13 -13 -12 -13 -13 -13 -13 -13 -13 -14 -14 -15 -15 -16 -16 -15 -16 -17 -17 -17 -17 -16 -17 -17 -16 -16 -16 -16 -16 -15 -16 -16 -15 -15
-15 -15 -14 -14 -14 -15 -14 -14 -14 -13 -13 -13 -13 -13 -13 -13 -13 -13 -13 -13 -13 -14 -14 -14 -15 -16 -16 -16 -16 -16 -17 -17 -17 -16 -16 -16 -16 -16 -16 -16 -16 -16 -16 -16 -16 -15 -15
-15 -15 -15 -15 -15 -14 -15 -15 -14 -14 -13 -13 -13 -13 -13 -13 -13 -13 -13 -13 -13 -14 -14 -14 -15 -16 -16 -16 -16 -17 -17 -17 -16 -16 -16 -16 -16 -16 -16 -16 -16 -16 -15 -16 -15 -15 -15
-16 -16 -15 -15 -15 -15 -15 -15 -14 -14 -13 -13 -13 -14 -14 -13 -14 -13 -13 -14 -14 -14 -14 -14 -15 -15 -16 -16 -16 -16 -16 -16 -16 -16 -16 -16 -16 -17 -16 -16 -15 -16 -16 -15 -16 -16 -16
-16 -16 -16 -16 -15 -15 -15 -15 -15 -14 -14 -14 -14 -14 -14 -14 -14 -14 -14 -14 -14 -14 -14 -15 -15 -16 -17 -17 -16 -16 -16 -17 -16 -16 -16 -16 -15 -15 -15 -16 -16 -16 -16 -15 -16 -16 -15
-16 -16 -16 -16 -15 -15 -14 -14 -15 -15 -14 -14 -14 -14 -14 -14 -14 -14 -14 -14 -14 -13 -15 -15 -16 -16 -16 -17 -16 -17 -16 -16 -17 -17 -16 -16 -16 -16 -16 -16 -16 -15 -16 -16 -15 -16 -16
-16 -16 -16 -16 -16 -16 -15 -15 -15 -14 -14 -14 -14 -14 -14 -14 -14 -14 -14 -14 -14 -14 -15 -16 -16 -16 -17 -17 -17 -17 -16 -16 -16 -17 -16 -16 -15 -17 -16 -16 -16 -16 -16 -16 -15 -15 -15
-16 -16 -16 -16 -16 -16 -16 -15 -15 -15 -15 -15 -15 -14 -14 -14 -14 -15 -14 -14 -13 -15 -16 -17 -16 -17 -17 -18 -17 -16 -16 -17 -16 -16 -17 -16 -15 -15 -16 -15 -16 -16 -16 -16 -16 -16 -15
-16 -16 -16 -16 -16 -16 -16 -17 -16 -16 -16 -15 -16 -15 -14 -15 -15 -14 -14 -13 -14 -15 -17 -17 -17 -17 -17 -17 -16 -16 -16 -16 -17 -16 -17 -16 -15 -15 -16 -16 -16 -16 -15 -15 -15 -15 -15
-16 -16 -16 -16 -16 -16 -16 -17 -17 -17 -16 -16 -16 -15 -15 -15 -15 -14 -13 -14 -15 -15 -16 -17 -17 -17 -17 -17 -16 -16 -16 -17 -16 -16 -16 -17 -16 -16 -15 -16 -16 -15 -16 -15 -15 -16 -15
-17 -16 -16 -16 -16 -16 -16 -17 -17 -17 -17 -17 -16 -15 -15 -15 -15 -14 -13 -14 -15 -15 -16 -16 -18 -18 -17 -17 -16 -17 -17 -17 -16 -16 -16 -16 -16 -16 -15 -15 -15 -15 -15 -15 -15 -15 -15
-21 -18 -17 -17 -16 -16 -16 -17 -17 -17 -17 -16 -16 -15 -16 -16 -14 -13 -14 -14 -15 -15 -16 -16 -16 -17 -16 -16 -17 -16 -17 -16 -15 -16 -16 -15 -15 -16 -16 -16 -15 -15 -16 -16 -16 -15 -15
-23 -22 -20 -18 -17 -17 -17 -17 -17 -17 -17 -16 -16 -16 -16 -15 -14 -14 -15 -15 -15 -15 -16 -16 -16 -16 -16 -16 -16 -16 -16 -15 -15 -16 -16 -16 -16 -16 -15 -16 -17 -16 -16 -15 -15 -15 -15
-23 -23 -22 -21 -19 -17 -18 -18 -17 -17 -17 -17 -16 -16 -15 -14 -14 -14 -15 -15 -16 -15 -16 -16 -17 -16 -16 -16 -15 -15 -15 -15 -15 -15 -15 -15 -15 -16 -16 -16 -16 -16 -16 -16 -15 -15 -15
-23 -23 -23 -22 -21 -19 -18 -18 -18 -17 -17 -17 -15 -15 -15 -15 -14 -15 -15 -15 -15 -16 -16 -16 -16 -16 -16 -16 -15 -15 -15 -15 -15 -15 -15 -15 -15 -15 -15 -16 -16 -15 -15 -15 -15 -15 -15
-24 -24 -24 -24 -23 -22 -20 -19 -19 -19 -19 -16 -15 -15 -15 -15 -15 -15 -15 -15 -15 -16 -16 -16 -16 -16 -16 -16 -15 -15 -16 -16 -16 -16 -16 -15 -15 -15 -15 -15 -15 -15 -15 -15 -15 -15 -15
-25 -24 -24 -25 -24 -23 -21 -20 -19 -19 -18 -16 -15 -16 -15 -15 -15 -14 -15 -15 -16 -16 -17 -17 -16 -16 -16 -15 -15 -16 -16 -16 -16 -16 -16 -16 -15 -15 -15 -15 -15 -15 -15 -15 -15 -15 -16
-25 -24 -26 -28 -26 -24 -22 -21 -20 -21 -19 -17 -17 -16 -16 -15 -16 -16 -16 -15 -16 -17 -16 -17 -16 -16 -16 -16 -16 -16 -16 -16 -16 -16 -16 -16 -16 -16 -15 -16 -15 -15 -15 -15 -15 -16 -15
-26 -26 -27 -28 -27 -24 -22 -22 -21 -20 -18 -18 -17 -15 -18 -17 -15 -16 -16 -16 -17 -17 -17 -16 -17 -16 -16 -16 -16 -16 -16 -16 -16 -16 -16 -16 -16 -16 -16 -15 -15 -15 -15 -15 -15 -15 -14
-27 -27 -28 -28 -28 -24 -23 -22 -20 -20 -19 -17 -18 -18 -16 -17 -17 -17 -16 -16 -17 -16 -17 -16 -16 -16 -16 -16 -16 -16 -16 -16 -15 -16 -16 -16 -15 -15 -15 -15 -15 -15 -14 -15 -14 -14 -14
-27 -28 -28 -28 -28 -24 -23 -21 -20 -20 -19 -18 -19 -18 -17 -17 -17 -17 -17 -17 -17 -17 -16 -16 -16 -16 -16 -16 -16 -16 -16 -16 -15 -16 -16 -15 -15 -15 -15 -15 -15 -15 -14 -15 -15 -15 -15
-29 -29 -29 -28 -25 -22 -22 -21 -21 -19 -19 -19 -17 -17 -17 -15 -17 -16 -17 -17 -17 -17 -16 -16 -16 -16 -16 -16 -16 -16 -16 -16 -16 -16 -15 -15 -15 -15 -15 -15 -15 -15 -14 -15 -14 -15 -15

GFSGBSN_500_temp_027.txt.gz
Temp
-12 -12 -12 -12 -12 -12 -12 -12 -11 -11 -11 -11 -11 -11 -11 -12 -12 -12 -12 -12 -12 -12 -12 -12 -13 -14 -14 -15 -16 -16 -16 -16 -16 -16 -17 -17 -17 -17 -17 -17 -17 -16 -16 -16 -16 -15 -14
-12 -12 -12 -12 -12 -12 -12 -12 -12 -12 -12 -12 -12 -12 -12 -12 -12 -12 -12 -12 -12 -12 -12 -12 -13 -14 -15 -15 -15 -16 -16 -16 -16 -16 -17 -17 -17 -17 -17 -17 -17 -17 -16 -16 -16 -14 -14
-12 -12 -13 -12 -12 -12 -12 -12 -12 -12 -12 -12 -12 -11 -12 -12 -12 -12 -12 -12 -12 -12 -13 -13 -13 -14 -15 -15 -15 -16 -16 -16 -16 -16 -16 -17 -17 -17 -17 -17 -17 -16 -17 -16 -16 -15 -14
-12 -12 -12 -12 -13 -12 -12 -12 -12 -12 -12 -12 -12 -12 -12 -13 -13 -12 -12 -12 -13 -12 -13 -13 -13 -14 -15 -15 -16 -16 -16 -16 -16 -17 -17 -17 -17 -16 -16 -16 -16 -16 -16 -15 -16 -15 -15
-12 -12 -12 -12 -12 -12 -13 -13 -13 -12 -12 -12 -12 -12 -13 -13 -13 -12 -12 -12 -12 -13 -13 -13 -13 -14 -14 -15 -15 -16 -16 -16 -16 -18 -17 -17 -17 -16 -16 -16 -16 -16 -16 -16 -16 -16 -16
-13 -12 -12 -12 -13 -13 -13 -13 -13 -13 -12 -12 -12 -12 -13 -13 -13 -12 -12 -12 -12 -13 -13 -13 -13 -14 -14 -15 -15 -16 -16 -16 -16 -17 -17 -17 -16 -17 -17 -16 -16 -16 -16 -15 -16 -16 -16
-13 -13 -13 -13 -13 -13 -13 -13 -13 -14 -13 -13 -13 -13 -13 -13 -13 -12 -12 -12 -12 -13 -13 -12 -13 -14 -14 -15 -15 -15 -15 -16 -16 -17 -17 -16 -17 -16 -16 -16 -15 -15 -16 -16 -15 -16 -15
-14 -14 -14 -13 -13 -13 -13 -13 -13 -14 -14 -13 -14 -13 -13 -14 -13 -13 -12 -12 -13 -12 -13 -12 -13 -14 -14 -15 -15 -15 -15 -16 -16 -17 -17 -16 -17 -16 -16 -16 -16 -15 -16 -16 -15 -15 -16
-15 -15 -15 -14 -14 -14 -14 -14 -13 -13 -14 -14 -14 -14 -14 -14 -14 -13 -13 -13 -13 -13 -13 -13 -13 -14 -14 -15 -15 -15 -15 -16 -16 -16 -16 -16 -16 -16 -16 -16 -16 -16 -16 -16 -16 -16 -16
-16 -16 -16 -15 -15 -15 -15 -14 -15 -14 -14 -14 -14 -14 -15 -15 -14 -13 -13 -13 -13 -13 -13 -13 -13 -14 -14 -14 -15 -15 -15 -16 -16 -16 -16 -16 -16 -16 -15 -15 -16 -16 -16 -15 -15 -16 -16
-15 -15 -16 -16 -15 -16 -16 -15 -15 -15 -15 -14 -14 -15 -15 -14 -14 -13 -14 -14 -13 -13 -13 -12 -13 -14 -14 -14 -15 -16 -15 -16 -16 -16 -16 -15 -16 -15 -15 -16 -16 -16 -16 -15 -15 -15 -15
-16 -16 -16 -15 -16 -16 -17 -16 -16 -16 -15 -15 -15 -15 -15 -15 -14 -14 -14 -14 -13 -13 -13 -13 -13 -14 -14 -15 -15 -16 -17 -17 -16 -15 -16 -16 -16 -15 -15 -16 -16 -16 -16 -15 -16 -15 -16
-16 -16 -16 -16 -16 -15 -16 -16 -17 -17 -17 -16 -16 -15 -15 -15 -14 -14 -14 -14 -14 -13 -14 -13 -13 -14 -15 -15 -15 -16 -17 -17 -16 -16 -15 -15 -16 -16 -16 -17 -16 -16 -15 -16 -16 -16 -15
-16 -16 -16 -16 -17 -16 -16 -16 -16 -17 -17 -17 -16 -15 -15 -15 -14 -14 -14 -14 -13 -13 -14 -14 -14 -15 -15 -15 -16 -16 -17 -17 -16 -16 -16 -16 -17 -16 -17 -17 -16 -16 -16 -16 -16 -15 -15
-15 -16 -16 -16 -16 -17 -17 -17 -17 -16 -16 -17 -16 -15 -15 -15 -15 -15 -14 -13 -13 -14 -15 -15 -15 -15 -15 -15 -16 -17 -17 -17 -16 -16 -16 -15 -16 -17 -16 -17 -17 -17 -16 -16 -16 -16 -15
-16 -16 -15 -16 -16 -16 -16 -17 -17 -17 -16 -17 -17 -16 -16 -17 -16 -15 -14 -13 -13 -15 -15 -16 -16 -16 -16 -15 -17 -16 -17 -16 -17 -17 -17 -17 -16 -16 -15 -17 -17 -17 -16 -16 -16 -15 -15
-18 -17 -16 -16 -16 -16 -16 -16 -17 -17 -17 -17 -17 -17 -17 -17 -16 -15 -14 -13 -14 -15 -15 -15 -16 -16 -16 -16 -17 -17 -16 -17 -17 -17 -17 -16 -16 -16 -15 -16 -16 -16 -16 -16 -16 -16 -15
-22 -20 -17 -17 -16 -16 -16 -16 -17 -17 -17 -17 -16 -16 -17 -17 -16 -15 -14 -13 -15 -15 -15 -15 -15 -17 -16 -16 -16 -17 -16 -17 -17 -17 -17 -16 -16 -15 -15 -16 -16 -16 -16 -16 -15 -16 -15
-22 -22 -21 -19 -17 -16 -16 -16 -16 -17 -17 -17 -16 -16 -17 -17 -16 -15 -14 -14 -16 -15 -15 -14 -15 -16 -16 -17 -16 -17 -17 -17 -17 -17 -16 -16 -16 -16 -16 -16 -15 -16 -16 -16 -16 -15 -15
-22 -22 -22 -21 -19 -17 -16 -16 -16 -17 -17 -17 -17 -17 -17 -17 -15 -15 -14 -14 -15 -15 -15 -15 -16 -16 -16 -17 -16 -16 -17 -17 -16 -16 -16 -16 -16 -16 -16 -16 -16 -15 -16 -16 -16 -15 -15
-22 -23 -22 -21 -21 -19 -17 -17 -17 -17 -17 -18 -17 -16 -17 -16 -15 -14 -13 -15 -16 -15 -15 -15 -15 -16 -16 -16 -16 -16 -16 -16 -15 -15 -16 -16 -16 -15 -16 -15 -16 -15 -16 -16 -15 -15 -15
-23 -23 -23 -22 -22 -21 -19 -18 -18 -18 -18 -19 -17 -16 -16 -16 -15 -14 -13 -15 -16 -15 -15 -15 -15 -16 -16 -16 -16 -16 -16 -16 -15 -15 -15 -15 -15 -15 -15 -15 -16 -15 -16 -16 -16 -16 -16
-23 -23 -23 -22 -23 -22 -22 -19 -19 -19 -19 -19 -17 -16 -16 -16 -15 -15 -14 -15 -15 -16 -16 -16 -16 -16 -16 -16 -16 -16 -16 -16 -15 -15 -15 -15 -15 -15 -15 -15 -15 -15 -16 -16 -16 -16 -16
-23 -23 -23 -23 -23 -23 -22 -21 -20 -20 -20 -18 -16 -17 -16 -15 -15 -14 -15 -16 -16 -15 -15 -16 -16 -16 -16 -16 -16 -16 -16 -16 -15 -16 -16 -16 -15 -15 -15 -15 -15 -16 -15 -16 -16 -16 -16
-24 -24 -23 -23 -23 -23 -23 -22 -21 -21 -21 -19 -17 -17 -16 -15 -14 -15 -16 -16 -16 -17 -16 -16 -16 -16 -16 -16 -16 -17 -16 -16 -16 -16 -16 -16 -16 -15 -15 -15 -15 -15 -15 -16 -16 -15 -15
-24 -24 -24 -24 -24 -24 -24 -22 -22 -22 -21 -19 -18 -17 -16 -15 -14 -15 -16 -16 -16 -17 -16 -16 -16 -16 -17 -17 -16 -17 -16 -16 -16 -16 -16 -16 -16 -16 -15 -15 -15 -15 -15 -15 -15 -15 -15
-25 -25 -25 -25 -25 -24 -24 -23 -22 -22 -21 -19 -19 -17 -16 -15 -15 -16 -16 -16 -16 -17 -16 -16 -16 -17 -17 -16 -16 -16 -16 -16 -16 -16 -16 -16 -16 -16 -15 -15 -15 -15 -15 -15 -15 -15 -15
-26 -26 -25 -25 -25 -25 -25 -23 -22 -22 -21 -20 -18 -17 -16 -16 -17 -17 -17 -17 -18 -16 -15 -16 -17 -17 -17 -16 -17 -16 -16 -16 -16 -16 -16 -16 -15 -16 -15 -15 -15 -15 -15 -15 -15 -15 -15
-26 -25 -25 -27 -28 -28 -27 -23 -23 -23 -21 -20 -18 -19 -18 -17 -17 -17 -18 -17 -16 -16 -15 -16 -16 -16 -16 -16 -16 -16 -16 -16 -16 -16 -16 -16 -16 -15 -15 -15 -15 -15 -15 -14 -15 -15 -15

GFSGBSN_500_temp_030.txt.gz
Temp
-12 -12 -12 -12 -12 -12 -12 -12 -12 -12 -12 -12 -12 -12 -12 -12 -12 -12 -12 -12 -12 -12 -12 -12 -12 -13 -13 -14 -15 -15 -16 -16 -16 -16 -17 -17 -17 -18 -18 -18 -17 -17 -17 -16 -15 -15 -14
-13 -12 -12 -12 -12 -12 -12 -12 -12 -12 -12 -12 -12 -12 -12 -12 -12 -12 -12 -12 -12 -12 -12 -12 -12 -13 -13 -14 -15 -15 -16 -16 -16 -16 -17 -17 -17 -17 -17 -17 -17 -17 -16 -16 -16 -15 -14
-13 -13 -13 -12 -12 -12 -12 -12 -12 -12 -12 -12 -12 -12 -12 -12 -13 -12 -13 -12 -12 -12 -12 -13 -12 -13 -13 -14 -15 -15 -16 -16 -16 -16 -17 -17 -17 -17 -17 -17 -17 -17 -17 -16 -15 -16 -15
-12 -13 -13 -12 -12 -12 -12 -12 -12 -12 -12 -12 -12 -13 -12 -12 -13 -13 -13 -12 -12 -12 -12 -13 -12 -13 -13 -14 -14 -15 -16 -16 -16 -17 -17 -17 -17 -17 -17 -17 -16 -17 -16 -17 -16 -16 -15
-12 -12 -13 -12 -12 -12 -12 -12 -12 -12 -12 -12 -12 -13 -13 -13 -13 -13 -13 -12 -12 -12 -13 -13 -12 -13 -14 -14 -14 -15 -15 -16 -16 -17 -18 -17 -17 -17 -17 -16 -16 -16 -16 -16 -16 -16 -16
-12 -12 -12 -13 -12 -12 -12 -12 -12 -12 -12 -12 -13 -13 -13 -14 -14 -13 -13 -12 -12 -12 -13 -12 -12 -13 -14 -14 -14 -14 -15 -15 -16 -16 -17 -17 -16 -16 -17 -16 -16 -16 -16 -16 -16 -16 -16
-14 -13 -13 -13 -13 -13 -13 -12 -12 -12 -12 -12 -12 -13 -13 -14 -14 -14 -13 -12 -12 -13 -12 -13 -12 -13 -14 -14 -14 -15 -15 -15 -15 -16 -17 -16 -16 -16 -16 -17 -16 -16 -16 -16 -16 -16 -16
-14 -14 -14 -13 -13 -13 -13 -13 -13 -13 -13 -13 -13 -13 -13 -14 -15 -15 -14 -13 -12 -12 -13 -13 -12 -13 -13 -14 -14 -15 -15 -15 -15 -15 -16 -16 -15 -16 -16 -16 -16 -16 -16 -16 -16 -16 -16
-15 -15 -15 -14 -14 -14 -14 -13 -13 -13 -13 -13 -13 -13 -14 -14 -14 -15 -14 -13 -12 -13 -13 -13 -13 -13 -13 -14 -14 -15 -15 -15 -14 -15 -16 -16 -16 -16 -16 -16 -16 -16 -15 -15 -16 -16 -16
-15 -15 -15 -15 -15 -15 -15 -15 -14 -14 -14 -14 -13 -14 -14 -14 -14 -15 -15 -14 -13 -13 -13 -13 -13 -13 -13 -14 -14 -14 -14 -15 -14 -15 -15 -16 -15 -16 -16 -16 -15 -15 -15 -15 -16 -17 -16
-15 -15 -16 -15 -15 -15 -15 -15 -15 -15 -14 -14 -14 -14 -14 -14 -15 -15 -14 -14 -13 -13 -13 -13 -12 -13 -13 -14 -13 -14 -14 -15 -14 -15 -15 -15 -15 -15 -16 -15 -15 -15 -16 -16 -16 -16 -16
-16 -16 -15 -15 -16 -16 -16 -16 -15 -16 -15 -15 -15 -15 -15 -15 -16 -14 -15 -14 -14 -13 -13 -13 -13 -13 -14 -14 -14 -14 -15 -15 -15 -15 -16 -15 -15 -15 -16 -16 -16 -15 -16 -15 -15 -16 -15
-17 -16 -16 -16 -16 -16 -16 -16 -16 -16 -16 -15 -15 -15 -16 -15 -16 -15 -16 -15 -14 -13 -14 -13 -13 -13 -14 -14 -14 -14 -15 -15 -15 -16 -16 -16 -15 -15 -16 -16 -16 -16 -16 -16 -16 -16 -16
-17 -17 -17 -16 -16 -16 -16 -16 -17 -17 -17 -16 -17 -16 -16 -18 -16 -15 -16 -15 -13 -13 -14 -13 -14 -13 -14 -14 -15 -15 -15 -15 -16 -16 -16 -16 -15 -16 -16 -15 -15 -16 -16 -16 -16 -15 -16
-17 -17 -17 -17 -16 -16 -16 -16 -17 -17 -17 -17 -17 -16 -16 -19 -17 -17 -16 -14 -12 -14 -15 -14 -14 -13 -14 -14 -15 -15 -15 -15 -15 -17 -16 -16 -16 -16 -16 -16 -15 -16 -16 -16 -16 -16 -15
-19 -18 -17 -17 -17 -16 -16 -16 -17 -17 -17 -17 -17 -16 -17 -19 -18 -18 -16 -13 -13 -15 -15 -15 -14 -13 -14 -15 -15 -15 -15 -16 -16 -16 -17 -17 -17 -17 -16 -15 -16 -16 -17 -17 -17 -16 -15
-22 -21 -19 -18 -17 -16 -17 -17 -16 -17 -17 -17 -17 -17 -17 -18 -18 -17 -14 -12 -14 -15 -15 -15 -15 -14 -15 -15 -15 -15 -15 -16 -17 -17 -18 -17 -17 -16 -16 -16 -15 -16 -16 -17 -17 -16 -15
-22 -22 -22 -20 -19 -17 -16 -17 -17 -17 -17 -17 -17 -16 -17 -18 -17 -17 -13 -13 -14 -16 -15 -15 -15 -14 -15 -15 -16 -15 -15 -16 -16 -17 -17 -17 -17 -17 -17 -16 -16 -16 -16 -16 -17 -16 -16
-22 -22 -21 -22 -21 -19 -17 -16 -17 -17 -17 -17 -17 -16 -17 -18 -16 -15 -14 -14 -15 -16 -15 -15 -15 -15 -15 -15 -16 -16 -16 -17 -17 -17 -17 -17 -17 -16 -16 -16 -16 -16 -16 -16 -16 -16 -16
-21 -21 -21 -21 -22 -21 -19 -17 -17 -17 -17 -18 -17 -17 -16 -18 -15 -15 -15 -15 -15 -16 -15 -15 -15 -15 -15 -16 -16 -16 -15 -16 -17 -17 -17 -17 -17 -16 -16 -16 -16 -16 -16 -16 -16 -16 -15
-22 -22 -22 -22 -22 -21 -20 -18 -18 -18 -19 -18 -18 -17 -16 -15 -15 -14 -14 -15 -16 -16 -16 -16 -15 -15 -16 -16 -15 -16 -16 -16 -16 -17 -17 -17 -16 -16 -16 -16 -16 -16 -16 -16 -16 -16 -16
-22 -22 -22 -22 -22 -22 -21 -20 -20 -19 -20 -20 -18 -17 -16 -16 -16 -16 -15 -14 -15 -16 -16 -15 -15 -15 -16 -15 -15 -16 -16 -15 -16 -16 -16 -16 -16 -16 -16 -16 -16 -16 -16 -15 -16 -17 -16
-22 -21 -22 -22 -22 -22 -22 -21 -21 -21 -21 -21 -19 -17 -16 -16 -16 -16 -14 -14 -15 -16 -15 -16 -16 -16 -17 -16 -17 -17 -15 -16 -16 -16 -16 -16 -16 -16 -16 -16 -15 -15 -15 -16 -16 -17 -16
-22 -22 -22 -22 -22 -22 -22 -21 -21 -22 -22 -20 -19 -17 -17 -16 -16 -15 -15 -15 -15 -16 -15 -16 -16 -16 -16 -17 -16 -17 -16 -16 -16 -16 -16 -16 -17 -16 -16 -16 -15 -15 -16 -15 -16 -16 -16
-23 -23 -22 -22 -22 -23 -22 -22 -22 -22 -22 -21 -20 -18 -17 -16 -16 -16 -15 -15 -17 -17 -16 -16 -16 -16 -16 -17 -16 -17 -16 -16 -16 -16 -16 -16 -16 -16 -16 -16 -16 -16 -16 -16 -16 -16 -16
-23 -23 -23 -23 -23 -23 -23 -23 -23 -22 -22 -21 -21 -19 -17 -16 -16 -16 -15 -15 -16 -16 -17 -17 -16 -16 -16 -17 -17 -16 -16 -16 -16 -15 -16 -16 -17 -17 -16 -16 -16 -16 -16 -16 -16 -16 -16
-24 -23 -23 -23 -23 -23 -23 -24 -24 -23 -22 -22 -21 -20 -18 -16 -16 -16 -15 -15 -17 -17 -17 -17 -17 -16 -16 -17 -17 -16 -16 -16 -16 -16 -16 -16 -16 -16 -16 -16 -16 -16 -16 -16 -16 -16 -16
-24 -24 -23 -24 -24 -24 -23 -24 -24 -23 -22 -22 -22 -20 -18 -17 -16 -16 -16 -16 -17 -17 -16 -16 -16 -16 -16 -16 -17 -16 -16 -16 -16 -16 -16 -16 -16 -16 -16 -16 -16 -16 -16 -16 -16 -15 -16
-24 -24 -24 -24 -24 -24 -24 -24 -24 -23 -22 -22 -22 -20 -19 -19 -18 -15 -15 -17 -17 -17 -16 -16 -16 -16 -16 -16 -16 -16 -16 -16 -16 -16 -16 -16 -16 -16 -16 -16 -16 -15 -15 -15 -16 -16 -16

GFSGBSN_500_temp_033.txt.gz
Temp
-12 -12 -12 -12 -12 -12 -12 -12 -12 -12 -12 -12 -12 -12 -12 -12 -12 -12 -12 -12 -12 -12 -12 -12 -11 -12 -12 -13 -13 -14 -15 -16 -16 -16 -17 -17 -17 -18 -18 -17 -17 -17 -17 -17 -16 -16 -15
-12 -12 -12 -12 -12 -12 -12 -12 -12 -12 -12 -12 -12 -12 -12 -12 -12 -12 -12 -12 -12 -12 -12 -12 -12 -12 -12 -13 -13 -14 -16 -16 -16 -16 -16 -17 -17 -17 -18 -18 -17 -17 -17 -16 -16 -15 -14
-12 -12 -12 -12 -13 -12 -12 -13 -13 -13 -12 -12 -12 -12 -12 -12 -12 -12 -12 -12 -12 -12 -12 -12 -12 -12 -13 -13 -14 -14 -15 -16 -16 -16 -16 -17 -17 -18 -18 -18 -17 -17 -17 -16 -16 -15 -15
-12 -12 -12 -13 -13 -13 -13 -13 -13 -12 -12 -12 -12 -12 -12 -12 -12 -12 -12 -12 -12 -12 -12 -12 -12 -12 -13 -13 -14 -14 -15 -15 -16 -16 -17 -17 -17 -17 -18 -17 -18 -17 -17 -16 -16 -15 -15
-12 -12 -13 -13 -13 -13 -13 -13 -13 -13 -13 -12 -12 -12 -13 -13 -13 -12 -12 -13 -12 -12 -12 -12 -12 -12 -13 -13 -14 -15 -14 -15 -16 -16 -16 -17 -17 -17 -18 -18 -17 -17 -16 -16 -16 -15 -16
-13 -13 -12 -12 -13 -13 -13 -13 -13 -13 -13 -13 -12 -12 -13 -13 -13 -13 -13 -13 -13 -13 -12 -12 -12 -12 -13 -13 -14 -14 -15 -15 -16 -17 -17 -17 -17 -17 -17 -17 -17 -16 -16 -16 -16 -15 -16
-14 -14 -13 -13 -13 -13 -13 -13 -13 -13 -13 -13 -12 -12 -12 -12 -13 -13 -13 -13 -13 -13 -12 -12 -12 -12 -13 -13 -14 -14 -15 -15 -15 -16 -16 -16 -16 -16 -17 -17 -16 -16 -16 -16 -16 -16 -15
-14 -15 -15 -14 -13 -13 -13 -13 -13 -13 -13 -13 -12 -12 -12 -13 -12 -13 -12 -12 -13 -13 -13 -12 -12 -13 -13 -13 -14 -14 -14 -15 -15 -16 -15 -16 -16 -16 -16 -16 -17 -16 -16 -16 -16 -16 -16
-15 -15 -15 -15 -15 -14 -14 -14 -14 -13 -14 -13 -13 -13 -13 -13 -13 -13 -13 -13 -14 -13 -13 -12 -12 -13 -13 -13 -13 -14 -14 -15 -15 -15 -15 -15 -16 -17 -16 -16 -16 -16 -16 -16 -16 -16 -16
-15 -15 -15 -15 -15 -15 -15 -14 -14 -14 -14 -14 -14 -14 -13 -13 -13 -13 -13 -13 -14 -14 -13 -13 -12 -12 -13 -13 -14 -13 -14 -14 -15 -14 -15 -15 -15 -16 -16 -16 -16 -16 -16 -16 -16 -16 -17
-16 -16 -16 -16 -15 -15 -15 -15 -14 -15 -14 -15 -15 -15 -14 -13 -15 -14 -13 -14 -15 -15 -13 -13 -13 -12 -13 -13 -13 -13 -14 -14 -15 -14 -15 -15 -15 -15 -16 -16 -16 -16 -16 -16 -16 -16 -17
-17 -17 -16 -16 -16 -16 -16 -16 -15 -15 -15 -15 -16 -16 -15 -15 -15 -14 -14 -14 -14 -14 -13 -13 -13 -13 -13 -13 -13 -13 -14 -14 -15 -15 -14 -14 -14 -15 -16 -15 -16 -16 -15 -16 -16 -16 -16
-18 -18 -17 -17 -16 -16 -16 -16 -16 -16 -16 -16 -16 -16 -15 -16 -17 -14 -14 -15 -14 -12 -14 -13 -13 -13 -13 -13 -13 -13 -14 -14 -15 -15 -14 -14 -15 -15 -15 -15 -15 -15 -15 -15 -16 -16 -15
-18 -18 -18 -18 -17 -17 -17 -17 -17 -16 -16 -17 -17 -17 -17 -17 -16 -15 -15 -15 -12 -12 -14 -13 -13 -13 -13 -14 -13 -14 -13 -15 -15 -15 -15 -15 -15 -15 -15 -16 -16 -16 -15 -15 -15 -15 -15
-21 -19 -18 -18 -18 -17 -17 -17 -17 -17 -17 -17 -17 -18 -17 -18 -19 -17 -16 -13 -11 -13 -14 -14 -14 -14 -14 -14 -14 -14 -14 -15 -16 -16 -15 -15 -15 -16 -16 -16 -16 -16 -16 -16 -16 -15 -15
-22 -22 -21 -19 -18 -18 -17 -17 -17 -17 -17 -17 -17 -17 -17 -19 -20 -17 -16 -12 -12 -14 -15 -14 -14 -14 -14 -14 -14 -14 -14 -14 -15 -16 -16 -16 -16 -16 -16 -16 -16 -16 -16 -16 -16 -16 -16
-22 -22 -23 -21 -19 -18 -18 -17 -17 -17 -18 -18 -18 -17 -17 -19 -20 -19 -13 -12 -12 -15 -15 -15 -14 -14 -14 -14 -14 -14 -15 -16 -16 -17 -16 -15 -16 -16 -16 -16 -17 -16 -16 -16 -16 -17 -16
-22 -22 -23 -23 -21 -20 -18 -18 -18 -17 -18 -18 -18 -17 -17 -18 -19 -15 -12 -13 -13 -17 -16 -15 -14 -14 -14 -14 -14 -14 -15 -16 -16 -17 -16 -16 -16 -16 -16 -17 -16 -16 -16 -16 -16 -16 -16
-22 -22 -22 -23 -23 -22 -20 -19 -18 -18 -17 -18 -18 -18 -18 -19 -18 -14 -14 -13 -15 -17 -16 -15 -15 -14 -14 -15 -15 -15 -16 -16 -16 -17 -16 -16 -16 -16 -16 -16 -16 -16 -17 -16 -17 -16 -15
-23 -23 -22 -22 -23 -23 -21 -19 -19 -18 -18 -18 -18 -18 -18 -19 -17 -15 -14 -14 -15 -17 -16 -15 -15 -14 -15 -15 -15 -15 -15 -16 -16 -16 -17 -17 -16 -16 -16 -17 -17 -17 -17 -17 -16 -16 -16
-23 -23 -22 -22 -23 -23 -23 -21 -19 -19 -19 -19 -19 -18 -17 -16 -15 -14 -15 -14 -16 -17 -16 -15 -15 -15 -15 -15 -15 -15 -15 -16 -16 -16 -16 -16 -16 -17 -16 -17 -17 -16 -16 -16 -16 -16 -16
-23 -23 -22 -22 -22 -22 -22 -22 -21 -20 -20 -20 -19 -18 -17 -16 -17 -16 -15 -14 -15 -16 -17 -16 -15 -16 -16 -15 -15 -15 -16 -16 -16 -16 -16 -16 -16 -16 -16 -16 -16 -16 -16 -17 -16 -16 -16
-24 -23 -23 -22 -22 -22 -22 -22 -21 -21 -21 -21 -19 -19 -17 -16 -16 -16 -14 -13 -14 -17 -17 -17 -16 -16 -15 -15 -16 -16 -16 -17 -17 -17 -16 -16 -16 -16 -16 -16 -16 -15 -15 -16 -16 -16 -16
-23 -23 -23 -22 -22 -22 -22 -22 -22 -22 -21 -20 -19 -19 -18 -16 -16 -14 -15 -15 -16 -17 -18 -17 -17 -16 -16 -17 -17 -17 -16 -17 -17 -17 -16 -16 -16 -16 -16 -16 -15 -15 -16 -16 -16 -15 -16
-23 -23 -23 -22 -22 -23 -22 -22 -22 -22 -22 -20 -21 -21 -19 -17 -16 -16 -15 -15 -16 -18 -18 -18 -17 -16 -17 -17 -17 -18 -17 -17 -17 -16 -16 -16 -16 -16 -16 -16 -16 -16 -16 -16 -16 -16 -16
-23 -23 -23 -23 -23 -22 -22 -22 -22 -22 -22 -21 -21 -22 -20 -18 -17 -16 -16 -16 -15 -17 -18 -18 -18 -17 -17 -17 -17 -18 -16 -17 -16 -16 -16 -16 -16 -16 -15 -16 -15 -16 -17 -16 -16 -16 -16
-23 -23 -23 -23 -23 -23 -22 -22 -22 -22 -22 -22 -21 -22 -22 -19 -18 -17 -16 -16 -16 -17 -18 -17 -17 -17 -17 -17 -17 -17 -17 -17 -16 -16 -16 -16 -16 -16 -16 -15 -15 -16 -17 -17 -16 -16 -17
-23 -23 -23 -23 -23 -22 -23 -23 -23 -23 -23 -22 -23 -22 -22 -20 -19 -17 -17 -16 -17 -17 -17 -17 -18 -17 -16 -16 -17 -17 -17 -16 -16 -16 -16 -16 -16 -15 -16 -16 -15 -16 -17 -16 -17 -17 -17
-23 -23 -23 -23 -23 -23 -23 -23 -23 -23 -23 -23 -25 -22 -22 -21 -20 -19 -17 -16 -16 -17 -17 -18 -17 -17 -17 -16 -16 -17 -16 -16 -16 -16 -16 -16 -16 -16 -16 -16 -16 -16 -16 -16 -17 -17 -17

GFSGBSN_500_temp_036.txt.gz
Temp
-12 -12 -12 -12 -12 -12 -12 -13 -12 -12 -12 -12 -12 -12 -12 -12 -12 -12 -12 -12 -12 -12 -12 -12 -12 -12 -11 -12 -12 -13 -13 -14 -15 -16 -16 -17 -17 -18 -18 -18 -18 -18 -18 -17 -17 -17 -16
-12 -12 -12 -12 -12 -12 -12 -12 -13 -12 -12 -12 -12 -12 -12 -12 -12 -12 -12 -12 -12 -12 -12 -12 -12 -12 -12 -12 -13 -13 -13 -14 -15 -16 -16 -17 -17 -18 -18 -18 -18 -17 -17 -17 -17 -16 -16
-12 -12 -12 -12 -12 -12 -12 -12 -12 -12 -13 -13 -13 -13 -13 -12 -12 -12 -12 -12 -12 -12 -12 -12 -12 -12 -12 -12 -13 -13 -13 -14 -15 -15 -16 -17 -17 -17 -18 -18 -18 -17 -17 -17 -16 -16 -16
-12 -13 -13 -12 -12 -12 -12 -13 -13 -12 -13 -13 -13 -13 -13 -13 -12 -12 -12 -12 -12 -12 -12 -12 -12 -12 -12 -12 -13 -13 -13 -15 -15 -15 -16 -17 -17 -17 -17 -18 -18 -17 -17 -17 -16 -16 -15
-12 -13 -13 -13 -12 -12 -12 -12 -12 -13 -12 -13 -13 -13 -13 -13 -13 -13 -13 -13 -12 -12 -12 -12 -12 -12 -12 -13 -13 -13 -13 -15 -15 -15 -16 -17 -17 -17 -17 -18 -18 -17 -17 -17 -17 -16 -15
-14 -13 -14 -13 -13 -13 -13 -12 -13 -13 -13 -13 -13 -13 -13 -13 -13 -13 -13 -13 -13 -12 -13 -12 -13 -12 -12 -13 -13 -13 -13 -14 -15 -15 -15 -16 -17 -17 -17 -17 -18 -17 -16 -16 -16 -16 -16
-14 -14 -14 -14 -14 -14 -13 -13 -13 -13 -13 -14 -13 -13 -13 -13 -13 -13 -13 -12 -13 -13 -13 -13 -13 -12 -13 -13 -13 -13 -13 -14 -15 -15 -16 -17 -16 -17 -17 -17 -17 -17 -17 -16 -16 -16 -15
-14 -14 -14 -14 -14 -15 -14 -14 -14 -13 -14 -14 -14 -14 -14 -13 -13 -13 -12 -13 -13 -12 -13 -13 -13 -12 -12 -13 -13 -13 -13 -14 -15 -15 -16 -16 -16 -17 -17 -17 -17 -17 -17 -16 -16 -16 -16
-14 -15 -15 -15 -15 -14 -15 -15 -15 -15 -14 -14 -14 -14 -14 -14 -14 -13 -13 -13 -13 -12 -12 -14 -13 -13 -12 -13 -13 -13 -13 -14 -15 -15 -15 -15 -15 -16 -16 -16 -17 -16 -16 -17 -16 -16 -16
-15 -15 -15 -16 -16 -15 -15 -15 -15 -15 -15 -15 -15 -14 -14 -14 -14 -13 -13 -13 -13 -13 -13 -13 -13 -13 -12 -13 -13 -13 -13 -14 -15 -15 -15 -15 -15 -15 -15 -15 -16 -16 -16 -16 -16 -16 -16
-16 -17 -17 -16 -16 -16 -16 -16 -15 -15 -15 -15 -15 -15 -14 -14 -15 -14 -14 -13 -13 -13 -13 -14 -13 -13 -13 -13 -13 -13 -13 -14 -15 -15 -15 -15 -15 -15 -15 -16 -16 -16 -15 -15 -15 -15 -15
-17 -17 -18 -18 -17 -17 -17 -16 -16 -16 -16 -16 -15 -16 -16 -15 -16 -15 -14 -14 -13 -13 -12 -13 -13 -13 -13 -13 -13 -13 -13 -14 -14 -14 -14 -15 -15 -15 -15 -15 -16 -15 -15 -15 -15 -15 -15
-20 -19 -19 -18 -19 -18 -17 -17 -17 -17 -17 -17 -17 -16 -16 -17 -18 -15 -15 -14 -14 -12 -13 -13 -13 -13 -13 -13 -13 -13 -13 -13 -14 -15 -15 -14 -14 -15 -15 -15 -15 -15 -15 -15 -15 -16 -15
-21 -22 -22 -20 -19 -18 -18 -18 -17 -17 -17 -17 -18 -17 -17 -18 -20 -17 -17 -15 -13 -12 -13 -13 -14 -13 -13 -13 -13 -13 -13 -13 -14 -15 -15 -14 -14 -15 -15 -15 -15 -15 -15 -15 -15 -15 -15
-22 -21 -21 -23 -21 -19 -18 -18 -18 -18 -18 -18 -18 -18 -17 -19 -20 -19 -18 -15 -12 -12 -13 -14 -13 -13 -13 -13 -13 -13 -13 -13 -14 -15 -15 -15 -15 -15 -15 -15 -15 -15 -15 -16 -16 -15 -15
-22 -22 -22 -22 -22 -21 -19 -18 -18 -18 -18 -18 -19 -18 -18 -20 -20 -19 -18 -14 -13 -13 -14 -14 -14 -13 -14 -14 -13 -13 -13 -14 -14 -15 -16 -15 -16 -16 -16 -16 -15 -15 -16 -16 -15 -15 -15
-23 -23 -23 -22 -22 -22 -22 -20 -18 -18 -18 -18 -19 -19 -18 -20 -20 -20 -15 -13 -13 -14 -15 -15 -14 -14 -14 -14 -14 -13 -14 -14 -15 -16 -16 -16 -16 -16 -16 -16 -16 -16 -16 -16 -16 -15 -15
-23 -23 -23 -23 -22 -22 -23 -21 -20 -18 -19 -19 -19 -18 -19 -20 -20 -17 -14 -14 -14 -15 -16 -16 -15 -15 -15 -15 -14 -14 -14 -14 -15 -15 -16 -17 -16 -16 -16 -17 -17 -16 -16 -16 -16 -15 -16
-25 -24 -23 -23 -23 -23 -22 -22 -21 -20 -19 -19 -19 -18 -19 -20 -20 -16 -14 -14 -15 -16 -16 -16 -16 -15 -15 -15 -14 -14 -14 -15 -15 -15 -15 -16 -16 -16 -17 -17 -16 -16 -16 -16 -15 -16 -15
-27 -25 -24 -23 -23 -23 -23 -22 -22 -21 -19 -20 -19 -19 -20 -20 -18 -17 -15 -14 -14 -16 -17 -16 -16 -16 -16 -16 -15 -15 -15 -15 -15 -16 -16 -17 -17 -16 -16 -17 -17 -16 -16 -16 -16 -15 -16
-27 -28 -25 -24 -23 -23 -23 -23 -23 -22 -21 -21 -21 -19 -18 -18 -17 -16 -15 -14 -15 -15 -17 -16 -17 -16 -16 -16 -15 -15 -15 -15 -16 -16 -16 -17 -16 -17 -17 -18 -17 -16 -16 -17 -16 -16 -16
-28 -28 -26 -24 -23 -23 -23 -23 -23 -23 -22 -21 -22 -19 -19 -18 -18 -17 -15 -14 -13 -17 -17 -16 -15 -17 -17 -16 -16 -16 -16 -16 -16 -16 -16 -16 -16 -17 -17 -17 -17 -16 -16 -16 -16 -16 -15
-28 -28 -26 -25 -24 -23 -23 -23 -24 -24 -24 -21 -22 -20 -19 -18 -18 -18 -14 -14 -14 -17 -17 -17 -17 -18 -17 -17 -17 -17 -16 -16 -16 -17 -17 -16 -16 -17 -17 -17 -17 -15 -15 -16 -16 -16 -15
-28 -28 -26 -26 -24 -24 -23 -24 -24 -24 -23 -23 -22 -20 -19 -18 -17 -16 -15 -15 -15 -17 -17 -17 -18 -18 -18 -18 -18 -17 -17 -17 -16 -16 -17 -17 -17 -17 -17 -17 -16 -15 -15 -15 -15 -15 -15
-28 -27 -27 -25 -24 -24 -23 -23 -23 -23 -24 -24 -23 -21 -20 -19 -18 -17 -16 -16 -16 -17 -17 -18 -19 -19 -18 -18 -18 -17 -17 -17 -17 -17 -17 -17 -17 -17 -17 -16 -15 -15 -15 -16 -15 -15 -15
-28 -27 -26 -25 -24 -23 -23 -23 -23 -23 -24 -25 -23 -21 -21 -20 -18 -18 -17 -16 -15 -16 -18 -18 -19 -19 -19 -19 -18 -18 -17 -17 -17 -17 -17 -17 -17 -17 -17 -16 -15 -15 -15 -16 -16 -15 -16
-28 -27 -26 -24 -24 -23 -23 -23 -23 -23 -24 -24 -23 -22 -21 -21 -19 -18 -17 -16 -16 -16 -18 -18 -19 -19 -19 -18 -18 -17 -17 -18 -17 -16 -17 -17 -17 -16 -17 -16 -15 -15 -16 -16 -16 -16 -16
-25 -26 -25 -24 -24 -24 -24 -23 -23 -23 -23 -23 -23 -22 -21 -21 -20 -18 -18 -17 -17 -16 -17 -18 -19 -19 -20 -19 -18 -17 -18 -18 -17 -16 -16 -17 -17 -17 -17 -16 -16 -16 -16 -16 -16 -16 -16
-25 -24 -24 -24 -24 -24 -24 -23 -23 -23 -23 -23 -22 -22 -23 -21 -20 -20 -18 -18 -17 -17 -19 -18 -18 -19 -19 -19 -18 -18 -18 -17 -17 -16 -16 -16 -16 -17 -17 -17 -16 -16 -16 -16 -16 -16 -16

GFSGBSN_500_temp_039.txt.gz
Temp
-12 -12 -12 -12 -12 -12 -12 -12 -12 -12 -12 -12 -12 -12 -12 -12 -12 -12 -12 -12 -12 -12 -12 -12 -12 -12 -12 -12 -12 -12 -12 -13 -13 -14 -15 -16 -17 -17 -17 -18 -18 -18 -18 -17 -17 -16 -16
-12 -13 -12 -12 -12 -12 -12 -12 -12 -12 -12 -13 -13 -13 -13 -12 -12 -13 -13 -12 -12 -12 -12 -12 -12 -12 -12 -12 -12 -12 -12 -13 -13 -14 -15 -16 -17 -17 -18 -18 -18 -18 -17 -17 -16 -16 -16
-12 -13 -13 -13 -12 -12 -12 -12 -13 -13 -13 -12 -13 -13 -13 -13 -13 -13 -13 -13 -12 -12 -12 -12 -12 -12 -12 -12 -12 -12 -12 -13 -13 -14 -15 -16 -17 -17 -17 -18 -17 -17 -17 -17 -17 -16 -16
-12 -13 -13 -13 -13 -13 -12 -12 -12 -13 -13 -13 -13 -13 -13 -13 -13 -13 -13 -13 -12 -13 -13 -12 -12 -12 -13 -12 -12 -12 -13 -13 -13 -14 -15 -15 -16 -17 -17 -18 -17 -17 -17 -17 -17 -16 -16
-13 -13 -13 -13 -13 -13 -13 -13 -12 -13 -13 -13 -13 -13 -13 -13 -13 -13 -13 -13 -13 -13 -13 -13 -13 -13 -13 -12 -12 -12 -13 -13 -13 -14 -15 -15 -16 -17 -17 -17 -17 -17 -18 -17 -16 -17 -16
-13 -14 -13 -13 -13 -13 -13 -13 -13 -13 -13 -13 -13 -13 -13 -13 -13 -13 -13 -13 -13 -13 -13 -13 -13 -13 -13 -13 -13 -13 -13 -13 -13 -14 -15 -15 -16 -16 -17 -17 -17 -17 -17 -17 -17 -16 -16
-14 -14 -13 -14 -14 -14 -13 -13 -14 -14 -13 -13 -13 -13 -13 -14 -13 -13 -13 -13 -13 -13 -13 -13 -13 -13 -13 -13 -13 -13 -13 -13 -14 -14 -15 -15 -16 -16 -17 -17 -17 -17 -17 -17 -17 -16 -16
-14 -14 -14 -14 -14 -14 -14 -14 -14 -13 -14 -14 -14 -13 -14 -14 -14 -13 -13 -13 -13 -13 -12 -13 -12 -13 -13 -13 -13 -13 -13 -13 -14 -14 -15 -15 -16 -16 -17 -17 -17 -17 -17 -17 -17 -16 -17
-14 -14 -14 -14 -14 -14 -14 -14 -14 -14 -14 -14 -14 -14 -13 -14 -14 -14 -14 -13 -13 -13 -12 -13 -12 -13 -13 -13 -13 -13 -13 -13 -14 -14 -14 -15 -15 -15 -16 -16 -16 -16 -17 -17 -16 -16 -16
-14 -15 -15 -15 -15 -15 -15 -15 -15 -15 -15 -14 -14 -14 -15 -14 -14 -14 -14 -14 -14 -13 -12 -12 -12 -13 -13 -13 -13 -13 -13 -13 -13 -14 -14 -15 -15 -15 -15 -15 -16 -16 -15 -16 -16 -16 -16
-16 -15 -15 -15 -17 -17 -17 -16 -16 -16 -15 -15 -15 -15 -15 -14 -15 -15 -15 -15 -14 -13 -12 -12 -12 -12 -13 -13 -13 -13 -13 -13 -14 -14 -15 -15 -15 -14 -15 -15 -15 -16 -15 -15 -16 -16 -16
-19 -18 -18 -18 -17 -16 -17 -18 -17 -17 -16 -16 -16 -15 -15 -15 -15 -15 -15 -15 -15 -13 -12 -12 -12 -12 -13 -13 -13 -13 -13 -13 -13 -13 -14 -14 -14 -14 -15 -15 -15 -15 -15 -15 -15 -15 -15
-21 -21 -21 -21 -20 -19 -18 -17 -17 -17 -17 -17 -17 -17 -15 -16 -17 -16 -16 -16 -15 -12 -13 -13 -13 -13 -14 -14 -13 -13 -13 -13 -13 -13 -14 -14 -14 -14 -14 -15 -15 -15 -15 -15 -15 -15 -15
-21 -21 -21 -21 -21 -22 -21 -19 -18 -17 -18 -18 -18 -18 -16 -16 -19 -17 -18 -17 -14 -12 -13 -13 -13 -14 -14 -14 -13 -13 -14 -13 -13 -13 -14 -14 -15 -14 -14 -15 -15 -16 -15 -15 -15 -15 -15
-21 -21 -21 -21 -21 -21 -21 -21 -20 -19 -18 -18 -18 -18 -17 -17 -20 -19 -18 -17 -12 -13 -14 -13 -13 -14 -14 -13 -13 -13 -14 -14 -14 -14 -14 -15 -15 -15 -15 -15 -16 -16 -15 -15 -15 -15 -15
-22 -21 -21 -22 -22 -22 -21 -21 -21 -20 -20 -19 -18 -18 -18 -19 -21 -20 -19 -14 -13 -14 -15 -14 -13 -14 -15 -14 -14 -14 -14 -14 -14 -14 -14 -15 -16 -15 -15 -15 -16 -16 -16 -16 -15 -15 -15
-22 -22 -23 -22 -22 -23 -22 -22 -22 -21 -21 -21 -19 -19 -18 -19 -21 -21 -16 -13 -13 -14 -15 -15 -15 -14 -15 -15 -15 -14 -14 -14 -14 -14 -14 -15 -16 -16 -15 -16 -16 -16 -16 -16 -16 -15 -15
-23 -23 -23 -23 -23 -23 -23 -22 -22 -22 -21 -22 -21 -19 -18 -20 -21 -20 -15 -13 -14 -15 -16 -15 -16 -15 -15 -16 -15 -15 -15 -15 -15 -15 -14 -16 -16 -17 -16 -16 -17 -16 -16 -16 -16 -16 -16
-26 -27 -27 -25 -24 -23 -23 -23 -23 -23 -22 -22 -22 -20 -20 -21 -21 -19 -15 -14 -14 -16 -16 -16 -16 -16 -16 -16 -16 -16 -15 -15 -15 -15 -14 -16 -16 -17 -17 -17 -16 -16 -16 -16 -16 -16 -15
-26 -27 -28 -27 -26 -25 -24 -23 -23 -23 -23 -23 -22 -22 -22 -22 -19 -18 -16 -14 -14 -15 -16 -17 -17 -17 -17 -17 -17 -16 -16 -15 -15 -15 -15 -16 -16 -16 -16 -17 -17 -17 -17 -16 -16 -16 -16
-26 -27 -27 -28 -27 -26 -25 -24 -23 -23 -23 -24 -23 -22 -23 -20 -19 -17 -16 -15 -15 -15 -16 -17 -17 -17 -17 -18 -17 -17 -17 -16 -15 -15 -15 -16 -15 -16 -16 -17 -18 -17 -17 -17 -16 -16 -16
-26 -27 -27 -28 -28 -27 -25 -24 -24 -23 -24 -24 -24 -21 -23 -20 -19 -19 -17 -14 -14 -15 -17 -16 -16 -18 -18 -18 -18 -17 -18 -17 -16 -16 -17 -17 -16 -16 -16 -17 -17 -17 -17 -17 -17 -16 -16
-27 -27 -27 -27 -27 -27 -26 -24 -24 -23 -24 -24 -22 -21 -22 -20 -20 -19 -16 -15 -14 -15 -17 -17 -18 -19 -19 -18 -19 -19 -18 -17 -17 -16 -17 -17 -17 -17 -16 -17 -18 -15 -16 -17 -17 -17 -16
-27 -27 -27 -27 -27 -27 -26 -24 -24 -24 -23 -23 -22 -22 -21 -21 -21 -19 -17 -16 -15 -15 -18 -18 -19 -19 -19 -21 -19 -18 -19 -18 -17 -17 -17 -17 -18 -17 -17 -17 -16 -16 -16 -17 -16 -16 -16
-27 -28 -27 -27 -27 -27 -26 -25 -24 -24 -23 -23 -24 -24 -22 -21 -21 -20 -18 -17 -16 -16 -18 -18 -19 -20 -20 -21 -20 -18 -18 -18 -17 -17 -17 -17 -18 -17 -17 -16 -16 -15 -16 -16 -16 -15 -16
-28 -28 -27 -27 -28 -26 -26 -25 -24 -24 -23 -24 -25 -25 -23 -22 -21 -21 -19 -18 -17 -16 -18 -19 -19 -20 -20 -21 -20 -18 -18 -18 -17 -17 -17 -17 -18 -18 -17 -16 -15 -16 -16 -16 -16 -15 -17
-28 -28 -28 -28 -27 -26 -26 -25 -24 -24 -24 -25 -25 -25 -24 -22 -21 -21 -20 -18 -18 -17 -17 -19 -20 -20 -20 -21 -20 -19 -18 -17 -18 -18 -18 -17 -17 -17 -17 -16 -16 -16 -16 -16 -16 -16 -16
-28 -28 -28 -28 -27 -26 -25 -24 -24 -24 -24 -25 -25 -25 -25 -22 -21 -21 -21 -19 -19 -18 -17 -18 -20 -20 -20 -19 -20 -19 -18 -18 -18 -18 -17 -17 -17 -17 -17 -16 -16 -17 -17 -16 -16 -16 -15
-28 -28 -27 -26 -26 -24 -24 -24 -24 -24 -24 -25 -25 -25 -25 -24 -22 -21 -21 -20 -19 -19 -19 -19 -19 -19 -20 -20 -19 -20 -19 -18 -18 -18 -17 -17 -17 -17 -17 -17 -17 -17 -17 -17 -16 -16 -16

GFSGBSN_500_temp_042.txt.gz
Temp
-12 -12 -12 -12 -12 -12 -12 -12 -12 -12 -12 -12 -12 -12 -12 -12 -12 -12 -12 -12 -12 -12 -12 -12 -12 -12 -12 -12 -12 -12 -12 -12 -12 -13 -13 -14 -15 -16 -17 -17 -17 -18 -17 -17 -17 -16 -16
-12 -12 -12 -12 -12 -12 -12 -12 -12 -12 -12 -12 -12 -12 -12 -13 -12 -12 -12 -12 -12 -12 -13 -12 -13 -13 -13 -12 -12 -12 -12 -12 -13 -13 -13 -14 -15 -16 -17 -17 -17 -18 -17 -17 -17 -16 -16
-12 -12 -12 -12 -12 -12 -12 -12 -12 -12 -12 -12 -12 -13 -13 -12 -13 -13 -13 -13 -13 -13 -13 -13 -13 -13 -13 -12 -12 -12 -12 -12 -13 -13 -13 -14 -15 -16 -17 -17 -17 -18 -17 -17 -16 -16 -16
-13 -13 -13 -13 -13 -13 -13 -12 -12 -13 -13 -12 -12 -12 -13 -13 -13 -13 -13 -13 -13 -13 -13 -13 -13 -13 -13 -13 -13 -12 -12 -13 -13 -13 -13 -14 -15 -15 -16 -17 -17 -18 -17 -17 -17 -16 -16
-14 -13 -13 -14 -13 -13 -13 -13 -13 -12 -12 -12 -12 -13 -12 -13 -13 -13 -13 -13 -13 -13 -13 -13 -13 -13 -13 -13 -13 -13 -13 -13 -13 -13 -13 -14 -15 -15 -16 -16 -17 -17 -17 -17 -17 -17 -17
-14 -14 -13 -13 -13 -13 -13 -13 -13 -13 -13 -13 -12 -12 -13 -12 -13 -13 -13 -13 -13 -13 -13 -13 -13 -13 -12 -13 -13 -13 -13 -13 -13 -13 -13 -14 -15 -16 -16 -17 -17 -17 -17 -17 -17 -16 -16
-14 -14 -14 -14 -14 -14 -14 -13 -14 -14 -13 -13 -13 -13 -12 -12 -13 -13 -13 -13 -13 -13 -13 -13 -13 -13 -13 -13 -13 -13 -13 -13 -13 -13 -13 -14 -15 -16 -16 -17 -17 -16 -17 -17 -17 -16 -16
-14 -14 -14 -14 -14 -14 -14 -14 -14 -14 -14 -14 -14 -14 -13 -13 -12 -13 -13 -13 -13 -13 -13 -13 -13 -13 -13 -13 -13 -13 -13 -13 -13 -13 -13 -14 -15 -16 -16 -17 -16 -17 -17 -17 -16 -16 -16
-14 -14 -14 -14 -14 -14 -14 -14 -14 -14 -14 -14 -14 -14 -13 -13 -13 -13 -13 -13 -13 -12 -12 -13 -13 -13 -13 -12 -13 -13 -13 -13 -13 -13 -13 -14 -15 -15 -15 -16 -16 -17 -17 -16 -16 -16 -16
-14 -14 -14 -15 -15 -15 -15 -15 -15 -15 -15 -15 -15 -14 -14 -14 -13 -13 -13 -13 -13 -13 -12 -12 -13 -12 -12 -12 -12 -13 -14 -13 -13 -13 -13 -14 -14 -15 -15 -15 -15 -16 -16 -16 -16 -16 -17
-15 -15 -15 -14 -14 -14 -15 -15 -16 -16 -16 -15 -15 -15 -15 -14 -14 -14 -14 -14 -14 -14 -13 -12 -12 -12 -12 -12 -13 -13 -14 -13 -13 -13 -13 -14 -14 -15 -15 -15 -15 -15 -16 -16 -16 -16 -16
-19 -18 -18 -17 -17 -17 -16 -16 -15 -15 -16 -17 -16 -16 -16 -15 -15 -15 -14 -14 -14 -15 -12 -12 -13 -12 -12 -12 -13 -13 -14 -14 -14 -13 -13 -14 -14 -15 -15 -14 -14 -15 -15 -16 -16 -16 -16
-20 -20 -20 -20 -20 -20 -20 -19 -18 -17 -17 -16 -17 -17 -17 -16 -16 -16 -16 -15 -15 -13 -12 -13 -13 -12 -12 -12 -13 -14 -13 -13 -13 -13 -13 -14 -14 -15 -15 -14 -14 -15 -15 -17 -17 -16 -16
-20 -20 -20 -20 -20 -20 -20 -20 -21 -20 -20 -19 -17 -17 -17 -17 -17 -18 -17 -17 -14 -12 -12 -13 -13 -13 -13 -13 -13 -14 -14 -14 -14 -13 -13 -13 -14 -15 -15 -14 -15 -15 -15 -17 -17 -16 -17
-20 -20 -20 -20 -20 -20 -21 -21 -21 -21 -21 -20 -19 -19 -18 -17 -18 -19 -18 -17 -13 -13 -13 -14 -14 -13 -13 -13 -13 -14 -14 -14 -14 -14 -14 -13 -14 -14 -14 -15 -15 -15 -15 -15 -16 -16 -16
-20 -20 -20 -20 -21 -21 -21 -21 -21 -21 -21 -21 -20 -20 -19 -19 -19 -20 -19 -15 -14 -13 -13 -15 -14 -13 -13 -14 -14 -14 -14 -14 -14 -14 -14 -14 -15 -15 -15 -15 -15 -15 -15 -15 -15 -16 -16
-20 -20 -20 -20 -21 -21 -21 -22 -21 -21 -22 -22 -21 -21 -20 -20 -21 -21 -19 -14 -14 -13 -14 -15 -15 -14 -14 -14 -15 -16 -14 -14 -14 -14 -14 -14 -15 -15 -15 -15 -15 -15 -15 -15 -16 -15 -16
-20 -20 -21 -21 -21 -22 -22 -22 -22 -22 -22 -23 -22 -21 -20 -22 -23 -21 -17 -15 -15 -14 -15 -15 -15 -15 -15 -15 -16 -16 -15 -15 -15 -15 -14 -14 -15 -15 -15 -15 -15 -15 -16 -16 -16 -16 -16
-20 -21 -22 -22 -22 -22 -22 -22 -23 -23 -22 -22 -22 -21 -21 -22 -23 -22 -18 -16 -15 -15 -15 -16 -15 -16 -16 -16 -15 -15 -16 -16 -16 -15 -15 -15 -15 -15 -16 -16 -16 -16 -16 -16 -16 -16 -16
-22 -22 -23 -23 -23 -24 -24 -24 -23 -23 -23 -23 -23 -23 -23 -22 -22 -22 -19 -18 -16 -15 -16 -17 -16 -17 -17 -17 -16 -16 -16 -16 -16 -16 -15 -16 -16 -16 -15 -16 -17 -16 -17 -17 -17 -16 -16
-24 -24 -24 -25 -26 -26 -26 -26 -25 -24 -24 -23 -23 -23 -21 -21 -20 -21 -21 -19 -17 -15 -16 -17 -16 -16 -17 -17 -17 -16 -18 -17 -16 -16 -15 -15 -15 -16 -16 -17 -17 -17 -17 -17 -17 -16 -16
-25 -26 -26 -26 -26 -26 -26 -26 -26 -25 -24 -24 -23 -23 -22 -21 -22 -20 -21 -20 -17 -16 -17 -16 -16 -18 -18 -18 -18 -19 -19 -18 -18 -17 -16 -16 -15 -16 -16 -16 -17 -17 -16 -17 -17 -16 -16
-26 -26 -26 -26 -26 -26 -26 -26 -26 -26 -26 -25 -23 -23 -22 -21 -22 -22 -21 -20 -18 -17 -17 -18 -18 -18 -19 -20 -19 -18 -19 -18 -18 -17 -17 -16 -16 -16 -16 -16 -17 -15 -16 -17 -17 -17 -16
-27 -26 -26 -26 -26 -26 -26 -27 -26 -26 -26 -25 -23 -23 -22 -21 -23 -22 -20 -20 -20 -18 -17 -18 -18 -18 -20 -22 -20 -19 -19 -18 -18 -18 -17 -17 -17 -17 -17 -17 -16 -16 -16 -17 -17 -16 -16
-28 -28 -28 -27 -26 -26 -26 -27 -26 -26 -26 -25 -24 -23 -23 -23 -23 -22 -21 -20 -21 -20 -19 -19 -19 -19 -21 -22 -22 -20 -19 -18 -18 -18 -18 -17 -17 -17 -17 -16 -15 -15 -16 -17 -17 -16 -16
-27 -28 -28 -28 -27 -27 -27 -27 -27 -26 -26 -25 -24 -24 -24 -24 -23 -23 -22 -20 -21 -21 -20 -20 -20 -20 -21 -21 -21 -19 -18 -18 -18 -18 -18 -18 -18 -18 -17 -17 -15 -15 -16 -17 -17 -15 -18
-27 -27 -28 -28 -27 -27 -27 -27 -26 -26 -26 -24 -24 -24 -25 -24 -23 -23 -23 -21 -21 -21 -21 -21 -20 -20 -20 -21 -20 -20 -18 -18 -18 -18 -18 -18 -18 -17 -18 -16 -15 -15 -16 -17 -17 -16 -16
-28 -28 -27 -27 -27 -27 -27 -26 -26 -26 -25 -25 -24 -24 -25 -24 -24 -24 -23 -22 -21 -22 -22 -20 -21 -21 -20 -21 -20 -19 -18 -18 -18 -18 -18 -18 -18 -18 -18 -17 -15 -16 -16 -17 -17 -17 -16
-28 -29 -28 -27 -27 -27 -27 -26 -26 -26 -25 -24 -25 -25 -24 -24 -24 -24 -23 -22 -22 -22 -22 -21 -20 -21 -20 -20 -20 -19 -20 -19 -19 -18 -18 -18 -18 -18 -17 -17 -17 -17 -17 -17 -17 -17 -17

GFSGBSN_500_temp_045.txt.gz
Temp
-13 -13 -13 -13 -12 -12 -12 -12 -12 -12 -12 -12 -12 -12 -12 -12 -12 -12 -12 -12 -12 -13 -13 -12 -12 -12 -12 -12 -12 -12 -12 -12 -13 -12 -13 -12 -13 -14 -15 -16 -16 -16 -17 -16 -16 -16 -16
-13 -13 -13 -13 -13 -13 -12 -12 -12 -12 -12 -12 -12 -12 -12 -12 -12 -12 -13 -13 -12 -13 -13 -13 -13 -12 -13 -13 -12 -12 -13 -12 -13 -13 -13 -12 -13 -14 -15 -16 -16 -16 -15 -16 -16 -15 -15
-13 -13 -13 -13 -13 -13 -12 -12 -12 -12 -12 -12 -12 -12 -12 -12 -12 -12 -12 -13 -13 -13 -13 -13 -13 -13 -13 -13 -12 -13 -13 -13 -13 -13 -13 -12 -13 -14 -15 -16 -16 -15 -16 -16 -16 -15 -15
-14 -14 -14 -13 -13 -13 -13 -12 -13 -12 -12 -12 -12 -12 -13 -12 -12 -13 -13 -12 -13 -13 -13 -13 -13 -13 -13 -13 -13 -13 -13 -13 -13 -13 -13 -13 -13 -14 -15 -16 -15 -16 -16 -15 -16 -15 -15
-14 -14 -14 -14 -14 -14 -14 -13 -13 -13 -13 -12 -12 -12 -12 -12 -12 -13 -13 -13 -13 -13 -13 -13 -13 -13 -13 -13 -13 -13 -13 -13 -13 -13 -13 -12 -14 -14 -15 -16 -17 -16 -16 -15 -15 -15 -15
-16 -16 -15 -15 -14 -14 -14 -14 -14 -14 -14 -13 -13 -13 -12 -12 -12 -13 -13 -12 -12 -13 -13 -13 -13 -13 -12 -13 -13 -13 -13 -13 -14 -13 -13 -13 -14 -14 -15 -17 -16 -16 -16 -15 -15 -14 -15
-16 -16 -16 -15 -14 -14 -14 -14 -14 -14 -14 -14 -14 -13 -13 -13 -12 -13 -13 -13 -12 -12 -13 -13 -12 -13 -12 -13 -13 -13 -13 -13 -14 -13 -13 -13 -14 -14 -17 -17 -17 -16 -16 -16 -15 -16 -15
-16 -15 -15 -15 -15 -15 -14 -14 -14 -14 -14 -14 -13 -14 -13 -13 -13 -13 -13 -13 -13 -13 -12 -12 -12 -12 -12 -13 -13 -13 -13 -13 -14 -14 -13 -13 -14 -15 -15 -15 -15 -16 -17 -16 -16 -15 -15
-16 -16 -15 -15 -15 -15 -14 -15 -14 -14 -14 -14 -14 -14 -14 -13 -13 -13 -13 -13 -13 -13 -12 -12 -12 -12 -13 -12 -13 -13 -13 -14 -14 -14 -13 -13 -15 -14 -14 -15 -15 -16 -16 -15 -16 -15 -15
-16 -16 -15 -15 -15 -15 -15 -14 -14 -14 -14 -14 -14 -14 -14 -14 -14 -14 -14 -13 -13 -13 -12 -12 -12 -11 -12 -12 -12 -13 -13 -13 -14 -14 -13 -13 -14 -14 -14 -15 -15 -17 -16 -16 -16 -15 -16
-16 -16 -16 -15 -15 -15 -15 -14 -14 -14 -15 -15 -15 -15 -15 -15 -14 -15 -14 -15 -14 -14 -13 -12 -12 -12 -12 -12 -12 -13 -13 -13 -13 -14 -13 -14 -14 -14 -14 -15 -15 -16 -15 -15 -16 -17 -16
-18 -18 -18 -17 -17 -16 -16 -15 -15 -15 -15 -15 -15 -15 -15 -15 -15 -16 -15 -15 -15 -15 -12 -12 -12 -12 -12 -12 -12 -12 -12 -13 -14 -14 -13 -13 -13 -14 -14 -14 -14 -14 -15 -15 -15 -16 -16
-21 -21 -20 -20 -19 -19 -19 -19 -18 -17 -17 -16 -16 -16 -15 -16 -16 -16 -16 -16 -16 -14 -13 -12 -13 -13 -12 -12 -12 -12 -12 -13 -13 -13 -13 -14 -13 -14 -14 -14 -14 -15 -14 -16 -16 -16 -15
-21 -21 -21 -21 -20 -20 -20 -20 -20 -20 -20 -19 -18 -18 -17 -16 -17 -17 -17 -17 -16 -13 -13 -12 -12 -13 -13 -12 -12 -12 -12 -13 -14 -14 -14 -14 -13 -14 -14 -14 -15 -15 -16 -16 -15 -15 -15
-21 -21 -20 -20 -20 -20 -20 -20 -20 -20 -20 -20 -20 -19 -18 -18 -19 -18 -19 -19 -14 -14 -14 -13 -13 -14 -13 -13 -12 -12 -12 -13 -13 -14 -14 -14 -14 -14 -14 -14 -15 -16 -15 -16 -15 -15 -15
-20 -20 -20 -20 -20 -20 -20 -20 -20 -20 -20 -20 -20 -20 -20 -19 -20 -21 -20 -19 -15 -15 -15 -14 -13 -14 -14 -14 -13 -13 -12 -13 -14 -14 -15 -15 -16 -14 -14 -15 -15 -16 -16 -15 -15 -16 -15
-20 -20 -20 -20 -19 -20 -20 -20 -20 -20 -21 -21 -21 -20 -20 -20 -21 -22 -21 -17 -15 -15 -15 -15 -14 -15 -15 -15 -14 -13 -14 -13 -15 -15 -15 -15 -14 -16 -14 -14 -15 -15 -15 -15 -16 -16 -16
-20 -20 -20 -20 -20 -20 -20 -20 -20 -20 -21 -21 -21 -21 -20 -21 -22 -21 -22 -18 -16 -17 -16 -15 -16 -16 -16 -15 -15 -15 -15 -15 -15 -16 -15 -15 -14 -16 -14 -15 -16 -15 -16 -16 -17 -16 -16
-20 -20 -20 -20 -20 -20 -20 -20 -20 -21 -21 -21 -21 -21 -21 -22 -21 -20 -20 -19 -19 -18 -17 -16 -15 -16 -16 -16 -16 -16 -15 -15 -15 -17 -15 -15 -15 -15 -17 -16 -16 -16 -16 -17 -16 -17 -16
-20 -20 -20 -20 -20 -21 -21 -21 -21 -21 -22 -22 -22 -22 -22 -21 -21 -21 -21 -19 -20 -20 -19 -18 -16 -17 -17 -16 -16 -16 -17 -16 -17 -17 -16 -16 -15 -15 -15 -16 -17 -16 -16 -17 -17 -17 -16
-21 -21 -21 -21 -21 -21 -21 -21 -21 -22 -22 -23 -23 -22 -22 -21 -21 -20 -20 -20 -19 -20 -20 -19 -18 -16 -17 -18 -18 -16 -18 -17 -18 -18 -17 -16 -15 -15 -15 -17 -16 -17 -17 -18 -17 -17 -17
-21 -22 -21 -22 -22 -23 -23 -23 -23 -23 -24 -24 -24 -23 -22 -22 -22 -22 -21 -21 -21 -20 -20 -20 -18 -17 -18 -19 -19 -18 -17 -17 -18 -18 -18 -17 -15 -15 -16 -18 -17 -17 -17 -17 -17 -17 -17
-22 -24 -25 -25 -26 -25 -25 -24 -24 -25 -25 -25 -25 -24 -24 -23 -22 -22 -21 -21 -21 -20 -21 -20 -20 -20 -21 -21 -20 -19 -18 -17 -17 -17 -18 -18 -16 -16 -15 -17 -18 -18 -15 -17 -17 -17 -17
-26 -26 -25 -26 -26 -26 -26 -26 -26 -26 -25 -26 -25 -25 -24 -23 -23 -22 -21 -22 -21 -21 -20 -20 -21 -22 -21 -22 -20 -20 -19 -18 -18 -18 -18 -18 -17 -17 -15 -16 -15 -14 -16 -16 -16 -16 -17
-26 -26 -27 -27 -27 -26 -27 -27 -27 -26 -26 -26 -26 -26 -25 -24 -23 -22 -22 -22 -22 -23 -23 -22 -22 -21 -22 -20 -21 -21 -20 -19 -17 -17 -17 -18 -18 -17 -16 -15 -15 -15 -16 -16 -16 -15 -16
-26 -27 -28 -28 -28 -27 -27 -27 -27 -26 -26 -26 -25 -26 -25 -25 -23 -22 -22 -23 -23 -22 -23 -23 -23 -23 -22 -22 -21 -21 -20 -18 -19 -17 -17 -18 -19 -18 -17 -16 -15 -15 -16 -16 -17 -15 -16
-28 -27 -27 -27 -28 -27 -26 -26 -26 -26 -26 -25 -26 -25 -25 -25 -24 -24 -24 -23 -23 -23 -22 -23 -23 -22 -21 -21 -21 -21 -21 -19 -18 -18 -17 -18 -18 -18 -17 -17 -15 -15 -16 -17 -16 -16 -17
-28 -28 -27 -27 -27 -28 -27 -26 -26 -26 -26 -25 -26 -25 -25 -25 -25 -24 -24 -24 -23 -23 -23 -23 -24 -22 -21 -21 -21 -21 -21 -19 -19 -18 -18 -17 -18 -17 -18 -17 -16 -16 -16 -16 -17 -17 -17
-28 -27 -27 -28 -28 -28 -27 -26 -26 -26 -26 -26 -26 -26 -26 -25 -24 -24 -24 -24 -23 -24 -24 -24 -23 -21 -20 -20 -21 -21 -21 -21 -19 -18 -18 -18 -17 -17 -18 -16 -17 -17 -17 -18 -17 -17 -17

GFSGBSN_500_temp_048.txt.gz
Temp
-13 -13 -13 -13 -13 -13 -13 -13 -13 -12 -13 -12 -12 -12 -12 -12 -12 -12 -12 -12 -12 -12 -12 -12 -12 -12 -12 -12 -12 -13 -12 -12 -12 -12 -13 -13 -12 -12 -13 -16 -17 -16 -15 -14 -14 -15 -15
-13 -13 -13 -13 -13 -13 -13 -13 -13 -13 -13 -13 -12 -12 -12 -12 -12 -12 -12 -12 -12 -12 -12 -12 -12 -12 -13 -12 -12 -12 -13 -13 -13 -13 -13 -13 -12 -12 -13 -15 -15 -16 -14 -14 -15 -15 -15
-13 -13 -13 -13 -13 -13 -13 -13 -13 -13 -13 -13 -12 -12 -12 -12 -12 -12 -12 -12 -12 -12 -12 -12 -12 -12 -12 -13 -13 -13 -13 -13 -13 -13 -13 -13 -12 -13 -13 -14 -14 -14 -14 -14 -15 -15 -16
-14 -13 -13 -13 -13 -13 -13 -13 -13 -13 -13 -13 -13 -12 -12 -12 -12 -12 -12 -13 -12 -12 -12 -12 -12 -12 -12 -13 -13 -13 -13 -13 -13 -13 -13 -13 -12 -13 -13 -14 -14 -14 -15 -15 -15 -15 -13
-14 -14 -14 -14 -14 -14 -14 -14 -14 -13 -13 -13 -13 -13 -13 -13 -12 -12 -13 -12 -13 -12 -12 -12 -12 -12 -12 -13 -13 -13 -13 -13 -13 -13 -13 -13 -12 -13 -13 -14 -14 -15 -15 -15 -15 -15 -14
-15 -16 -15 -15 -15 -15 -15 -15 -15 -15 -15 -14 -14 -14 -13 -13 -13 -12 -13 -13 -12 -12 -12 -12 -12 -12 -12 -12 -12 -12 -13 -13 -13 -13 -13 -13 -13 -13 -13 -14 -15 -15 -15 -15 -15 -14 -15
-18 -18 -18 -18 -17 -17 -16 -16 -16 -15 -15 -15 -15 -15 -14 -14 -13 -13 -13 -13 -13 -12 -12 -12 -12 -12 -12 -11 -12 -12 -13 -12 -12 -13 -13 -13 -13 -13 -13 -16 -15 -16 -16 -15 -15 -14 -14
-18 -17 -18 -17 -17 -17 -17 -16 -16 -15 -15 -14 -14 -14 -14 -14 -14 -14 -14 -13 -13 -12 -12 -12 -12 -12 -12 -12 -12 -12 -13 -13 -13 -13 -13 -13 -13 -13 -14 -16 -15 -15 -15 -16 -15 -15 -14
-17 -17 -17 -16 -16 -16 -16 -15 -15 -15 -15 -14 -14 -14 -14 -14 -14 -14 -14 -14 -13 -13 -11 -13 -12 -12 -12 -12 -12 -12 -12 -13 -13 -13 -13 -14 -13 -14 -14 -14 -14 -14 -16 -16 -15 -15 -14
-17 -17 -16 -16 -16 -16 -15 -15 -15 -15 -14 -14 -14 -14 -14 -14 -14 -14 -14 -14 -13 -13 -12 -11 -12 -11 -12 -12 -11 -12 -12 -13 -13 -13 -13 -13 -13 -13 -14 -14 -14 -15 -15 -16 -15 -15 -15
-17 -17 -17 -16 -16 -16 -15 -15 -15 -15 -15 -14 -14 -14 -14 -14 -14 -15 -14 -14 -14 -13 -13 -13 -12 -11 -12 -11 -12 -12 -13 -13 -13 -13 -14 -13 -13 -13 -14 -14 -14 -15 -15 -15 -15 -15 -16
-18 -18 -18 -17 -17 -16 -16 -16 -15 -15 -15 -15 -15 -14 -14 -14 -15 -16 -15 -15 -16 -15 -12 -13 -12 -12 -12 -12 -12 -13 -12 -12 -13 -13 -13 -14 -14 -13 -14 -14 -14 -15 -14 -15 -15 -15 -14
-20 -19 -20 -20 -19 -18 -18 -18 -17 -16 -16 -16 -15 -15 -14 -15 -16 -16 -15 -16 -16 -14 -13 -13 -13 -12 -12 -12 -12 -12 -12 -12 -12 -12 -12 -14 -13 -14 -13 -14 -14 -14 -14 -14 -15 -15 -14
-21 -21 -21 -21 -21 -21 -21 -20 -20 -19 -18 -18 -18 -17 -16 -16 -17 -17 -17 -17 -16 -12 -13 -14 -13 -13 -12 -13 -13 -13 -12 -12 -12 -13 -14 -14 -14 -13 -13 -13 -14 -14 -14 -15 -15 -15 -14
-22 -22 -22 -22 -22 -22 -21 -21 -21 -20 -20 -20 -20 -19 -18 -18 -19 -19 -19 -18 -13 -13 -14 -15 -15 -14 -13 -13 -13 -13 -13 -12 -13 -14 -13 -15 -14 -15 -14 -14 -14 -14 -14 -14 -14 -14 -14
-22 -22 -22 -22 -22 -21 -21 -21 -21 -21 -21 -20 -20 -20 -20 -20 -21 -21 -20 -17 -12 -14 -15 -16 -16 -16 -14 -14 -14 -13 -13 -13 -13 -14 -14 -16 -16 -16 -16 -15 -14 -14 -15 -15 -15 -15 -15
-22 -22 -22 -22 -21 -21 -21 -21 -21 -21 -21 -21 -20 -20 -20 -20 -21 -21 -20 -16 -14 -14 -16 -17 -16 -16 -15 -15 -15 -14 -14 -14 -14 -14 -14 -16 -16 -16 -16 -14 -14 -14 -14 -15 -15 -16 -16
-22 -22 -21 -21 -21 -21 -21 -21 -21 -21 -21 -21 -20 -20 -20 -21 -21 -20 -20 -18 -17 -16 -18 -19 -18 -16 -15 -17 -16 -15 -15 -15 -16 -15 -14 -16 -16 -16 -15 -16 -15 -15 -15 -15 -15 -15 -15
-21 -21 -21 -21 -21 -21 -21 -21 -21 -21 -21 -21 -21 -20 -21 -21 -20 -20 -20 -19 -18 -18 -19 -20 -19 -18 -17 -18 -18 -16 -16 -16 -16 -15 -14 -16 -16 -17 -17 -16 -16 -15 -16 -15 -15 -16 -16
-21 -21 -21 -20 -20 -20 -20 -20 -20 -21 -21 -22 -21 -21 -21 -20 -20 -20 -20 -19 -19 -19 -19 -19 -21 -20 -19 -19 -18 -17 -17 -17 -16 -15 -16 -16 -16 -16 -15 -15 -16 -15 -16 -15 -15 -15 -15
-21 -21 -20 -20 -20 -20 -20 -20 -20 -21 -21 -22 -22 -20 -20 -20 -19 -19 -20 -20 -20 -19 -20 -21 -21 -21 -20 -19 -19 -17 -18 -17 -17 -16 -17 -16 -15 -17 -17 -16 -16 -16 -15 -15 -15 -16 -16
-21 -20 -20 -20 -20 -20 -21 -21 -21 -21 -22 -23 -22 -21 -20 -20 -20 -20 -20 -21 -20 -20 -20 -20 -21 -20 -21 -19 -18 -17 -18 -17 -17 -17 -17 -17 -16 -17 -16 -15 -16 -15 -15 -16 -16 -16 -16
-20 -20 -20 -21 -21 -21 -21 -21 -21 -22 -22 -23 -23 -22 -22 -21 -21 -21 -20 -20 -20 -21 -21 -21 -21 -21 -21 -21 -19 -19 -18 -18 -17 -17 -17 -18 -18 -18 -16 -16 -17 -16 -16 -16 -16 -16 -16
-21 -21 -21 -21 -21 -21 -22 -22 -22 -22 -23 -24 -24 -23 -24 -22 -22 -21 -21 -21 -21 -21 -21 -21 -21 -22 -20 -21 -20 -18 -18 -18 -17 -17 -17 -17 -19 -18 -17 -17 -16 -15 -16 -16 -16 -16 -16
-23 -24 -24 -25 -25 -25 -26 -26 -25 -25 -25 -24 -24 -25 -25 -24 -22 -22 -22 -22 -22 -22 -21 -22 -22 -21 -21 -22 -20 -19 -18 -18 -17 -18 -18 -18 -18 -17 -17 -17 -16 -16 -16 -15 -15 -16 -16
-25 -25 -25 -26 -26 -26 -26 -26 -26 -25 -26 -24 -25 -24 -25 -25 -24 -24 -23 -23 -22 -22 -22 -22 -21 -22 -24 -23 -21 -20 -19 -18 -19 -18 -17 -17 -17 -17 -17 -17 -16 -15 -16 -16 -16 -15 -16
-26 -26 -26 -26 -26 -26 -26 -26 -26 -26 -26 -26 -25 -25 -25 -25 -25 -25 -24 -23 -23 -23 -23 -23 -22 -23 -24 -22 -20 -20 -20 -19 -19 -19 -18 -18 -17 -17 -17 -17 -16 -15 -16 -17 -16 -15 -17
-28 -28 -28 -28 -28 -28 -28 -28 -28 -27 -27 -26 -25 -25 -25 -25 -25 -25 -24 -24 -24 -24 -23 -22 -23 -24 -21 -21 -20 -19 -20 -20 -20 -20 -18 -18 -17 -17 -17 -17 -16 -16 -17 -17 -16 -17 -17
-28 -28 -28 -28 -28 -28 -28 -28 -28 -27 -27 -27 -25 -25 -25 -25 -25 -25 -24 -24 -24 -24 -23 -24 -22 -23 -21 -21 -21 -20 -20 -21 -21 -21 -19 -18 -17 -17 -17 -17 -16 -17 -17 -18 -18 -18 -18

GFSGBSN_500_temp_051.txt.gz
Temp
-13 -13 -13 -13 -13 -13 -13 -13 -13 -13 -13 -13 -13 -12 -12 -13 -13 -12 -12 -12 -12 -12 -12 -11 -11 -11 -12 -12 -13 -12 -12 -12 -12 -12 -12 -12 -12 -12 -12 -11 -12 -14 -16 -15 -14 -15 -15
-14 -14 -14 -13 -13 -13 -13 -13 -14 -13 -13 -13 -13 -13 -13 -13 -13 -13 -12 -12 -12 -12 -12 -11 -11 -11 -12 -12 -12 -13 -13 -13 -13 -13 -13 -13 -13 -12 -12 -12 -12 -14 -14 -14 -15 -15 -15
-15 -14 -14 -14 -13 -13 -13 -13 -13 -14 -14 -14 -13 -13 -13 -13 -13 -13 -13 -12 -12 -12 -12 -12 -11 -11 -12 -13 -12 -12 -13 -13 -13 -13 -13 -13 -13 -12 -12 -12 -13 -13 -13 -14 -14 -15 -14
-15 -15 -15 -14 -14 -14 -13 -13 -13 -13 -13 -13 -13 -13 -13 -13 -13 -13 -13 -13 -13 -13 -12 -12 -11 -11 -12 -13 -12 -12 -12 -13 -13 -13 -13 -13 -13 -13 -12 -12 -13 -13 -14 -14 -14 -15 -15
-19 -18 -16 -15 -14 -14 -14 -13 -13 -13 -13 -13 -13 -13 -13 -13 -13 -13 -13 -13 -13 -13 -12 -12 -12 -11 -12 -12 -12 -12 -12 -13 -13 -12 -13 -13 -13 -13 -12 -12 -13 -14 -14 -15 -16 -15 -15
-19 -19 -18 -18 -16 -16 -14 -13 -13 -13 -14 -13 -13 -13 -13 -13 -13 -13 -13 -13 -13 -13 -12 -12 -12 -12 -12 -12 -12 -12 -12 -12 -12 -12 -12 -13 -12 -13 -12 -12 -13 -14 -15 -16 -15 -15 -15
-18 -17 -17 -18 -19 -18 -17 -16 -15 -15 -14 -15 -15 -15 -14 -14 -14 -14 -14 -14 -13 -12 -12 -12 -11 -12 -12 -12 -12 -12 -12 -12 -12 -12 -12 -12 -12 -13 -12 -13 -12 -13 -16 -16 -15 -15 -15
-18 -18 -18 -17 -17 -17 -18 -18 -18 -19 -18 -17 -16 -17 -16 -16 -16 -16 -15 -14 -14 -12 -12 -12 -12 -12 -12 -11 -12 -12 -12 -12 -12 -12 -12 -12 -13 -13 -13 -13 -12 -14 -14 -15 -16 -15 -15
-18 -18 -17 -17 -17 -17 -17 -17 -17 -18 -18 -17 -17 -17 -16 -16 -15 -15 -16 -16 -14 -13 -11 -12 -12 -12 -12 -11 -12 -12 -12 -12 -12 -12 -12 -12 -14 -13 -13 -12 -13 -14 -14 -15 -16 -16 -15
-17 -17 -17 -17 -17 -17 -17 -17 -16 -16 -16 -16 -17 -17 -17 -16 -16 -15 -15 -15 -15 -14 -13 -12 -13 -11 -12 -11 -11 -13 -12 -12 -12 -12 -13 -12 -14 -13 -12 -13 -14 -14 -14 -15 -15 -15 -16
-17 -17 -17 -17 -17 -17 -17 -17 -16 -16 -16 -16 -15 -16 -16 -15 -16 -16 -15 -15 -14 -14 -13 -14 -12 -12 -12 -11 -12 -13 -13 -13 -13 -13 -13 -13 -14 -13 -12 -13 -14 -14 -14 -15 -15 -15 -15
-19 -18 -18 -18 -17 -17 -17 -17 -17 -16 -16 -16 -15 -15 -14 -14 -15 -15 -15 -15 -15 -14 -12 -13 -12 -12 -12 -12 -12 -13 -13 -13 -13 -13 -12 -12 -13 -14 -13 -13 -14 -15 -14 -15 -14 -15 -14
-20 -20 -20 -19 -19 -19 -18 -18 -17 -17 -17 -16 -16 -15 -14 -15 -16 -15 -15 -15 -15 -14 -13 -13 -13 -13 -13 -12 -13 -13 -13 -12 -12 -12 -12 -12 -13 -13 -14 -13 -14 -15 -15 -14 -14 -14 -14
-22 -21 -21 -21 -21 -20 -20 -20 -19 -18 -18 -18 -17 -16 -15 -16 -17 -16 -16 -15 -14 -12 -13 -14 -14 -13 -13 -13 -13 -14 -13 -12 -12 -12 -13 -13 -13 -13 -14 -13 -14 -14 -14 -15 -15 -14 -14
-22 -22 -22 -22 -22 -22 -22 -21 -21 -20 -20 -20 -20 -18 -17 -19 -18 -18 -17 -15 -12 -12 -13 -15 -16 -14 -14 -13 -13 -14 -13 -13 -13 -13 -13 -13 -12 -14 -15 -14 -14 -14 -14 -15 -15 -14 -14
-23 -23 -23 -23 -23 -23 -23 -23 -22 -22 -22 -22 -21 -21 -20 -21 -20 -20 -18 -13 -12 -13 -15 -15 -15 -15 -15 -15 -14 -14 -14 -13 -13 -13 -14 -13 -13 -14 -15 -15 -14 -15 -15 -16 -16 -15 -15
-23 -23 -23 -23 -23 -23 -23 -23 -23 -22 -22 -22 -22 -21 -21 -22 -21 -21 -17 -13 -14 -15 -16 -18 -17 -16 -15 -16 -15 -15 -14 -15 -14 -14 -15 -14 -14 -15 -15 -15 -14 -15 -15 -15 -16 -16 -15
-23 -23 -23 -23 -23 -23 -23 -23 -23 -23 -23 -23 -22 -21 -21 -22 -21 -20 -19 -17 -18 -17 -18 -18 -19 -19 -17 -16 -16 -15 -15 -14 -16 -16 -14 -14 -14 -15 -14 -15 -14 -14 -15 -15 -15 -16 -16
-24 -24 -24 -23 -23 -23 -23 -23 -23 -23 -23 -23 -22 -22 -21 -22 -21 -20 -19 -19 -19 -19 -19 -19 -19 -20 -20 -18 -17 -16 -15 -15 -16 -17 -15 -15 -14 -15 -15 -15 -15 -15 -15 -15 -16 -16 -15
-23 -23 -23 -23 -22 -22 -22 -22 -22 -22 -23 -23 -22 -22 -21 -20 -20 -19 -19 -19 -19 -19 -19 -20 -19 -20 -20 -20 -19 -18 -16 -16 -16 -16 -16 -16 -15 -14 -14 -15 -15 -15 -14 -15 -15 -16 -15
-22 -22 -22 -22 -22 -22 -22 -22 -22 -22 -22 -23 -23 -21 -21 -20 -19 -20 -20 -19 -20 -19 -19 -20 -20 -20 -19 -21 -20 -19 -18 -16 -17 -16 -17 -16 -15 -15 -15 -16 -16 -16 -15 -15 -15 -15 -15
-22 -22 -22 -22 -22 -22 -22 -22 -22 -22 -22 -23 -22 -21 -20 -20 -20 -20 -20 -19 -20 -20 -20 -20 -20 -20 -21 -20 -20 -20 -20 -18 -16 -17 -17 -17 -16 -16 -15 -16 -16 -16 -16 -16 -16 -16 -16
-22 -22 -22 -21 -21 -21 -21 -21 -21 -22 -22 -23 -22 -21 -21 -20 -21 -20 -19 -19 -19 -20 -20 -20 -20 -21 -21 -20 -21 -21 -20 -19 -17 -17 -17 -17 -16 -17 -15 -17 -17 -16 -15 -15 -15 -16 -16
-22 -21 -21 -21 -21 -21 -21 -21 -21 -22 -22 -23 -22 -22 -22 -20 -21 -19 -20 -20 -20 -20 -20 -21 -20 -21 -19 -22 -22 -22 -21 -20 -18 -17 -17 -17 -16 -17 -16 -17 -16 -15 -15 -15 -15 -16 -16
-21 -21 -22 -22 -22 -22 -22 -21 -21 -21 -22 -23 -23 -23 -23 -22 -20 -21 -20 -20 -20 -21 -21 -21 -21 -20 -22 -22 -23 -22 -21 -19 -18 -17 -17 -16 -17 -18 -17 -17 -15 -15 -15 -16 -16 -15 -16
-23 -23 -23 -23 -22 -22 -22 -22 -22 -22 -22 -23 -24 -25 -24 -24 -22 -21 -21 -21 -22 -21 -21 -21 -21 -21 -22 -22 -22 -22 -21 -19 -19 -17 -18 -17 -17 -18 -17 -17 -15 -14 -16 -17 -17 -15 -16
-25 -26 -25 -25 -25 -25 -25 -25 -25 -25 -25 -25 -26 -26 -25 -25 -24 -23 -23 -22 -22 -22 -22 -21 -22 -22 -23 -22 -21 -21 -21 -20 -20 -20 -18 -17 -17 -17 -17 -17 -15 -15 -16 -17 -17 -14 -16
-26 -26 -26 -26 -26 -26 -26 -26 -25 -25 -25 -26 -26 -26 -25 -25 -24 -24 -24 -23 -23 -23 -22 -22 -23 -23 -23 -22 -22 -21 -21 -21 -20 -19 -18 -18 -18 -18 -18 -17 -16 -17 -17 -17 -16 -16 -17
-27 -28 -28 -28 -28 -28 -28 -28 -27 -26 -26 -26 -26 -26 -25 -26 -25 -25 -25 -24 -24 -24 -24 -23 -23 -23 -23 -22 -21 -21 -21 -20 -19 -19 -20 -20 -19 -18 -18 -17 -17 -17 -17 -17 -16 -17 -18

GFSGBSN_500_temp_054.txt.gz
Temp
-14 -14 -14 -14 -14 -14 -14 -14 -14 -14 -14 -14 -14 -14 -13 -13 -13 -12 -12 -12 -12 -12 -12 -12 -12 -11 -11 -11 -12 -11 -12 -12 -13 -13 -12 -13 -13 -13 -13 -12 -12 -12 -12 -12 -15 -15 -15
-15 -15 -15 -15 -14 -14 -14 -14 -14 -14 -13 -14 -14 -14 -14 -13 -13 -13 -13 -12 -12 -12 -12 -12 -12 -12 -11 -12 -12 -12 -12 -12 -12 -13 -12 -13 -13 -13 -13 -13 -12 -12 -12 -13 -15 -15 -15
-16 -16 -16 -15 -15 -14 -15 -14 -14 -14 -14 -13 -14 -14 -14 -14 -13 -13 -13 -13 -12 -12 -12 -12 -12 -12 -11 -13 -12 -11 -12 -12 -13 -12 -13 -13 -13 -13 -13 -13 -12 -12 -13 -14 -15 -15 -14
-16 -16 -16 -17 -17 -16 -15 -14 -14 -14 -14 -14 -13 -14 -14 -14 -13 -13 -14 -13 -13 -12 -12 -12 -12 -11 -12 -12 -12 -12 -12 -12 -12 -13 -13 -13 -13 -13 -13 -13 -12 -13 -14 -15 -15 -14 -14
-16 -16 -16 -17 -17 -18 -18 -17 -16 -15 -14 -14 -14 -13 -13 -13 -14 -14 -14 -14 -13 -12 -12 -12 -12 -12 -12 -12 -12 -12 -12 -13 -12 -12 -13 -12 -12 -13 -13 -13 -13 -13 -14 -15 -15 -14 -15
-17 -17 -17 -17 -17 -17 -18 -19 -18 -17 -15 -14 -14 -14 -14 -13 -13 -13 -14 -14 -13 -13 -12 -12 -12 -12 -12 -12 -12 -12 -12 -12 -12 -12 -12 -12 -12 -12 -13 -13 -13 -13 -14 -15 -14 -14 -15
-17 -17 -17 -17 -17 -17 -17 -18 -18 -18 -17 -16 -15 -14 -13 -13 -13 -14 -14 -14 -13 -13 -12 -12 -12 -12 -12 -12 -12 -12 -12 -12 -12 -11 -12 -13 -12 -13 -14 -13 -13 -13 -13 -14 -15 -16 -15
-17 -17 -17 -17 -17 -17 -17 -18 -17 -18 -18 -18 -17 -16 -15 -14 -16 -15 -14 -14 -13 -12 -12 -12 -12 -12 -13 -12 -12 -12 -12 -12 -12 -12 -12 -12 -13 -13 -13 -13 -13 -13 -13 -14 -15 -16 -16
-17 -17 -17 -17 -17 -17 -17 -17 -18 -17 -18 -18 -18 -18 -18 -17 -17 -18 -17 -17 -14 -12 -12 -13 -13 -12 -13 -12 -12 -12 -12 -12 -12 -12 -12 -12 -14 -12 -13 -13 -13 -13 -13 -14 -16 -16 -16
-17 -17 -17 -17 -17 -17 -17 -17 -17 -17 -17 -17 -17 -17 -17 -19 -18 -18 -19 -18 -15 -13 -12 -13 -14 -13 -13 -12 -11 -13 -12 -12 -12 -12 -12 -12 -13 -13 -13 -12 -13 -13 -12 -14 -15 -16 -16
-18 -18 -18 -18 -18 -18 -17 -17 -17 -17 -17 -17 -17 -16 -17 -18 -18 -19 -17 -18 -17 -16 -13 -14 -13 -13 -13 -13 -13 -13 -13 -13 -13 -13 -12 -12 -14 -13 -13 -13 -14 -13 -13 -14 -14 -14 -15
-20 -20 -20 -19 -19 -19 -18 -18 -17 -18 -18 -17 -17 -16 -16 -17 -17 -17 -17 -17 -17 -16 -13 -14 -13 -13 -13 -13 -13 -13 -12 -13 -13 -13 -12 -12 -13 -13 -13 -13 -13 -13 -13 -14 -14 -14 -14
-22 -21 -21 -21 -20 -20 -20 -19 -18 -18 -18 -18 -17 -17 -16 -17 -17 -16 -17 -17 -16 -15 -14 -14 -14 -14 -14 -14 -14 -13 -13 -12 -12 -12 -12 -12 -12 -13 -13 -12 -13 -13 -13 -14 -14 -14 -14
-23 -23 -23 -22 -22 -21 -21 -20 -20 -19 -19 -18 -18 -17 -17 -18 -16 -16 -16 -16 -15 -14 -15 -15 -15 -14 -14 -14 -14 -14 -13 -13 -12 -13 -13 -13 -13 -13 -13 -13 -13 -13 -14 -13 -14 -14 -15
-24 -24 -24 -23 -23 -22 -22 -22 -21 -21 -20 -20 -19 -18 -18 -19 -17 -17 -16 -15 -14 -14 -14 -16 -15 -14 -14 -14 -14 -14 -13 -13 -13 -13 -13 -13 -13 -14 -14 -14 -14 -14 -14 -14 -15 -14 -14
-25 -25 -24 -24 -24 -23 -23 -23 -22 -22 -22 -22 -21 -20 -21 -20 -18 -18 -16 -14 -13 -13 -15 -16 -14 -15 -15 -15 -15 -14 -14 -13 -13 -14 -13 -14 -13 -14 -15 -15 -14 -15 -15 -14 -15 -14 -14
-25 -25 -25 -24 -24 -24 -24 -23 -23 -23 -23 -23 -23 -22 -22 -22 -20 -18 -14 -14 -14 -15 -17 -18 -17 -17 -17 -17 -16 -14 -13 -14 -14 -15 -14 -14 -14 -14 -15 -14 -14 -15 -14 -14 -15 -14 -14
-25 -25 -25 -25 -25 -24 -24 -24 -24 -24 -24 -24 -24 -23 -23 -23 -22 -19 -15 -17 -17 -18 -19 -18 -17 -17 -19 -18 -17 -16 -15 -14 -15 -14 -14 -14 -14 -14 -13 -14 -15 -14 -14 -15 -15 -14 -13
-25 -25 -25 -24 -24 -24 -24 -23 -24 -24 -24 -24 -24 -23 -23 -23 -22 -20 -20 -20 -19 -19 -20 -19 -18 -18 -19 -19 -18 -18 -17 -16 -15 -15 -14 -15 -13 -14 -15 -15 -15 -15 -14 -14 -15 -15 -14
-24 -25 -25 -25 -25 -25 -24 -23 -23 -24 -24 -24 -24 -23 -22 -22 -21 -21 -21 -20 -20 -20 -20 -20 -20 -19 -20 -19 -20 -19 -19 -17 -16 -16 -15 -15 -13 -13 -13 -14 -15 -15 -14 -14 -16 -15 -14
-24 -24 -24 -24 -24 -24 -24 -24 -23 -24 -24 -24 -23 -22 -21 -21 -21 -21 -21 -20 -20 -20 -20 -20 -20 -20 -20 -20 -20 -17 -20 -19 -18 -17 -17 -17 -14 -14 -14 -15 -16 -16 -15 -15 -15 -15 -15
-23 -23 -23 -23 -23 -23 -23 -23 -23 -23 -23 -24 -23 -22 -21 -21 -21 -21 -21 -20 -20 -20 -20 -20 -20 -21 -20 -19 -20 -20 -20 -20 -19 -17 -17 -17 -16 -15 -15 -16 -16 -16 -15 -15 -15 -16 -15
-23 -23 -23 -23 -23 -23 -23 -23 -23 -23 -23 -23 -23 -22 -22 -21 -21 -21 -20 -20 -20 -20 -20 -20 -20 -21 -20 -20 -21 -21 -21 -20 -19 -18 -17 -17 -16 -16 -14 -16 -16 -16 -15 -15 -15 -15 -15
-22 -22 -22 -22 -22 -22 -22 -23 -23 -23 -23 -23 -23 -23 -22 -21 -21 -20 -20 -21 -21 -21 -20 -20 -20 -20 -22 -22 -21 -21 -21 -21 -20 -19 -18 -17 -17 -16 -15 -17 -17 -12 -15 -15 -15 -15 -16
-22 -22 -22 -22 -22 -22 -22 -22 -22 -22 -23 -23 -23 -22 -21 -21 -20 -21 -21 -21 -21 -20 -20 -20 -20 -20 -21 -21 -21 -21 -20 -20 -20 -20 -19 -17 -18 -17 -17 -17 -16 -15 -14 -16 -16 -16 -16
-22 -22 -22 -22 -22 -22 -22 -22 -22 -22 -22 -23 -23 -23 -22 -21 -20 -21 -21 -21 -21 -21 -21 -20 -21 -21 -21 -22 -21 -20 -20 -20 -20 -20 -19 -19 -19 -18 -17 -18 -17 -13 -16 -16 -17 -16 -16
-23 -23 -23 -23 -23 -23 -22 -23 -23 -23 -23 -24 -24 -24 -24 -23 -22 -21 -21 -21 -21 -21 -21 -21 -22 -22 -22 -21 -21 -20 -20 -20 -20 -19 -20 -19 -19 -18 -18 -18 -17 -17 -17 -17 -17 -14 -17
-26 -26 -26 -25 -25 -24 -24 -24 -23 -24 -24 -24 -24 -24 -24 -24 -22 -22 -21 -21 -21 -22 -21 -21 -22 -21 -22 -21 -21 -21 -20 -20 -20 -20 -20 -20 -20 -19 -18 -18 -17 -17 -18 -18 -16 -16 -17
-26 -26 -26 -26 -26 -26 -26 -26 -26 -25 -25 -26 -26 -26 -25 -26 -25 -24 -23 -22 -22 -23 -23 -23 -22 -23 -22 -22 -22 -21 -21 -21 -21 -21 -20 -20 -19 -19 -19 -18 -18 -18 -18 -18 -17 -18 -18

GFSGBSN_500_temp_057.txt.gz
Temp
-14 -14 -14 -14 -14 -15 -15 -15 -14 -14 -14 -14 -14 -14 -14 -14 -14 -14 -13 -13 -13 -12 -12 -12 -11 -11 -11 -11 -13 -11 -12 -12 -12 -12 -13 -13 -13 -13 -13 -13 -13 -12 -13 -13 -14 -14 -14
-15 -15 -15 -15 -15 -15 -15 -15 -15 -15 -15 -15 -15 -14 -14 -13 -14 -14 -14 -13 -13 -13 -12 -12 -11 -12 -11 -12 -12 -11 -12 -12 -12 -13 -13 -13 -13 -13 -13 -13 -13 -12 -13 -14 -13 -14 -14
-16 -16 -16 -16 -16 -16 -16 -16 -16 -15 -15 -14 -14 -15 -14 -14 -14 -14 -14 -14 -13 -13 -12 -12 -12 -11 -12 -12 -12 -12 -12 -13 -12 -13 -13 -13 -13 -13 -13 -14 -13 -13 -14 -14 -13 -14 -14
-17 -16 -16 -16 -16 -16 -16 -16 -16 -16 -16 -15 -15 -14 -14 -14 -14 -14 -14 -14 -14 -13 -13 -12 -12 -12 -12 -12 -12 -12 -13 -12 -12 -13 -13 -12 -13 -13 -13 -14 -14 -13 -14 -14 -14 -15 -14
-17 -17 -17 -17 -16 -16 -16 -16 -16 -16 -17 -17 -16 -15 -14 -14 -14 -14 -14 -14 -13 -13 -13 -12 -12 -12 -12 -12 -12 -12 -12 -13 -13 -12 -13 -12 -12 -13 -13 -13 -13 -13 -14 -14 -15 -14 -14
-17 -17 -17 -17 -16 -16 -16 -17 -16 -17 -17 -17 -18 -17 -15 -14 -14 -14 -14 -14 -14 -13 -13 -12 -12 -12 -13 -12 -12 -12 -12 -13 -13 -13 -12 -12 -12 -12 -13 -14 -14 -13 -13 -14 -15 -15 -15
-17 -17 -17 -17 -17 -17 -17 -17 -17 -17 -17 -17 -18 -18 -18 -15 -14 -14 -14 -14 -14 -13 -13 -13 -13 -13 -13 -12 -12 -12 -12 -13 -13 -12 -12 -13 -12 -13 -14 -13 -13 -13 -12 -13 -15 -15 -14
-17 -17 -17 -17 -17 -17 -17 -17 -17 -17 -17 -17 -18 -18 -18 -18 -16 -15 -15 -14 -13 -12 -12 -13 -13 -13 -13 -13 -12 -12 -13 -13 -13 -12 -13 -12 -12 -14 -13 -12 -13 -13 -12 -13 -15 -16 -15
-17 -17 -17 -17 -17 -17 -17 -17 -17 -17 -17 -17 -17 -17 -18 -19 -19 -17 -16 -14 -14 -12 -12 -13 -13 -13 -14 -13 -12 -12 -12 -13 -13 -13 -12 -12 -13 -13 -12 -12 -13 -13 -12 -14 -14 -15 -15
-17 -17 -17 -17 -17 -17 -17 -17 -17 -17 -17 -17 -17 -17 -18 -18 -19 -18 -18 -16 -14 -14 -13 -13 -14 -13 -13 -13 -12 -13 -12 -13 -13 -13 -13 -12 -13 -14 -13 -13 -13 -13 -14 -13 -14 -13 -14
-18 -18 -18 -18 -18 -18 -19 -19 -18 -18 -18 -17 -17 -17 -17 -18 -18 -19 -18 -19 -17 -15 -14 -14 -14 -14 -13 -13 -14 -14 -13 -13 -13 -13 -13 -12 -13 -14 -13 -13 -14 -14 -14 -13 -13 -13 -13
-18 -19 -19 -20 -20 -20 -20 -20 -20 -19 -19 -18 -17 -17 -17 -18 -18 -18 -18 -18 -18 -17 -14 -15 -14 -14 -15 -14 -14 -13 -13 -13 -14 -13 -13 -13 -14 -14 -13 -14 -13 -15 -14 -14 -13 -13 -12
-21 -21 -21 -22 -22 -22 -22 -21 -21 -21 -20 -19 -18 -17 -18 -18 -18 -17 -18 -18 -18 -15 -15 -16 -15 -15 -15 -15 -14 -14 -13 -12 -13 -13 -12 -13 -13 -14 -13 -13 -14 -13 -14 -13 -13 -12 -12
-22 -22 -22 -22 -23 -23 -23 -23 -22 -22 -22 -21 -19 -18 -18 -19 -18 -17 -18 -17 -17 -15 -17 -17 -15 -15 -15 -15 -15 -14 -14 -13 -13 -14 -14 -14 -13 -14 -13 -13 -14 -14 -15 -13 -13 -12 -13
-23 -23 -23 -23 -23 -24 -24 -24 -23 -23 -23 -22 -21 -19 -20 -20 -18 -18 -17 -16 -15 -16 -16 -17 -17 -16 -15 -15 -15 -15 -14 -14 -14 -14 -14 -14 -13 -14 -14 -14 -14 -14 -14 -14 -14 -13 -13
-23 -23 -23 -23 -24 -25 -25 -25 -25 -24 -23 -23 -22 -21 -22 -21 -19 -19 -17 -15 -15 -16 -17 -17 -17 -16 -16 -16 -15 -15 -14 -14 -14 -14 -15 -15 -14 -15 -15 -15 -15 -14 -15 -15 -14 -14 -13
-23 -23 -24 -25 -26 -26 -26 -26 -25 -24 -24 -24 -24 -22 -23 -22 -21 -19 -16 -15 -16 -17 -18 -18 -18 -17 -17 -16 -15 -15 -15 -14 -14 -15 -14 -14 -15 -15 -15 -15 -15 -15 -14 -14 -14 -14 -13
-24 -25 -25 -25 -26 -26 -26 -26 -26 -25 -25 -25 -24 -23 -24 -23 -21 -19 -17 -17 -18 -20 -19 -19 -18 -19 -18 -17 -17 -16 -16 -15 -15 -14 -14 -14 -14 -14 -14 -15 -15 -15 -15 -15 -15 -14 -13
-25 -25 -25 -25 -26 -26 -26 -26 -26 -26 -25 -25 -25 -24 -24 -24 -21 -20 -20 -21 -20 -20 -20 -20 -19 -19 -19 -18 -18 -17 -17 -17 -16 -16 -15 -14 -13 -13 -14 -15 -15 -15 -14 -14 -15 -14 -13
-24 -24 -24 -24 -25 -25 -25 -25 -25 -25 -25 -25 -25 -25 -25 -24 -22 -22 -22 -22 -21 -21 -21 -20 -19 -19 -19 -19 -19 -19 -19 -19 -17 -17 -16 -15 -15 -14 -13 -14 -15 -15 -15 -14 -14 -14 -14
-24 -24 -25 -25 -25 -25 -25 -25 -25 -26 -26 -26 -25 -25 -24 -23 -23 -23 -23 -22 -22 -22 -22 -22 -21 -20 -20 -19 -19 -20 -19 -19 -19 -18 -18 -17 -16 -15 -14 -14 -15 -15 -15 -15 -14 -14 -14
-24 -24 -25 -25 -25 -25 -25 -25 -26 -26 -27 -26 -24 -24 -24 -23 -23 -23 -23 -22 -22 -22 -22 -22 -21 -21 -21 -20 -20 -20 -20 -19 -19 -19 -18 -18 -17 -16 -15 -15 -16 -15 -14 -14 -14 -14 -15
-24 -24 -24 -24 -24 -24 -24 -25 -25 -26 -26 -24 -24 -24 -23 -23 -23 -23 -22 -22 -22 -23 -22 -22 -22 -22 -21 -21 -21 -20 -20 -20 -19 -19 -19 -18 -18 -18 -16 -17 -16 -15 -13 -15 -15 -14 -14
-23 -23 -23 -23 -23 -24 -24 -24 -24 -24 -24 -24 -23 -23 -23 -22 -22 -22 -22 -22 -22 -22 -22 -23 -22 -22 -22 -21 -21 -21 -20 -20 -20 -20 -19 -19 -18 -18 -18 -18 -17 -14 -15 -15 -16 -15 -15
-23 -23 -23 -23 -23 -23 -23 -23 -24 -24 -24 -24 -24 -23 -23 -22 -22 -22 -22 -22 -22 -22 -22 -22 -22 -22 -22 -21 -21 -20 -20 -20 -20 -20 -20 -20 -18 -18 -18 -17 -17 -16 -16 -16 -16 -16 -16
-23 -23 -23 -23 -23 -23 -23 -23 -23 -23 -23 -23 -23 -23 -23 -23 -21 -22 -22 -22 -22 -22 -22 -22 -23 -22 -22 -21 -21 -20 -20 -20 -20 -20 -20 -20 -19 -19 -18 -18 -18 -16 -17 -18 -17 -16 -17
-23 -23 -23 -23 -23 -23 -23 -23 -23 -23 -23 -23 -23 -23 -23 -22 -22 -22 -21 -21 -22 -22 -22 -23 -23 -22 -22 -21 -21 -20 -20 -20 -20 -20 -20 -20 -20 -19 -20 -20 -18 -17 -18 -18 -18 -15 -17
-25 -25 -24 -23 -23 -23 -22 -23 -23 -23 -23 -23 -22 -23 -22 -22 -22 -22 -21 -21 -21 -22 -22 -23 -22 -22 -21 -21 -21 -21 -20 -20 -20 -20 -20 -20 -20 -20 -19 -19 -18 -18 -18 -18 -18 -17 -18
-26 -27 -27 -26 -26 -24 -23 -23 -23 -23 -23 -23 -23 -23 -23 -22 -22 -22 -22 -21 -22 -22 -23 -23 -23 -23 -22 -21 -21 -21 -21 -20 -20 -20 -20 -20 -20 -21 -21 -20 -18 -17 -18 -17 -17 -17 -18

GFSGBSN_500_temp_060.txt.gz
Temp
-13 -13 -13 -13 -13 -14 -14 -14 -14 -14 -14 -14 -14 -14 -14 -14 -15 -15 -15 -14 -14 -14 -14 -13 -12 -12 -12 -12 -13 -11 -12 -12 -12 -12 -12 -13 -13 -13 -13 -13 -13 -13 -13 -13 -13 -13 -13
-13 -14 -14 -15 -15 -15 -15 -15 -15 -15 -15 -15 -15 -15 -15 -14 -14 -15 -15 -14 -14 -14 -14 -13 -13 -12 -12 -13 -12 -12 -12 -12 -12 -12 -13 -13 -13 -13 -13 -13 -13 -13 -13 -13 -13 -13 -13
-15 -15 -16 -16 -16 -16 -16 -16 -16 -16 -16 -16 -16 -16 -15 -15 -15 -14 -15 -15 -14 -14 -14 -14 -13 -13 -12 -14 -12 -12 -12 -13 -13 -12 -13 -13 -13 -13 -13 -13 -14 -14 -13 -13 -13 -13 -14
-16 -17 -17 -17 -17 -17 -16 -16 -16 -16 -16 -16 -16 -16 -16 -16 -15 -14 -14 -14 -15 -14 -14 -14 -13 -13 -12 -14 -13 -13 -13 -12 -13 -12 -13 -12 -12 -12 -13 -13 -14 -14 -14 -13 -13 -13 -14
-17 -17 -17 -17 -17 -17 -16 -16 -16 -16 -16 -16 -16 -16 -16 -17 -17 -15 -15 -15 -14 -14 -14 -14 -14 -13 -13 -14 -13 -13 -13 -13 -13 -13 -13 -13 -12 -12 -13 -13 -14 -14 -14 -13 -12 -13 -13
-18 -18 -17 -17 -17 -17 -17 -17 -17 -16 -16 -16 -16 -16 -17 -17 -18 -18 -16 -15 -14 -14 -14 -14 -14 -13 -13 -14 -14 -13 -13 -13 -13 -13 -13 -12 -12 -12 -13 -14 -14 -14 -14 -13 -12 -13 -14
-18 -18 -18 -18 -17 -17 -17 -17 -17 -17 -17 -17 -16 -17 -17 -17 -18 -18 -18 -15 -15 -14 -14 -14 -14 -13 -14 -14 -14 -14 -13 -13 -13 -13 -12 -12 -12 -12 -14 -13 -13 -13 -13 -13 -13 -14 -14
-18 -18 -18 -18 -18 -18 -17 -17 -17 -17 -17 -17 -17 -17 -17 -17 -18 -17 -18 -17 -15 -14 -14 -14 -14 -13 -14 -13 -14 -14 -14 -13 -13 -13 -13 -13 -12 -13 -14 -13 -13 -12 -13 -13 -14 -14 -13
-19 -18 -18 -18 -18 -18 -17 -17 -17 -17 -16 -16 -16 -17 -17 -17 -17 -18 -18 -18 -17 -15 -14 -14 -14 -13 -14 -13 -14 -14 -14 -13 -13 -13 -13 -13 -12 -14 -14 -14 -13 -13 -12 -13 -14 -14 -13
-19 -19 -19 -18 -18 -18 -18 -17 -17 -17 -17 -17 -17 -17 -17 -17 -17 -18 -17 -18 -18 -16 -15 -14 -15 -14 -14 -13 -13 -14 -14 -14 -13 -13 -13 -13 -13 -13 -13 -13 -13 -13 -14 -14 -14 -13 -13
-19 -19 -19 -19 -18 -18 -18 -18 -17 -17 -18 -18 -18 -18 -17 -18 -18 -18 -17 -18 -18 -19 -15 -16 -15 -15 -15 -14 -14 -14 -14 -14 -13 -14 -13 -13 -13 -13 -14 -14 -14 -14 -16 -15 -14 -13 -12
-19 -19 -19 -19 -19 -19 -19 -19 -18 -18 -19 -19 -19 -19 -19 -18 -18 -17 -18 -18 -17 -18 -17 -17 -16 -16 -16 -15 -15 -15 -14 -14 -14 -14 -13 -14 -13 -14 -14 -14 -14 -14 -14 -14 -14 -14 -12
-20 -20 -20 -20 -20 -20 -20 -20 -20 -20 -20 -21 -20 -20 -20 -19 -19 -17 -18 -18 -18 -17 -18 -18 -17 -17 -16 -16 -15 -16 -15 -14 -14 -14 -13 -14 -13 -13 -14 -14 -14 -13 -14 -14 -14 -13 -12
-21 -21 -21 -21 -21 -21 -21 -21 -21 -21 -21 -22 -21 -21 -21 -21 -20 -19 -19 -18 -17 -16 -18 -19 -18 -18 -18 -17 -17 -16 -16 -15 -14 -15 -14 -14 -13 -13 -14 -14 -14 -14 -14 -14 -14 -14 -14
-22 -22 -21 -22 -22 -22 -22 -22 -22 -22 -23 -23 -22 -22 -22 -22 -21 -20 -19 -18 -17 -17 -17 -18 -19 -19 -18 -17 -17 -17 -16 -16 -14 -15 -15 -15 -14 -14 -14 -15 -15 -15 -14 -14 -15 -15 -14
-22 -22 -22 -22 -23 -23 -23 -23 -23 -23 -24 -25 -24 -24 -23 -23 -22 -21 -20 -18 -18 -18 -18 -19 -19 -19 -19 -18 -17 -16 -17 -16 -16 -15 -15 -15 -15 -15 -15 -15 -15 -15 -15 -15 -14 -14 -13
-23 -23 -23 -23 -24 -23 -23 -23 -24 -25 -25 -26 -26 -25 -24 -24 -23 -22 -20 -18 -18 -19 -19 -19 -19 -19 -19 -19 -18 -18 -16 -16 -17 -16 -15 -16 -15 -15 -15 -15 -15 -15 -15 -14 -14 -14 -13
-24 -23 -24 -24 -24 -23 -24 -25 -25 -25 -26 -26 -26 -26 -25 -25 -24 -23 -21 -20 -21 -21 -20 -20 -20 -20 -19 -20 -19 -19 -17 -16 -16 -17 -15 -15 -15 -15 -15 -16 -16 -15 -15 -16 -16 -15 -14
-24 -24 -24 -24 -24 -24 -25 -25 -26 -26 -26 -27 -26 -26 -26 -26 -25 -23 -22 -22 -22 -22 -21 -20 -20 -20 -20 -20 -20 -19 -20 -18 -16 -16 -16 -16 -15 -15 -15 -15 -15 -15 -15 -14 -15 -14 -13
-24 -25 -24 -24 -24 -25 -25 -25 -25 -26 -26 -27 -27 -26 -26 -26 -25 -24 -24 -24 -23 -23 -22 -21 -20 -21 -21 -21 -21 -20 -19 -19 -18 -17 -16 -16 -15 -15 -15 -15 -15 -14 -14 -14 -14 -13 -13
-25 -24 -24 -24 -25 -24 -24 -25 -25 -25 -26 -26 -26 -26 -26 -26 -25 -25 -24 -24 -24 -23 -23 -23 -22 -21 -21 -21 -21 -21 -20 -19 -18 -18 -17 -17 -16 -15 -15 -15 -15 -14 -14 -15 -14 -14 -14
-25 -25 -25 -25 -25 -25 -26 -26 -26 -26 -27 -27 -26 -25 -26 -25 -25 -25 -25 -24 -24 -24 -23 -23 -23 -23 -22 -21 -21 -21 -20 -19 -19 -18 -18 -17 -17 -16 -16 -16 -15 -15 -15 -15 -15 -14 -13
-25 -25 -25 -25 -25 -25 -26 -26 -26 -27 -27 -26 -25 -25 -26 -25 -25 -25 -24 -24 -24 -24 -24 -23 -23 -23 -23 -22 -20 -21 -20 -20 -19 -19 -18 -18 -18 -17 -17 -16 -16 -16 -16 -16 -16 -16 -15
-25 -25 -25 -24 -24 -25 -25 -25 -25 -26 -26 -26 -26 -25 -25 -24 -25 -24 -24 -24 -24 -24 -23 -23 -23 -23 -23 -22 -21 -20 -20 -20 -20 -20 -19 -19 -19 -18 -18 -18 -17 -17 -16 -16 -16 -16 -16
-25 -24 -24 -24 -24 -24 -24 -24 -25 -25 -25 -25 -26 -25 -25 -24 -24 -24 -24 -24 -24 -23 -23 -23 -23 -23 -23 -22 -22 -21 -21 -20 -20 -20 -19 -19 -19 -19 -19 -19 -17 -18 -18 -17 -16 -16 -17
-24 -24 -24 -24 -24 -24 -24 -24 -24 -24 -25 -25 -25 -24 -24 -24 -24 -24 -24 -24 -24 -23 -23 -23 -24 -23 -22 -22 -22 -21 -21 -20 -20 -20 -20 -20 -20 -20 -19 -19 -18 -18 -18 -18 -17 -15 -17
-24 -24 -24 -24 -23 -23 -23 -23 -24 -24 -24 -24 -24 -24 -24 -24 -24 -24 -24 -24 -24 -23 -23 -24 -24 -23 -22 -22 -21 -21 -21 -21 -20 -20 -20 -20 -20 -20 -20 -20 -19 -18 -18 -18 -18 -17 -17
-25 -25 -25 -24 -23 -23 -23 -23 -23 -23 -24 -24 -24 -24 -24 -24 -23 -24 -24 -23 -23 -23 -23 -23 -23 -22 -22 -22 -21 -21 -21 -21 -21 -20 -20 -20 -20 -20 -21 -21 -19 -19 -19 -19 -19 -18 -18
-25 -25 -25 -25 -25 -24 -24 -23 -23 -23 -23 -23 -23 -24 -24 -24 -23 -23 -24 -23 -23 -23 -23 -23 -23 -22 -22 -22 -21 -21 -21 -21 -21 -21 -21 -21 -21 -21 -21 -20 -20 -19 -20 -20 -19 -19 -18

GFSGBSN_500_temp_063.txt.gz
Temp
-12 -12 -12 -12 -12 -12 -12 -12 -13 -13 -14 -14 -14 -15 -14 -15 -14 -14 -14 -14 -14 -14 -15 -14 -13 -14 -13 -13 -14 -13 -13 -13 -13 -12 -13 -12 -12 -12 -12 -12 -12 -13 -14 -13 -13 -13 -13
-13 -12 -12 -13 -13 -13 -13 -14 -14 -15 -15 -15 -15 -15 -15 -15 -15 -15 -15 -15 -15 -15 -15 -15 -14 -14 -14 -14 -15 -14 -13 -13 -13 -13 -13 -13 -12 -12 -12 -13 -13 -13 -13 -13 -13 -13 -13
-14 -14 -13 -13 -14 -14 -14 -15 -16 -16 -16 -16 -16 -16 -16 -15 -15 -15 -15 -15 -15 -14 -14 -15 -14 -14 -14 -15 -14 -14 -14 -13 -13 -13 -13 -13 -12 -12 -12 -13 -13 -13 -13 -13 -14 -13 -13
-15 -14 -14 -15 -15 -15 -16 -16 -16 -17 -16 -16 -16 -16 -16 -16 -15 -15 -15 -15 -15 -15 -14 -14 -14 -14 -14 -14 -14 -14 -14 -14 -14 -13 -13 -13 -12 -12 -12 -13 -13 -13 -13 -13 -13 -12 -13
-16 -16 -15 -16 -16 -16 -17 -17 -17 -17 -17 -16 -16 -16 -16 -16 -16 -16 -16 -16 -15 -15 -15 -14 -14 -14 -14 -14 -14 -14 -14 -14 -14 -14 -13 -13 -12 -12 -12 -13 -13 -14 -14 -13 -12 -12 -13
-17 -17 -17 -17 -17 -18 -18 -17 -17 -17 -17 -17 -17 -16 -16 -16 -16 -16 -16 -16 -16 -15 -16 -15 -14 -15 -14 -14 -14 -14 -14 -14 -14 -14 -14 -13 -12 -12 -12 -13 -14 -14 -13 -12 -12 -12 -13
-18 -17 -17 -18 -18 -18 -18 -18 -17 -17 -17 -17 -17 -17 -16 -16 -16 -16 -16 -16 -16 -16 -17 -16 -15 -15 -15 -14 -14 -14 -14 -14 -14 -14 -14 -13 -13 -12 -13 -14 -14 -13 -13 -12 -13 -13 -12
-19 -18 -18 -19 -18 -18 -18 -18 -18 -18 -18 -17 -17 -17 -17 -16 -16 -16 -16 -16 -16 -16 -16 -16 -15 -15 -15 -14 -14 -14 -14 -14 -14 -14 -14 -13 -12 -13 -14 -14 -14 -13 -13 -12 -13 -13 -12
-19 -19 -19 -19 -19 -19 -18 -18 -18 -18 -18 -18 -17 -17 -17 -16 -16 -16 -16 -16 -16 -16 -15 -18 -16 -15 -15 -14 -14 -14 -14 -14 -14 -14 -14 -13 -13 -13 -14 -14 -13 -13 -13 -13 -14 -14 -13
-20 -19 -19 -19 -19 -19 -19 -19 -19 -19 -18 -18 -18 -18 -17 -17 -17 -17 -16 -16 -16 -16 -15 -17 -17 -16 -15 -14 -14 -14 -14 -14 -14 -14 -14 -14 -14 -13 -14 -14 -13 -13 -14 -14 -13 -13 -13
-20 -20 -20 -20 -19 -19 -19 -19 -19 -19 -19 -19 -18 -18 -18 -17 -18 -17 -17 -17 -16 -16 -16 -17 -17 -17 -16 -15 -14 -14 -14 -14 -14 -14 -14 -13 -14 -13 -13 -14 -14 -13 -15 -14 -13 -13 -12
-21 -20 -20 -20 -20 -20 -20 -20 -20 -19 -19 -19 -19 -19 -18 -18 -18 -18 -18 -18 -17 -17 -16 -17 -18 -18 -18 -16 -15 -14 -15 -14 -14 -14 -14 -14 -14 -14 -14 -14 -14 -14 -14 -14 -13 -13 -12
-21 -21 -21 -20 -20 -20 -20 -20 -20 -20 -20 -20 -20 -19 -19 -19 -19 -19 -19 -19 -18 -17 -18 -18 -18 -18 -20 -18 -17 -16 -15 -15 -14 -14 -14 -14 -14 -14 -14 -14 -13 -14 -14 -14 -13 -13 -12
-22 -21 -21 -21 -21 -21 -21 -21 -21 -21 -21 -21 -21 -20 -20 -20 -20 -20 -19 -20 -19 -18 -17 -18 -18 -19 -21 -20 -18 -17 -16 -15 -15 -15 -15 -14 -14 -14 -14 -14 -14 -14 -14 -14 -14 -14 -14
-22 -22 -22 -22 -22 -22 -21 -21 -22 -22 -22 -22 -22 -21 -21 -21 -21 -21 -20 -20 -20 -19 -19 -19 -19 -20 -21 -21 -20 -19 -18 -17 -16 -16 -16 -15 -15 -14 -15 -15 -15 -15 -14 -14 -14 -14 -14
-23 -23 -23 -23 -23 -22 -22 -22 -22 -23 -23 -23 -22 -22 -22 -22 -22 -22 -21 -20 -20 -20 -20 -20 -20 -20 -20 -21 -20 -19 -18 -18 -18 -17 -17 -17 -17 -15 -15 -15 -14 -14 -15 -15 -14 -14 -13
-24 -24 -24 -24 -23 -23 -23 -23 -23 -23 -24 -24 -23 -23 -23 -23 -24 -23 -23 -21 -21 -22 -22 -21 -21 -20 -21 -20 -21 -20 -19 -18 -17 -17 -17 -17 -17 -16 -15 -15 -15 -15 -15 -14 -14 -13 -13
-25 -25 -24 -24 -24 -24 -23 -23 -24 -24 -24 -24 -24 -24 -24 -25 -25 -25 -25 -23 -23 -23 -22 -22 -22 -21 -21 -21 -20 -21 -20 -20 -18 -18 -17 -18 -17 -17 -16 -15 -15 -15 -16 -16 -16 -15 -15
-25 -25 -25 -24 -24 -24 -24 -24 -24 -25 -24 -25 -25 -25 -25 -26 -26 -26 -26 -25 -24 -24 -24 -23 -22 -22 -21 -22 -22 -20 -21 -20 -19 -19 -17 -17 -17 -17 -16 -16 -16 -15 -15 -15 -15 -15 -14
-26 -26 -25 -25 -24 -24 -24 -24 -25 -25 -25 -25 -25 -25 -26 -26 -26 -26 -26 -26 -25 -25 -24 -24 -23 -22 -22 -22 -22 -21 -19 -19 -20 -18 -18 -17 -17 -17 -16 -16 -16 -16 -16 -16 -15 -15 -14
-26 -26 -25 -25 -25 -25 -25 -25 -25 -25 -25 -25 -25 -25 -26 -26 -26 -27 -27 -26 -26 -25 -25 -25 -23 -23 -22 -22 -21 -21 -20 -19 -19 -19 -19 -18 -17 -17 -17 -16 -16 -16 -16 -16 -15 -14 -14
-27 -26 -26 -25 -25 -25 -26 -25 -25 -25 -25 -25 -25 -25 -26 -26 -27 -27 -27 -26 -26 -26 -25 -25 -24 -23 -23 -22 -22 -21 -21 -20 -20 -19 -19 -19 -19 -18 -17 -17 -17 -17 -16 -16 -15 -16 -16
-28 -27 -26 -26 -26 -26 -25 -25 -26 -26 -27 -26 -26 -25 -26 -26 -27 -28 -27 -26 -26 -26 -25 -25 -25 -24 -23 -23 -21 -21 -21 -20 -20 -20 -20 -19 -18 -18 -18 -17 -17 -17 -17 -16 -16 -17 -16
-28 -27 -27 -27 -26 -25 -25 -26 -26 -26 -27 -27 -26 -26 -26 -26 -27 -27 -27 -26 -26 -26 -25 -25 -24 -24 -24 -22 -22 -22 -21 -21 -20 -20 -20 -19 -18 -18 -18 -18 -17 -17 -16 -17 -17 -17 -17
-27 -27 -26 -26 -25 -25 -25 -25 -26 -26 -27 -26 -27 -27 -26 -26 -27 -26 -26 -26 -26 -25 -25 -25 -24 -24 -24 -23 -22 -21 -21 -21 -21 -21 -20 -20 -19 -18 -18 -19 -18 -18 -17 -17 -17 -18 -17
-26 -26 -26 -25 -25 -25 -25 -25 -25 -25 -26 -26 -26 -27 -27 -27 -25 -27 -26 -26 -25 -25 -25 -24 -24 -24 -24 -23 -23 -22 -22 -21 -21 -21 -21 -20 -20 -19 -19 -19 -18 -18 -19 -18 -18 -19 -18
-26 -26 -25 -25 -25 -25 -25 -25 -25 -25 -25 -25 -25 -26 -27 -25 -26 -26 -25 -26 -25 -25 -24 -24 -25 -24 -23 -23 -23 -22 -22 -22 -22 -21 -21 -21 -20 -20 -20 -20 -19 -19 -19 -19 -19 -18 -18
-26 -26 -26 -25 -25 -24 -24 -24 -24 -24 -25 -25 -25 -25 -25 -24 -25 -25 -25 -25 -24 -24 -24 -24 -24 -24 -23 -23 -22 -22 -22 -22 -22 -22 -21 -21 -21 -20 -20 -19 -19 -20 -19 -20 -19 -19 -18
-26 -26 -25 -25 -26 -25 -24 -24 -24 -24 -24 -25 -24 -25 -25 -25 -25 -25 -24 -24 -24 -24 -24 -24 -24 -23 -23 -23 -22 -22 -22 -22 -22 -22 -21 -21 -21 -21 -20 -20 -20 -20 -20 -20 -20 -20 -19

GFSGBSN_500_temp_066.txt.gz
Temp
-12 -12 -12 -12 -12 -12 -12 -13 -12 -12 -12 -12 -12 -12 -12 -13 -13 -13 -14 -14 -14 -14 -14 -14 -14 -14 -14 -14 -14 -14 -14 -13 -14 -13 -13 -13 -12 -12 -12 -12 -12 -12 -13 -13 -13 -13 -12
-13 -13 -13 -13 -13 -13 -13 -13 -13 -13 -13 -13 -13 -13 -14 -14 -14 -14 -15 -15 -15 -15 -15 -14 -14 -14 -14 -14 -15 -14 -14 -14 -14 -14 -14 -13 -13 -13 -12 -12 -12 -12 -13 -13 -13 -13 -12
-14 -14 -14 -14 -13 -13 -13 -14 -14 -14 -14 -14 -14 -15 -15 -15 -15 -15 -15 -15 -15 -15 -15 -15 -15 -15 -14 -14 -15 -14 -14 -14 -14 -14 -14 -14 -13 -13 -12 -12 -12 -12 -13 -13 -13 -13 -12
-15 -15 -14 -14 -14 -14 -14 -15 -15 -15 -15 -15 -16 -16 -16 -16 -16 -15 -15 -15 -15 -15 -15 -15 -15 -15 -14 -14 -14 -14 -14 -14 -14 -14 -14 -14 -14 -13 -12 -12 -13 -13 -13 -13 -14 -13 -12
-15 -15 -15 -15 -15 -15 -16 -16 -16 -16 -16 -17 -17 -17 -16 -16 -16 -16 -16 -16 -15 -15 -15 -15 -15 -15 -14 -14 -15 -15 -14 -15 -14 -14 -14 -14 -14 -13 -12 -12 -13 -13 -13 -13 -13 -12 -12
-16 -16 -16 -16 -16 -16 -16 -17 -17 -17 -17 -17 -17 -17 -17 -16 -16 -16 -16 -16 -16 -15 -15 -15 -16 -16 -16 -14 -15 -15 -15 -14 -14 -14 -14 -14 -14 -13 -13 -12 -12 -14 -14 -13 -13 -12 -12
-17 -17 -17 -16 -17 -17 -17 -18 -18 -18 -18 -18 -18 -17 -17 -17 -17 -16 -16 -16 -16 -15 -15 -15 -16 -15 -16 -16 -14 -15 -15 -14 -14 -14 -13 -14 -14 -13 -13 -13 -14 -14 -14 -13 -13 -13 -12
-17 -17 -18 -17 -18 -18 -18 -18 -19 -19 -18 -18 -18 -18 -18 -17 -17 -17 -16 -16 -16 -16 -15 -16 -16 -16 -16 -15 -15 -15 -15 -15 -14 -14 -14 -14 -13 -14 -13 -14 -14 -14 -13 -13 -13 -13 -13
-18 -19 -19 -18 -19 -18 -19 -19 -19 -19 -19 -18 -18 -18 -18 -18 -18 -17 -17 -17 -16 -16 -15 -16 -16 -16 -16 -16 -16 -15 -15 -15 -14 -14 -14 -13 -14 -14 -13 -14 -14 -14 -14 -14 -14 -13 -13
-19 -20 -20 -20 -19 -19 -20 -20 -20 -19 -19 -19 -19 -19 -18 -18 -18 -18 -17 -17 -16 -16 -16 -16 -16 -16 -16 -17 -15 -15 -14 -15 -14 -14 -14 -14 -14 -14 -13 -14 -14 -14 -14 -14 -14 -14 -13
-20 -20 -20 -21 -20 -20 -20 -20 -20 -20 -19 -19 -19 -19 -19 -19 -18 -18 -18 -18 -17 -16 -17 -17 -17 -17 -17 -17 -17 -16 -16 -15 -14 -14 -14 -14 -14 -14 -13 -14 -14 -14 -15 -14 -14 -13 -13
-21 -21 -21 -21 -21 -21 -21 -21 -20 -20 -20 -20 -20 -19 -19 -19 -19 -19 -18 -18 -18 -17 -17 -17 -17 -17 -18 -17 -17 -16 -16 -15 -15 -14 -13 -13 -14 -14 -14 -14 -14 -15 -15 -14 -14 -14 -13
-22 -22 -22 -22 -22 -22 -21 -21 -21 -20 -21 -20 -20 -20 -20 -19 -19 -19 -19 -19 -18 -18 -18 -18 -19 -18 -18 -18 -18 -18 -17 -16 -15 -14 -14 -14 -14 -14 -14 -14 -14 -15 -15 -14 -14 -13 -13
-24 -23 -23 -22 -22 -22 -22 -22 -21 -21 -21 -21 -21 -20 -20 -20 -20 -20 -20 -19 -19 -19 -18 -19 -19 -20 -20 -19 -19 -19 -18 -16 -15 -15 -15 -15 -14 -14 -14 -14 -14 -15 -14 -14 -14 -14 -14
-25 -25 -24 -24 -23 -23 -22 -22 -22 -22 -22 -22 -21 -21 -21 -21 -21 -21 -21 -20 -20 -19 -19 -20 -20 -19 -20 -20 -19 -20 -19 -18 -16 -15 -15 -15 -14 -14 -14 -15 -15 -14 -14 -15 -15 -14 -14
-26 -25 -25 -25 -24 -24 -23 -23 -23 -23 -23 -22 -22 -21 -22 -22 -22 -22 -21 -20 -20 -20 -20 -21 -21 -20 -20 -20 -19 -19 -19 -19 -18 -17 -16 -15 -15 -15 -15 -14 -14 -14 -15 -15 -14 -15 -14
-26 -26 -26 -26 -25 -25 -24 -24 -24 -24 -23 -23 -22 -22 -23 -23 -23 -22 -22 -22 -21 -21 -21 -21 -21 -21 -21 -21 -20 -19 -19 -18 -18 -18 -17 -17 -17 -16 -15 -14 -14 -14 -14 -15 -14 -15 -14
-27 -26 -26 -26 -26 -25 -25 -25 -24 -24 -24 -23 -23 -23 -23 -24 -23 -23 -23 -23 -22 -22 -23 -23 -23 -21 -21 -21 -21 -20 -19 -19 -18 -18 -17 -18 -17 -17 -17 -15 -15 -15 -15 -15 -15 -15 -15
-31 -29 -28 -27 -27 -26 -25 -25 -25 -25 -24 -24 -24 -24 -24 -24 -24 -24 -24 -24 -24 -24 -24 -25 -24 -22 -22 -21 -21 -20 -20 -19 -19 -18 -18 -18 -17 -18 -17 -16 -15 -15 -15 -15 -15 -15 -14
-33 -33 -30 -28 -27 -26 -26 -26 -25 -25 -25 -24 -24 -24 -24 -24 -24 -24 -25 -25 -25 -26 -26 -26 -25 -23 -22 -22 -21 -20 -20 -19 -19 -19 -19 -18 -18 -18 -18 -17 -16 -16 -16 -16 -16 -16 -15
-32 -32 -31 -29 -27 -27 -26 -26 -25 -25 -25 -25 -24 -24 -25 -25 -25 -25 -26 -26 -26 -26 -26 -26 -25 -24 -23 -22 -22 -21 -20 -20 -19 -19 -18 -19 -19 -18 -18 -17 -17 -16 -16 -16 -16 -16 -15
-32 -32 -31 -29 -28 -27 -27 -27 -26 -26 -26 -25 -24 -25 -25 -25 -25 -25 -26 -26 -26 -27 -27 -26 -25 -25 -24 -22 -22 -22 -20 -20 -19 -19 -18 -18 -19 -19 -18 -17 -17 -17 -16 -16 -16 -16 -16
-31 -31 -31 -30 -28 -27 -27 -27 -26 -26 -26 -25 -25 -25 -26 -26 -26 -26 -26 -26 -27 -27 -27 -27 -26 -25 -24 -23 -22 -22 -21 -20 -19 -19 -19 -19 -19 -18 -18 -18 -18 -17 -17 -17 -17 -17 -17
-30 -30 -30 -29 -28 -27 -27 -27 -27 -27 -26 -25 -26 -27 -27 -27 -27 -26 -27 -27 -27 -27 -27 -27 -26 -26 -24 -23 -23 -22 -22 -21 -20 -20 -19 -20 -19 -18 -18 -18 -18 -18 -18 -18 -18 -18 -17
-29 -29 -29 -29 -28 -27 -27 -27 -27 -26 -26 -26 -26 -27 -28 -27 -27 -27 -27 -27 -27 -27 -27 -26 -26 -25 -25 -24 -23 -22 -22 -22 -21 -21 -20 -20 -19 -19 -19 -18 -18 -18 -18 -18 -18 -18 -18
-28 -28 -28 -28 -28 -27 -27 -27 -26 -26 -26 -26 -26 -27 -27 -28 -27 -28 -28 -27 -27 -27 -26 -26 -25 -25 -25 -24 -24 -23 -23 -22 -22 -21 -21 -21 -20 -20 -19 -18 -18 -18 -18 -18 -19 -18 -18
-27 -27 -27 -27 -27 -26 -26 -26 -26 -26 -26 -25 -25 -26 -27 -27 -28 -28 -27 -27 -27 -27 -26 -25 -25 -25 -24 -24 -24 -23 -23 -22 -22 -21 -21 -21 -21 -20 -20 -19 -19 -19 -19 -19 -20 -18 -18
-27 -27 -26 -26 -26 -26 -26 -26 -26 -25 -26 -25 -25 -26 -26 -27 -28 -27 -28 -27 -26 -26 -25 -25 -25 -25 -24 -24 -23 -23 -23 -23 -22 -22 -21 -21 -20 -20 -20 -20 -20 -19 -19 -19 -19 -19 -19
-26 -26 -26 -26 -26 -25 -25 -25 -25 -25 -25 -25 -25 -25 -26 -27 -27 -27 -27 -26 -26 -26 -25 -25 -25 -25 -24 -24 -23 -23 -23 -23 -23 -22 -22 -22 -21 -21 -21 -21 -20 -20 -19 -19 -19 -19 -19

GFSGBSN_500_temp_069.txt.gz
Temp
-12 -12 -12 -13 -12 -12 -12 -12 -12 -12 -12 -12 -12 -12 -12 -12 -12 -11 -11 -11 -11 -11 -12 -12 -13 -14 -14 -14 -14 -14 -14 -14 -14 -14 -14 -13 -13 -13 -13 -13 -13 -12 -12 -13 -13 -13 -12
-13 -13 -13 -13 -13 -13 -13 -13 -13 -13 -12 -13 -13 -12 -12 -12 -12 -12 -12 -12 -12 -13 -13 -14 -14 -14 -14 -14 -14 -14 -14 -14 -15 -15 -14 -13 -13 -14 -13 -13 -13 -12 -13 -13 -13 -13 -12
-14 -14 -13 -13 -14 -14 -14 -14 -14 -13 -13 -14 -13 -13 -13 -13 -14 -13 -13 -13 -14 -14 -14 -14 -14 -14 -14 -14 -14 -14 -15 -14 -15 -14 -15 -14 -14 -14 -14 -13 -13 -13 -12 -13 -13 -13 -13
-14 -14 -15 -15 -15 -15 -15 -15 -14 -14 -14 -15 -14 -14 -15 -15 -15 -15 -15 -15 -15 -15 -15 -15 -15 -15 -14 -14 -14 -15 -15 -14 -14 -15 -15 -15 -14 -13 -14 -13 -13 -13 -13 -13 -13 -13 -13
-15 -16 -15 -16 -16 -16 -16 -16 -15 -15 -15 -15 -15 -15 -16 -16 -16 -16 -16 -16 -16 -15 -15 -15 -15 -15 -14 -14 -14 -14 -15 -14 -14 -15 -14 -15 -14 -14 -14 -13 -13 -13 -13 -13 -14 -13 -13
-16 -16 -16 -17 -17 -16 -17 -17 -16 -16 -16 -16 -16 -16 -16 -17 -17 -17 -17 -16 -16 -16 -16 -16 -15 -15 -15 -15 -14 -14 -15 -14 -14 -15 -14 -15 -15 -14 -14 -13 -13 -13 -13 -14 -14 -15 -12
-18 -18 -18 -17 -17 -17 -17 -17 -17 -17 -17 -16 -17 -17 -17 -18 -17 -17 -17 -17 -16 -16 -16 -16 -16 -15 -16 -15 -14 -15 -15 -15 -15 -16 -15 -15 -15 -14 -14 -14 -14 -14 -16 -15 -15 -15 -12
-18 -18 -18 -18 -18 -18 -18 -18 -18 -17 -18 -17 -18 -18 -18 -18 -18 -18 -17 -17 -17 -17 -16 -16 -16 -16 -15 -15 -15 -15 -15 -16 -15 -15 -15 -14 -14 -14 -15 -14 -15 -15 -15 -14 -15 -15 -13
-18 -18 -18 -18 -19 -19 -19 -19 -19 -18 -18 -18 -18 -18 -18 -19 -18 -18 -18 -18 -17 -17 -17 -17 -16 -16 -16 -15 -15 -15 -15 -16 -16 -16 -15 -15 -14 -15 -14 -14 -14 -14 -14 -14 -15 -16 -13
-19 -19 -19 -19 -19 -19 -19 -20 -20 -19 -19 -19 -19 -19 -19 -19 -19 -19 -18 -18 -18 -18 -17 -17 -17 -16 -16 -15 -16 -15 -15 -16 -16 -15 -16 -15 -14 -15 -14 -14 -14 -14 -14 -14 -14 -14 -13
-19 -19 -20 -20 -20 -20 -20 -20 -20 -20 -20 -20 -20 -20 -20 -20 -19 -19 -19 -19 -18 -18 -18 -17 -17 -17 -17 -16 -16 -16 -16 -16 -16 -15 -15 -15 -14 -14 -14 -14 -14 -14 -14 -14 -14 -14 -13
-20 -20 -20 -21 -21 -21 -21 -21 -21 -21 -21 -21 -21 -20 -20 -20 -20 -19 -19 -19 -19 -19 -19 -18 -18 -18 -17 -17 -17 -16 -16 -16 -16 -15 -15 -15 -14 -13 -14 -14 -14 -14 -14 -14 -14 -14 -13
-22 -22 -22 -22 -23 -23 -22 -22 -22 -22 -22 -21 -21 -21 -21 -20 -20 -20 -20 -19 -19 -19 -20 -19 -18 -18 -18 -18 -18 -18 -17 -17 -17 -16 -15 -16 -15 -14 -14 -14 -14 -14 -14 -15 -14 -14 -13
-24 -25 -25 -25 -25 -25 -25 -24 -23 -23 -22 -22 -22 -21 -21 -21 -20 -20 -20 -20 -20 -20 -19 -19 -19 -19 -19 -19 -19 -18 -18 -18 -16 -17 -17 -16 -16 -14 -14 -14 -14 -14 -14 -14 -14 -15 -13
-26 -26 -26 -26 -26 -26 -26 -25 -25 -24 -23 -23 -22 -22 -21 -21 -21 -21 -20 -20 -20 -20 -20 -19 -19 -20 -20 -20 -19 -19 -18 -18 -17 -17 -17 -16 -16 -15 -14 -14 -14 -14 -14 -14 -15 -15 -14
-27 -27 -27 -27 -27 -26 -26 -26 -25 -25 -24 -23 -23 -22 -22 -22 -22 -22 -21 -21 -21 -21 -21 -20 -20 -20 -20 -21 -20 -20 -20 -18 -18 -18 -18 -17 -16 -16 -15 -15 -14 -14 -15 -14 -15 -15 -15
-27 -27 -28 -28 -28 -27 -27 -26 -26 -26 -25 -25 -24 -23 -23 -23 -23 -22 -21 -21 -22 -22 -22 -21 -21 -21 -20 -21 -20 -20 -20 -18 -18 -18 -18 -18 -17 -17 -16 -14 -14 -14 -14 -14 -16 -15 -16
-27 -28 -28 -29 -30 -29 -28 -27 -27 -26 -26 -25 -25 -24 -24 -23 -23 -23 -22 -22 -22 -22 -23 -22 -22 -21 -21 -21 -20 -21 -20 -19 -19 -19 -18 -18 -17 -18 -17 -16 -15 -15 -15 -15 -15 -16 -15
-27 -28 -29 -30 -31 -31 -31 -29 -28 -27 -26 -26 -25 -25 -24 -24 -24 -23 -23 -23 -23 -23 -23 -23 -22 -21 -22 -21 -21 -21 -19 -19 -19 -19 -19 -18 -17 -17 -18 -17 -16 -15 -15 -16 -16 -15 -15
-27 -28 -29 -31 -32 -33 -33 -31 -29 -28 -27 -26 -26 -25 -25 -25 -24 -24 -24 -24 -23 -24 -23 -23 -23 -23 -22 -22 -22 -22 -20 -19 -19 -19 -19 -19 -18 -18 -18 -18 -17 -16 -16 -17 -17 -16 -15
-28 -29 -30 -31 -32 -33 -33 -31 -30 -28 -27 -27 -26 -25 -25 -25 -24 -24 -25 -24 -24 -24 -24 -24 -24 -24 -25 -24 -23 -22 -21 -20 -19 -19 -19 -19 -19 -18 -18 -18 -18 -17 -17 -17 -17 -16 -16
-28 -29 -30 -31 -32 -32 -32 -31 -30 -28 -28 -27 -26 -25 -25 -25 -25 -25 -25 -25 -25 -25 -25 -25 -26 -25 -25 -24 -24 -23 -22 -20 -19 -20 -19 -19 -19 -18 -18 -18 -18 -17 -17 -17 -16 -16 -16
-28 -29 -30 -31 -32 -32 -31 -30 -29 -29 -28 -26 -26 -26 -26 -25 -26 -25 -25 -25 -25 -25 -25 -26 -26 -26 -26 -25 -25 -24 -22 -20 -19 -19 -19 -19 -19 -19 -19 -19 -18 -17 -17 -17 -16 -16 -16
-28 -28 -30 -31 -31 -31 -30 -30 -29 -29 -28 -27 -27 -27 -26 -26 -26 -26 -26 -26 -26 -26 -26 -26 -27 -26 -26 -25 -25 -24 -23 -22 -20 -20 -20 -19 -19 -18 -19 -19 -19 -18 -18 -17 -17 -17 -17
-28 -28 -29 -30 -30 -30 -29 -29 -28 -28 -27 -27 -27 -27 -27 -27 -27 -26 -27 -28 -27 -26 -27 -26 -26 -26 -26 -26 -26 -25 -24 -22 -21 -21 -20 -19 -19 -18 -19 -18 -18 -18 -19 -18 -18 -18 -18
-27 -28 -28 -29 -29 -29 -29 -29 -28 -28 -28 -28 -27 -27 -27 -27 -28 -28 -28 -28 -27 -27 -27 -26 -26 -26 -25 -25 -25 -24 -24 -23 -22 -22 -21 -20 -19 -19 -19 -18 -18 -18 -18 -17 -17 -18 -18
-27 -27 -27 -28 -28 -28 -28 -28 -28 -28 -27 -27 -27 -27 -27 -28 -29 -28 -28 -28 -27 -27 -26 -26 -26 -26 -25 -25 -25 -24 -24 -23 -23 -21 -21 -21 -21 -20 -20 -20 -19 -18 -18 -18 -18 -18 -18
-27 -27 -27 -27 -27 -27 -27 -27 -27 -27 -27 -26 -27 -26 -26 -27 -29 -28 -28 -28 -28 -27 -27 -26 -26 -26 -25 -25 -25 -24 -24 -23 -23 -22 -21 -21 -21 -20 -20 -20 -20 -20 -19 -19 -19 -18 -18
-26 -27 -27 -27 -27 -27 -27 -27 -27 -26 -26 -26 -26 -26 -26 -27 -28 -28 -28 -28 -27 -27 -26 -26 -26 -25 -25 -25 -24 -24 -24 -24 -23 -22 -22 -21 -21 -20 -20 -20 -20 -20 -19 -20 -20 -19 -18

GFSGBSN_500_temp_072.txt.gz
Temp
-13 -13 -13 -13 -13 -13 -12 -12 -12 -12 -12 -12 -12 -12 -11 -11 -11 -11 -11 -11 -11 -11 -11 -11 -11 -11 -11 -11 -14 -12 -12 -12 -13 -14 -14 -14 -14 -14 -14 -13 -13 -12 -12 -12 -13 -13 -13
-13 -13 -13 -13 -13 -13 -13 -13 -13 -13 -12 -12 -13 -13 -13 -12 -12 -12 -12 -12 -11 -12 -12 -12 -12 -11 -11 -14 -13 -13 -14 -14 -14 -14 -14 -14 -14 -15 -14 -14 -14 -14 -13 -13 -13 -13 -13
-14 -14 -14 -14 -14 -14 -14 -14 -14 -14 -14 -14 -13 -13 -13 -13 -13 -13 -13 -12 -12 -12 -13 -13 -12 -12 -12 -14 -13 -14 -14 -14 -14 -14 -14 -14 -15 -15 -15 -15 -14 -14 -13 -12 -13 -13 -13
-15 -15 -15 -15 -15 -15 -15 -15 -15 -15 -15 -15 -15 -15 -14 -14 -14 -14 -14 -14 -13 -14 -14 -13 -13 -13 -13 -14 -14 -14 -14 -14 -14 -14 -14 -14 -15 -15 -14 -15 -14 -14 -14 -13 -13 -13 -13
-16 -16 -16 -16 -16 -16 -16 -16 -16 -16 -16 -16 -16 -15 -15 -15 -15 -15 -15 -15 -14 -15 -15 -15 -14 -15 -15 -15 -15 -14 -14 -14 -14 -14 -14 -14 -14 -15 -15 -15 -14 -14 -13 -13 -13 -13 -14
-17 -17 -17 -17 -17 -17 -17 -17 -17 -17 -18 -17 -17 -16 -16 -16 -16 -16 -17 -16 -15 -16 -16 -16 -15 -15 -16 -15 -15 -15 -15 -14 -14 -14 -14 -15 -15 -15 -15 -16 -15 -14 -14 -14 -13 -14 -14
-18 -18 -18 -18 -18 -18 -18 -18 -18 -18 -18 -17 -17 -17 -17 -17 -17 -17 -17 -17 -16 -16 -17 -16 -17 -16 -16 -16 -15 -15 -15 -15 -15 -14 -15 -15 -14 -14 -15 -15 -15 -15 -15 -15 -15 -14 -14
-18 -18 -18 -18 -18 -18 -18 -18 -18 -18 -18 -18 -18 -18 -18 -18 -17 -17 -17 -18 -18 -16 -15 -17 -17 -17 -16 -16 -16 -16 -15 -15 -15 -15 -15 -15 -14 -15 -16 -16 -16 -15 -15 -15 -15 -15 -15
-19 -19 -19 -18 -19 -18 -18 -19 -18 -18 -18 -18 -18 -18 -18 -18 -18 -18 -18 -18 -18 -18 -17 -18 -17 -17 -17 -17 -16 -16 -16 -15 -15 -15 -15 -15 -15 -16 -15 -16 -16 -15 -15 -15 -15 -15 -15
-19 -19 -19 -19 -19 -19 -19 -19 -19 -19 -19 -19 -19 -19 -19 -19 -18 -19 -19 -19 -18 -18 -18 -18 -18 -18 -17 -17 -16 -16 -16 -15 -15 -15 -15 -15 -16 -16 -15 -15 -16 -15 -15 -16 -15 -15 -15
-20 -20 -20 -20 -20 -20 -20 -19 -19 -20 -20 -20 -20 -20 -20 -20 -19 -20 -19 -19 -19 -19 -19 -18 -17 -18 -18 -17 -17 -16 -16 -16 -15 -16 -16 -16 -16 -15 -15 -15 -16 -14 -15 -15 -16 -15 -15
-21 -21 -21 -21 -21 -21 -21 -21 -21 -21 -21 -21 -21 -21 -21 -21 -21 -20 -20 -20 -20 -20 -19 -19 -18 -18 -18 -18 -17 -16 -17 -16 -16 -16 -15 -17 -16 -15 -15 -16 -15 -15 -15 -16 -16 -16 -14
-22 -22 -22 -22 -22 -22 -23 -23 -23 -23 -23 -23 -23 -22 -22 -21 -21 -21 -21 -21 -21 -20 -20 -21 -19 -19 -19 -19 -18 -17 -17 -17 -16 -16 -16 -17 -16 -15 -16 -16 -15 -14 -15 -16 -15 -14 -13
-23 -23 -24 -24 -25 -25 -25 -25 -25 -26 -25 -25 -24 -23 -23 -22 -22 -22 -22 -21 -21 -20 -20 -21 -20 -19 -19 -19 -19 -19 -17 -17 -17 -16 -17 -17 -16 -16 -16 -16 -15 -15 -15 -15 -16 -15 -13
-24 -25 -26 -26 -26 -26 -26 -26 -26 -26 -26 -26 -26 -25 -24 -23 -23 -23 -22 -22 -21 -21 -21 -21 -20 -19 -19 -20 -19 -20 -19 -18 -17 -17 -17 -18 -18 -17 -17 -17 -16 -15 -14 -14 -14 -14 -14
-25 -26 -26 -26 -26 -27 -27 -27 -27 -27 -27 -26 -26 -26 -25 -24 -24 -24 -23 -21 -21 -22 -21 -20 -20 -20 -20 -21 -22 -20 -20 -20 -18 -18 -17 -18 -18 -17 -17 -17 -16 -15 -15 -15 -15 -15 -14
-25 -26 -26 -26 -27 -27 -27 -27 -27 -27 -28 -28 -27 -26 -26 -25 -25 -24 -23 -22 -22 -22 -22 -21 -21 -20 -21 -21 -21 -21 -19 -20 -19 -19 -19 -18 -18 -18 -18 -17 -17 -16 -15 -15 -15 -15 -15
-26 -26 -26 -27 -27 -27 -27 -28 -28 -29 -29 -28 -28 -27 -26 -26 -26 -24 -23 -23 -23 -22 -22 -22 -21 -21 -21 -21 -21 -21 -20 -20 -20 -19 -19 -18 -18 -18 -18 -17 -16 -16 -15 -15 -15 -15 -15
-27 -26 -27 -28 -27 -28 -28 -29 -29 -31 -32 -31 -30 -28 -27 -27 -26 -25 -24 -23 -23 -23 -22 -22 -22 -22 -22 -21 -22 -21 -21 -21 -20 -19 -19 -19 -18 -18 -18 -17 -17 -16 -16 -15 -15 -16 -15
-26 -27 -27 -28 -28 -28 -29 -30 -31 -32 -32 -30 -30 -28 -27 -27 -26 -25 -25 -24 -24 -23 -23 -23 -23 -22 -22 -22 -22 -21 -22 -22 -20 -19 -19 -18 -19 -19 -18 -17 -17 -17 -16 -16 -15 -15 -16
-27 -27 -27 -28 -28 -29 -30 -31 -33 -33 -32 -31 -31 -29 -28 -27 -26 -25 -25 -25 -24 -24 -24 -24 -23 -23 -23 -23 -22 -22 -23 -23 -22 -20 -20 -19 -19 -19 -18 -17 -17 -16 -17 -16 -16 -16 -16
-27 -27 -27 -28 -29 -30 -31 -32 -32 -32 -32 -31 -30 -29 -28 -27 -27 -26 -26 -25 -25 -24 -24 -24 -24 -24 -24 -23 -24 -25 -24 -24 -23 -20 -21 -20 -19 -19 -18 -18 -17 -17 -17 -17 -17 -16 -17
-26 -27 -27 -28 -29 -30 -32 -32 -32 -32 -32 -31 -29 -29 -28 -27 -27 -26 -26 -26 -25 -25 -25 -25 -26 -25 -24 -25 -23 -24 -25 -24 -22 -22 -20 -20 -20 -19 -19 -18 -18 -18 -18 -17 -17 -17 -17
-26 -27 -27 -28 -29 -31 -31 -32 -32 -32 -31 -30 -30 -29 -28 -28 -27 -26 -27 -27 -25 -25 -25 -25 -25 -25 -25 -25 -25 -25 -25 -24 -23 -21 -20 -20 -20 -20 -19 -18 -18 -18 -17 -17 -17 -16 -16
-26 -27 -27 -28 -29 -30 -30 -30 -31 -31 -30 -29 -30 -29 -28 -28 -27 -27 -27 -27 -27 -26 -25 -26 -26 -25 -25 -25 -25 -25 -25 -24 -23 -22 -21 -20 -20 -20 -19 -19 -18 -18 -17 -17 -17 -17 -17
-26 -27 -27 -28 -28 -29 -30 -30 -29 -29 -29 -29 -29 -29 -28 -28 -27 -27 -27 -27 -28 -27 -27 -26 -26 -25 -25 -25 -26 -25 -25 -24 -24 -22 -22 -22 -20 -19 -20 -19 -18 -18 -18 -18 -17 -17 -16
-27 -27 -27 -27 -28 -28 -29 -29 -29 -29 -29 -29 -29 -29 -28 -27 -28 -28 -28 -28 -28 -28 -27 -26 -26 -26 -26 -25 -25 -25 -24 -24 -23 -22 -22 -22 -21 -20 -20 -20 -19 -18 -18 -17 -17 -17 -17
-27 -27 -27 -27 -27 -28 -28 -28 -29 -29 -28 -28 -29 -28 -28 -28 -28 -28 -28 -28 -28 -27 -27 -26 -25 -26 -25 -26 -25 -24 -24 -23 -23 -22 -22 -22 -22 -20 -20 -20 -19 -19 -19 -18 -18 -18 -18
-27 -27 -27 -27 -27 -27 -27 -28 -28 -28 -28 -28 -28 -28 -28 -28 -28 -28 -28 -28 -28 -27 -27 -26 -26 -25 -26 -25 -25 -24 -24 -23 -23 -23 -22 -22 -22 -22 -21 -21 -20 -20 -20 -19 -19 -19 -18

GFSGBSN_500_temp_075.txt.gz
Temp
-13 -13 -13 -13 -13 -12 -13 -13 -12 -13 -13 -13 -12 -12 -12 -12 -12 -12 -11 -11 -11 -11 -11 -11 -10 -10 -10 -10 -11 -10 -10 -10 -11 -10 -11 -11 -12 -13 -12 -13 -14 -14 -14 -13 -13 -13 -14
-13 -14 -13 -13 -14 -13 -14 -14 -14 -13 -13 -14 -13 -13 -13 -13 -12 -12 -13 -12 -12 -12 -11 -11 -11 -11 -11 -12 -11 -11 -10 -11 -12 -11 -12 -12 -13 -14 -14 -14 -14 -14 -14 -14 -13 -13 -14
-14 -14 -14 -15 -15 -14 -14 -14 -15 -15 -14 -14 -15 -14 -14 -14 -14 -14 -14 -14 -13 -13 -12 -12 -12 -11 -11 -13 -12 -12 -12 -12 -13 -13 -12 -13 -14 -14 -14 -14 -14 -15 -15 -14 -14 -13 -12
-15 -15 -15 -15 -16 -16 -16 -16 -16 -16 -16 -15 -15 -15 -15 -15 -15 -15 -14 -14 -14 -14 -14 -13 -13 -12 -12 -13 -13 -13 -12 -14 -13 -14 -14 -14 -14 -14 -14 -14 -14 -15 -15 -14 -14 -13 -12
-16 -16 -16 -16 -16 -16 -16 -16 -17 -16 -16 -16 -16 -16 -16 -16 -16 -16 -16 -16 -15 -15 -15 -14 -14 -13 -13 -14 -14 -13 -14 -14 -14 -14 -14 -14 -14 -14 -14 -14 -14 -15 -15 -15 -14 -14 -14
-16 -17 -17 -17 -18 -18 -18 -17 -17 -17 -17 -17 -17 -17 -17 -17 -17 -17 -16 -16 -16 -16 -15 -16 -15 -14 -14 -14 -14 -14 -15 -14 -15 -15 -15 -15 -14 -15 -14 -14 -14 -15 -15 -15 -15 -14 -14
-18 -18 -18 -18 -18 -18 -18 -18 -18 -18 -18 -18 -18 -18 -18 -18 -18 -17 -17 -17 -17 -16 -16 -16 -15 -15 -15 -15 -14 -15 -15 -14 -15 -15 -15 -15 -15 -15 -14 -14 -15 -16 -16 -15 -16 -15 -15
-19 -19 -19 -18 -18 -18 -18 -18 -18 -18 -18 -18 -18 -17 -17 -18 -18 -18 -17 -17 -17 -16 -16 -17 -17 -15 -17 -16 -15 -15 -16 -15 -15 -16 -15 -15 -15 -15 -15 -14 -15 -15 -15 -15 -15 -15 -15
-19 -19 -19 -19 -19 -19 -19 -18 -18 -19 -19 -19 -18 -18 -18 -18 -18 -18 -18 -18 -17 -17 -16 -18 -17 -17 -16 -17 -16 -16 -16 -16 -16 -16 -16 -15 -15 -15 -15 -14 -15 -15 -15 -15 -16 -15 -15
-20 -20 -20 -20 -20 -19 -20 -19 -19 -19 -20 -19 -19 -19 -19 -19 -19 -19 -19 -18 -19 -18 -18 -17 -17 -17 -17 -17 -17 -17 -17 -16 -16 -16 -16 -16 -15 -15 -15 -14 -16 -15 -16 -16 -17 -16 -15
-21 -21 -21 -21 -21 -20 -20 -20 -20 -20 -20 -20 -20 -20 -20 -21 -20 -21 -19 -19 -20 -19 -19 -18 -17 -18 -18 -18 -17 -17 -17 -17 -16 -16 -16 -16 -15 -15 -15 -15 -17 -16 -17 -16 -16 -16 -15
-21 -21 -21 -21 -22 -22 -22 -22 -21 -21 -21 -21 -21 -22 -22 -22 -22 -22 -21 -21 -21 -20 -19 -20 -18 -19 -19 -18 -18 -17 -18 -17 -17 -17 -16 -16 -16 -16 -15 -16 -16 -15 -16 -16 -15 -16 -15
-22 -22 -22 -22 -22 -23 -23 -23 -24 -24 -24 -24 -24 -24 -24 -24 -24 -23 -23 -22 -22 -20 -21 -21 -20 -19 -19 -19 -19 -18 -18 -18 -17 -17 -17 -16 -16 -16 -15 -15 -16 -16 -15 -16 -16 -16 -14
-23 -23 -23 -23 -23 -23 -24 -25 -26 -26 -26 -26 -26 -25 -26 -25 -26 -25 -24 -24 -22 -21 -21 -22 -22 -20 -19 -19 -20 -19 -18 -18 -18 -17 -17 -16 -16 -17 -15 -16 -16 -16 -16 -15 -16 -16 -15
-24 -24 -24 -24 -24 -24 -25 -26 -26 -26 -26 -26 -26 -26 -26 -26 -26 -26 -25 -24 -22 -22 -22 -23 -23 -21 -20 -20 -20 -20 -19 -18 -18 -18 -17 -17 -17 -17 -17 -17 -17 -16 -16 -16 -16 -16 -15
-24 -24 -24 -24 -25 -25 -26 -26 -26 -26 -26 -27 -26 -26 -26 -27 -27 -27 -26 -24 -23 -23 -23 -23 -23 -22 -21 -21 -21 -21 -20 -19 -19 -18 -17 -17 -17 -18 -18 -18 -17 -17 -17 -17 -16 -16 -15
-24 -24 -24 -25 -25 -26 -26 -27 -27 -27 -27 -27 -27 -26 -27 -27 -28 -27 -26 -25 -23 -24 -24 -23 -23 -22 -21 -22 -22 -21 -20 -19 -19 -19 -19 -18 -17 -18 -18 -19 -18 -18 -17 -17 -16 -15 -15
-25 -24 -25 -25 -25 -26 -27 -27 -27 -28 -28 -28 -28 -27 -28 -28 -28 -27 -26 -25 -25 -24 -25 -23 -23 -22 -22 -22 -21 -21 -21 -19 -20 -20 -19 -19 -18 -18 -18 -19 -18 -18 -17 -17 -16 -15 -15
-24 -24 -25 -25 -26 -26 -27 -27 -28 -28 -29 -29 -29 -29 -30 -29 -29 -27 -27 -26 -25 -25 -25 -24 -23 -23 -22 -23 -22 -22 -22 -20 -20 -20 -19 -19 -18 -18 -18 -18 -18 -18 -17 -17 -17 -15 -15
-25 -25 -25 -25 -26 -26 -27 -28 -29 -29 -30 -30 -30 -31 -31 -30 -28 -28 -27 -26 -26 -25 -25 -25 -24 -23 -23 -23 -22 -22 -22 -22 -21 -21 -20 -19 -19 -18 -18 -19 -18 -18 -18 -17 -17 -16 -15
-25 -25 -26 -26 -26 -26 -27 -28 -30 -30 -31 -32 -32 -31 -30 -29 -28 -28 -28 -27 -26 -26 -25 -25 -24 -24 -23 -23 -23 -23 -22 -22 -22 -21 -19 -19 -18 -18 -19 -18 -17 -17 -18 -17 -17 -16 -16
-25 -25 -25 -26 -26 -27 -28 -29 -31 -31 -32 -33 -32 -31 -31 -30 -29 -28 -28 -27 -26 -27 -26 -25 -24 -24 -24 -24 -23 -23 -22 -22 -21 -21 -19 -19 -18 -18 -19 -18 -18 -17 -17 -17 -17 -16 -16
-26 -26 -26 -26 -27 -27 -28 -29 -31 -32 -32 -32 -32 -31 -30 -29 -29 -29 -28 -28 -27 -27 -27 -25 -25 -25 -24 -24 -24 -23 -23 -23 -23 -23 -22 -20 -19 -19 -19 -19 -18 -17 -17 -17 -16 -16 -16
-26 -26 -26 -26 -27 -27 -28 -29 -31 -32 -32 -31 -31 -31 -30 -29 -29 -29 -28 -28 -28 -27 -26 -26 -25 -25 -24 -24 -25 -25 -24 -24 -23 -23 -22 -21 -20 -20 -19 -19 -18 -18 -17 -17 -16 -16 -16
-26 -27 -27 -27 -27 -27 -28 -29 -30 -30 -31 -31 -31 -31 -30 -30 -29 -29 -28 -28 -27 -27 -27 -26 -26 -25 -25 -25 -25 -25 -25 -25 -24 -23 -23 -23 -22 -21 -20 -20 -19 -18 -18 -17 -17 -17 -16
-27 -27 -27 -27 -27 -28 -28 -29 -29 -29 -29 -30 -30 -30 -29 -29 -29 -29 -28 -27 -27 -27 -26 -26 -26 -25 -25 -26 -25 -25 -25 -25 -24 -24 -24 -23 -22 -21 -21 -20 -19 -19 -18 -18 -17 -17 -17
-27 -27 -27 -27 -27 -27 -28 -28 -29 -29 -29 -29 -30 -29 -29 -28 -29 -28 -28 -28 -28 -27 -27 -27 -26 -25 -25 -26 -25 -25 -25 -25 -24 -23 -23 -23 -22 -21 -21 -20 -20 -19 -18 -18 -18 -17 -17
-27 -27 -27 -27 -27 -27 -28 -28 -29 -29 -28 -29 -29 -29 -28 -29 -28 -28 -28 -27 -28 -27 -27 -26 -26 -26 -26 -26 -25 -25 -25 -24 -24 -22 -23 -23 -22 -21 -21 -20 -20 -19 -18 -18 -18 -17 -17
-27 -27 -27 -27 -27 -27 -27 -28 -28 -29 -28 -29 -29 -29 -28 -28 -28 -28 -28 -28 -28 -28 -28 -27 -26 -26 -26 -25 -25 -25 -24 -24 -23 -23 -22 -22 -22 -22 -21 -22 -20 -20 -19 -19 -18 -18 -19

GFSGBSN_500_temp_078.txt.gz
Temp
-13 -13 -13 -13 -13 -13 -13 -13 -13 -13 -13 -13 -13 -13 -13 -13 -13 -13 -13 -12 -12 -11 -11 -11 -11 -11 -11 -11 -11 -10 -10 -10 -10 -9 -9 -10 -10 -10 -9 -10 -10 -10 -11 -12 -11 -12 -13
-13 -13 -13 -13 -14 -14 -14 -14 -14 -14 -14 -14 -14 -14 -14 -14 -14 -14 -14 -13 -13 -12 -12 -12 -12 -12 -12 -13 -11 -11 -11 -11 -11 -10 -10 -11 -11 -10 -10 -10 -10 -12 -11 -11 -12 -12 -14
-14 -14 -14 -14 -15 -14 -14 -14 -15 -15 -14 -14 -15 -15 -15 -14 -15 -14 -14 -14 -14 -14 -13 -12 -12 -12 -13 -13 -12 -11 -11 -12 -11 -11 -11 -11 -11 -11 -11 -11 -12 -12 -12 -13 -13 -14 -14
-16 -16 -15 -16 -16 -16 -16 -16 -16 -16 -16 -16 -16 -16 -16 -16 -16 -15 -15 -15 -15 -14 -14 -13 -13 -13 -14 -13 -13 -13 -12 -12 -12 -12 -12 -13 -12 -12 -12 -12 -13 -14 -13 -13 -13 -14 -15
-16 -16 -16 -16 -16 -16 -16 -17 -17 -17 -17 -17 -17 -17 -17 -17 -17 -16 -16 -16 -16 -16 -15 -14 -14 -14 -14 -14 -14 -13 -14 -13 -13 -13 -13 -14 -12 -12 -13 -14 -14 -14 -14 -14 -13 -15 -15
-16 -17 -17 -17 -18 -18 -19 -19 -19 -19 -19 -19 -18 -18 -17 -17 -17 -17 -17 -17 -17 -16 -16 -15 -15 -15 -15 -15 -15 -15 -15 -14 -14 -13 -13 -14 -14 -12 -14 -14 -14 -14 -14 -14 -13 -14 -16
-17 -18 -19 -19 -19 -19 -19 -19 -19 -18 -18 -18 -18 -18 -18 -18 -17 -17 -17 -17 -17 -16 -16 -17 -16 -16 -16 -15 -15 -15 -15 -14 -15 -15 -14 -14 -14 -14 -15 -15 -15 -14 -14 -14 -13 -15 -16
-19 -19 -19 -19 -19 -19 -18 -18 -18 -18 -18 -18 -18 -18 -18 -18 -18 -18 -18 -17 -17 -17 -16 -17 -17 -16 -17 -16 -15 -17 -16 -15 -15 -15 -15 -14 -14 -15 -15 -15 -15 -15 -15 -14 -14 -15 -16
-19 -19 -19 -19 -19 -19 -19 -19 -19 -19 -19 -19 -19 -19 -19 -19 -20 -19 -18 -18 -18 -18 -17 -17 -17 -16 -17 -16 -16 -16 -17 -16 -15 -15 -16 -15 -15 -15 -15 -15 -15 -15 -15 -14 -14 -16 -15
-20 -20 -20 -20 -20 -20 -20 -20 -20 -20 -19 -19 -19 -19 -19 -20 -20 -20 -19 -19 -19 -19 -18 -16 -18 -17 -17 -17 -17 -17 -17 -16 -16 -16 -16 -15 -16 -15 -16 -16 -15 -15 -15 -15 -15 -16 -15
-20 -20 -20 -20 -21 -20 -21 -20 -21 -21 -21 -22 -22 -21 -20 -21 -22 -22 -21 -20 -20 -20 -19 -18 -18 -18 -18 -18 -18 -18 -17 -17 -17 -16 -16 -16 -16 -16 -16 -16 -15 -15 -15 -15 -16 -16 -15
-21 -21 -21 -21 -21 -21 -21 -21 -22 -22 -22 -22 -23 -23 -22 -22 -23 -24 -23 -22 -22 -22 -19 -20 -19 -19 -19 -19 -18 -19 -18 -17 -17 -17 -17 -17 -17 -16 -16 -16 -16 -15 -15 -16 -16 -15 -14
-21 -21 -21 -21 -21 -22 -22 -23 -23 -23 -23 -23 -24 -25 -25 -25 -26 -25 -25 -24 -24 -23 -21 -21 -21 -21 -20 -20 -19 -19 -18 -18 -18 -17 -17 -17 -17 -17 -16 -16 -16 -15 -16 -16 -16 -16 -13
-22 -22 -22 -22 -22 -23 -23 -24 -24 -24 -24 -25 -26 -26 -26 -26 -27 -26 -26 -26 -25 -23 -23 -23 -22 -22 -21 -20 -20 -19 -19 -19 -19 -18 -18 -18 -17 -17 -16 -16 -16 -15 -16 -17 -16 -15 -14
-23 -23 -23 -23 -23 -23 -24 -24 -24 -24 -25 -25 -26 -26 -26 -27 -27 -27 -27 -26 -25 -24 -24 -23 -23 -22 -22 -22 -22 -21 -20 -19 -19 -18 -18 -18 -18 -17 -16 -16 -16 -16 -16 -16 -16 -16 -15
-23 -23 -23 -23 -24 -24 -24 -24 -25 -25 -25 -25 -26 -26 -27 -28 -27 -27 -27 -26 -25 -25 -25 -24 -22 -22 -22 -22 -23 -22 -21 -19 -19 -19 -19 -18 -18 -18 -17 -17 -17 -17 -18 -17 -17 -17 -16
-24 -23 -24 -24 -24 -24 -25 -25 -25 -26 -26 -26 -26 -25 -28 -27 -27 -27 -26 -26 -26 -26 -26 -25 -24 -23 -23 -23 -23 -23 -21 -20 -20 -19 -19 -19 -18 -18 -18 -17 -17 -18 -18 -17 -17 -17 -17
-24 -24 -24 -24 -24 -24 -25 -25 -25 -26 -26 -26 -26 -26 -28 -28 -27 -27 -27 -27 -27 -26 -27 -26 -25 -23 -23 -23 -23 -23 -21 -22 -20 -20 -20 -19 -18 -18 -19 -18 -18 -18 -18 -18 -18 -17 -17
-24 -24 -24 -25 -25 -25 -25 -25 -26 -27 -27 -27 -27 -28 -29 -29 -29 -28 -28 -27 -27 -27 -27 -27 -26 -24 -24 -23 -23 -22 -22 -22 -21 -21 -20 -19 -19 -18 -19 -19 -19 -18 -18 -18 -18 -18 -16
-24 -25 -25 -25 -25 -25 -26 -26 -27 -27 -27 -28 -29 -30 -30 -30 -30 -29 -29 -28 -27 -27 -27 -27 -25 -25 -24 -24 -24 -24 -23 -23 -22 -21 -21 -20 -19 -18 -18 -19 -19 -18 -18 -18 -18 -18 -16
-25 -25 -25 -25 -26 -26 -26 -27 -27 -27 -28 -30 -31 -31 -31 -31 -31 -30 -29 -29 -28 -27 -27 -26 -26 -26 -26 -25 -24 -24 -23 -22 -22 -21 -21 -19 -19 -18 -18 -19 -19 -18 -18 -18 -18 -18 -16
-25 -25 -25 -26 -26 -26 -26 -27 -27 -28 -29 -31 -32 -32 -32 -31 -30 -29 -28 -28 -28 -27 -27 -27 -26 -26 -26 -25 -25 -24 -24 -23 -22 -22 -21 -20 -19 -19 -19 -19 -19 -18 -18 -18 -17 -17 -16
-25 -25 -26 -26 -26 -26 -27 -27 -28 -28 -29 -32 -33 -31 -31 -31 -30 -29 -28 -28 -28 -27 -27 -27 -27 -27 -26 -25 -24 -24 -24 -23 -23 -22 -21 -21 -20 -19 -19 -19 -19 -18 -18 -18 -17 -16 -16
-25 -26 -26 -26 -27 -28 -28 -28 -28 -28 -30 -32 -32 -32 -31 -31 -30 -29 -29 -28 -28 -27 -27 -27 -26 -26 -25 -25 -24 -24 -24 -24 -23 -22 -21 -21 -20 -19 -19 -20 -19 -18 -18 -17 -17 -16 -16
-25 -26 -26 -27 -28 -28 -28 -28 -28 -29 -30 -31 -31 -30 -31 -30 -30 -30 -29 -29 -28 -27 -27 -27 -26 -26 -25 -25 -25 -25 -24 -24 -24 -22 -22 -22 -22 -21 -21 -20 -19 -19 -18 -18 -17 -16 -17
-26 -26 -27 -27 -27 -28 -28 -28 -28 -29 -29 -30 -30 -30 -30 -30 -29 -29 -29 -28 -28 -27 -27 -27 -26 -26 -26 -25 -25 -25 -25 -24 -24 -24 -23 -23 -22 -21 -21 -20 -20 -19 -18 -18 -18 -17 -17
-26 -27 -27 -27 -27 -27 -27 -28 -29 -28 -29 -29 -29 -29 -29 -29 -29 -29 -29 -28 -28 -28 -28 -27 -26 -25 -25 -25 -25 -25 -25 -25 -24 -24 -24 -24 -23 -22 -22 -21 -20 -19 -19 -18 -18 -17 -17
-26 -26 -27 -27 -27 -27 -27 -28 -28 -28 -28 -29 -29 -29 -29 -29 -29 -29 -28 -28 -28 -28 -28 -27 -27 -26 -26 -25 -25 -25 -25 -25 -24 -24 -24 -23 -23 -23 -22 -21 -20 -19 -19 -18 -18 -18 -18
-26 -26 -27 -27 -27 -27 -27 -28 -28 -28 -28 -28 -28 -28 -29 -29 -28 -28 -28 -28 -28 -28 -27 -27 -26 -27 -26 -26 -26 -25 -25 -24 -24 -23 -23 -23 -23 -24 -23 -22 -21 -20 -19 -19 -19 -18 -18

GFSGBSN_500_temp_081.txt.gz
Temp
-12 -12 -12 -13 -13 -13 -13 -13 -13 -13 -13 -13 -13 -14 -14 -14 -14 -14 -14 -13 -13 -12 -12 -12 -12 -12 -12 -12 -12 -11 -11 -11 -11 -11 -11 -10 -10 -10 -10 -10 -10 -9 -10 -9 -9 -9 -10
-13 -13 -13 -13 -13 -13 -13 -13 -13 -14 -14 -14 -15 -15 -15 -15 -15 -15 -14 -14 -14 -13 -13 -12 -13 -13 -12 -13 -12 -11 -12 -12 -12 -12 -11 -11 -11 -10 -10 -10 -10 -10 -9 -10 -10 -10 -11
-14 -14 -14 -13 -14 -14 -14 -15 -15 -15 -15 -15 -15 -15 -16 -15 -15 -15 -15 -15 -15 -15 -14 -13 -13 -13 -13 -15 -13 -13 -13 -13 -12 -12 -12 -12 -12 -11 -10 -11 -10 -10 -10 -10 -10 -12 -12
-14 -14 -14 -14 -14 -14 -15 -15 -15 -16 -16 -16 -16 -16 -17 -17 -16 -16 -16 -16 -16 -15 -15 -15 -14 -14 -13 -14 -14 -13 -13 -14 -13 -13 -13 -13 -12 -12 -11 -12 -11 -11 -10 -10 -11 -12 -13
-14 -14 -15 -15 -16 -16 -16 -16 -16 -16 -17 -17 -17 -18 -18 -19 -18 -18 -18 -17 -17 -16 -16 -16 -15 -15 -14 -15 -15 -14 -14 -15 -14 -14 -14 -13 -12 -12 -12 -12 -12 -12 -11 -11 -11 -12 -13
-16 -16 -16 -16 -16 -17 -17 -17 -17 -18 -18 -18 -18 -18 -18 -18 -18 -18 -18 -18 -18 -17 -17 -16 -16 -16 -16 -15 -16 -15 -15 -15 -15 -14 -14 -14 -13 -12 -13 -13 -12 -13 -12 -11 -11 -13 -14
-16 -16 -17 -17 -17 -18 -18 -18 -18 -18 -18 -18 -18 -18 -18 -18 -18 -18 -18 -18 -18 -17 -17 -17 -16 -16 -16 -16 -17 -16 -16 -16 -15 -15 -15 -15 -14 -13 -15 -14 -13 -13 -12 -12 -12 -13 -13
-17 -17 -18 -18 -18 -18 -18 -18 -19 -19 -19 -19 -19 -18 -18 -19 -19 -18 -18 -18 -18 -17 -17 -17 -17 -16 -17 -17 -16 -17 -17 -17 -16 -15 -15 -15 -14 -15 -14 -14 -14 -14 -13 -12 -13 -14 -14
-18 -18 -18 -18 -19 -19 -19 -19 -19 -19 -19 -19 -19 -19 -19 -19 -20 -19 -19 -19 -19 -19 -17 -16 -17 -16 -17 -17 -16 -17 -17 -16 -16 -16 -16 -15 -15 -16 -15 -15 -14 -14 -13 -13 -13 -13 -14
-19 -19 -19 -19 -19 -20 -20 -20 -20 -20 -20 -20 -20 -20 -20 -20 -21 -20 -19 -20 -20 -20 -18 -16 -18 -17 -17 -18 -16 -18 -17 -17 -17 -17 -17 -16 -16 -15 -16 -15 -16 -14 -15 -14 -14 -14 -14
-20 -20 -20 -20 -20 -20 -20 -20 -20 -21 -21 -21 -21 -21 -21 -21 -22 -22 -22 -21 -21 -22 -19 -19 -18 -18 -18 -18 -17 -18 -18 -17 -17 -17 -17 -16 -16 -16 -16 -16 -16 -15 -15 -15 -15 -14 -15
-20 -20 -21 -20 -20 -20 -20 -21 -21 -21 -22 -22 -22 -23 -22 -23 -23 -23 -24 -24 -23 -23 -20 -21 -20 -20 -19 -19 -19 -18 -18 -18 -17 -17 -17 -17 -16 -17 -17 -16 -16 -16 -16 -16 -16 -15 -15
-21 -21 -21 -21 -21 -21 -21 -21 -22 -22 -22 -23 -23 -23 -23 -24 -25 -25 -26 -26 -26 -24 -23 -23 -22 -22 -21 -20 -19 -19 -19 -18 -18 -18 -17 -17 -17 -17 -17 -17 -17 -16 -16 -16 -15 -15 -14
-22 -21 -21 -21 -21 -21 -22 -22 -22 -23 -23 -23 -24 -24 -24 -26 -25 -26 -26 -26 -26 -25 -25 -25 -24 -23 -22 -21 -21 -21 -20 -19 -18 -18 -18 -18 -18 -18 -17 -17 -17 -17 -16 -16 -16 -15 -14
-22 -22 -22 -22 -22 -22 -22 -23 -24 -24 -24 -24 -24 -24 -26 -26 -25 -26 -26 -26 -26 -26 -26 -25 -24 -24 -22 -23 -22 -22 -21 -20 -19 -19 -19 -18 -18 -18 -18 -18 -17 -17 -16 -16 -16 -15 -15
-22 -22 -23 -22 -22 -23 -23 -24 -24 -24 -24 -24 -25 -25 -27 -26 -25 -25 -25 -25 -26 -26 -26 -26 -25 -24 -23 -23 -21 -22 -22 -21 -20 -19 -19 -19 -19 -18 -18 -18 -17 -17 -17 -16 -16 -16 -17
-23 -23 -23 -23 -23 -23 -24 -24 -24 -24 -25 -24 -25 -26 -26 -26 -26 -26 -25 -26 -27 -27 -27 -27 -25 -24 -23 -23 -22 -22 -22 -21 -21 -20 -20 -19 -19 -19 -18 -18 -18 -17 -17 -16 -17 -17 -18
-23 -23 -23 -23 -24 -24 -24 -24 -25 -25 -24 -25 -25 -26 -27 -27 -27 -27 -27 -28 -27 -27 -27 -27 -26 -25 -24 -23 -22 -23 -22 -22 -21 -21 -20 -20 -19 -19 -19 -19 -18 -17 -18 -18 -18 -18 -18
-24 -24 -24 -24 -24 -24 -25 -25 -25 -25 -25 -25 -26 -27 -27 -28 -29 -28 -28 -28 -27 -27 -27 -27 -26 -25 -25 -24 -23 -23 -23 -22 -21 -21 -21 -21 -20 -19 -19 -19 -18 -18 -18 -19 -19 -18 -18
-24 -24 -24 -24 -24 -25 -25 -25 -25 -26 -26 -27 -27 -28 -29 -29 -30 -30 -30 -29 -28 -28 -27 -27 -26 -26 -25 -25 -24 -23 -23 -22 -22 -22 -22 -21 -21 -20 -19 -19 -19 -18 -19 -19 -19 -18 -17
-24 -24 -24 -24 -25 -25 -25 -26 -26 -26 -27 -28 -28 -29 -30 -31 -31 -31 -31 -30 -29 -28 -27 -27 -26 -26 -26 -25 -24 -24 -23 -23 -23 -23 -22 -22 -21 -20 -19 -19 -19 -19 -19 -19 -18 -18 -17
-24 -24 -24 -25 -25 -25 -26 -26 -27 -28 -28 -29 -29 -30 -31 -31 -30 -31 -30 -29 -29 -29 -28 -28 -27 -26 -26 -26 -25 -24 -24 -24 -23 -23 -23 -22 -21 -20 -20 -19 -19 -18 -19 -19 -18 -18 -17
-24 -24 -24 -25 -25 -26 -26 -27 -28 -29 -29 -29 -30 -31 -31 -31 -31 -30 -30 -29 -28 -29 -28 -27 -27 -26 -26 -25 -25 -25 -25 -24 -24 -24 -23 -23 -22 -21 -20 -20 -19 -18 -19 -19 -18 -18 -18
-24 -24 -25 -25 -26 -26 -27 -28 -28 -29 -29 -29 -31 -31 -31 -31 -30 -30 -29 -28 -28 -28 -27 -27 -27 -26 -26 -25 -25 -25 -25 -24 -24 -24 -23 -23 -22 -21 -19 -20 -19 -19 -18 -19 -19 -18 -18
-25 -25 -25 -25 -26 -27 -27 -28 -28 -29 -29 -30 -31 -31 -31 -31 -31 -30 -30 -29 -28 -28 -27 -27 -27 -26 -26 -26 -26 -25 -25 -24 -24 -24 -23 -22 -22 -21 -20 -19 -19 -19 -19 -18 -18 -18 -17
-25 -25 -25 -26 -26 -27 -27 -28 -28 -29 -29 -30 -31 -31 -31 -30 -30 -30 -29 -29 -28 -28 -27 -27 -27 -27 -26 -26 -25 -25 -25 -24 -24 -23 -23 -22 -21 -21 -20 -19 -19 -20 -18 -19 -18 -17 -17
-25 -25 -26 -26 -26 -27 -27 -27 -28 -29 -29 -29 -30 -30 -30 -30 -29 -29 -29 -29 -28 -28 -27 -27 -27 -26 -26 -26 -25 -25 -25 -24 -24 -24 -24 -22 -21 -20 -20 -19 -19 -20 -19 -19 -18 -18 -18
-25 -25 -26 -26 -26 -27 -27 -27 -28 -29 -29 -29 -29 -30 -30 -29 -29 -28 -28 -28 -28 -28 -28 -27 -27 -27 -26 -26 -26 -25 -25 -24 -24 -24 -23 -23 -22 -22 -21 -20 -20 -20 -20 -19 -19 -19 -18
-25 -26 -26 -26 -27 -27 -27 -27 -28 -28 -29 -29 -29 -29 -29 -29 -29 -29 -29 -28 -28 -28 -28 -28 -27 -27 -27 -26 -26 -25 -25 -25 -25 -24 -24 -23 -23 -23 -23 -21 -20 -20 -20 -20 -20 -19 -19

GFSGBSN_500_temp_087.txt.gz
Temp
-12 -12 -12 -12 -11 -11 -11 -11 -12 -12 -12 -12 -12 -12 -12 -12 -13 -13 -13 -13 -13 -13 -14 -14 -14 -14 -14 -14 -14 -13 -14 -13 -13 -13 -12 -13 -12 -13 -12 -11 -11 -10 -11 -11 -10 -10 -10
-12 -12 -12 -12 -12 -12 -12 -12 -12 -12 -12 -12 -13 -13 -13 -13 -13 -14 -14 -14 -14 -15 -15 -15 -15 -15 -15 -15 -15 -14 -14 -14 -14 -14 -13 -13 -13 -12 -12 -12 -12 -11 -11 -11 -11 -10 -11
-13 -13 -13 -12 -13 -13 -13 -13 -13 -13 -13 -13 -14 -14 -14 -14 -14 -15 -15 -15 -15 -15 -15 -16 -16 -15 -15 -16 -15 -15 -15 -15 -15 -15 -14 -14 -13 -13 -12 -12 -12 -12 -11 -11 -11 -12 -11
-13 -13 -13 -13 -13 -13 -14 -14 -14 -14 -14 -15 -15 -15 -15 -15 -15 -15 -16 -16 -16 -16 -16 -16 -16 -16 -16 -16 -16 -16 -15 -16 -16 -17 -16 -16 -14 -13 -13 -13 -13 -12 -12 -11 -12 -12 -12
-13 -13 -14 -13 -13 -14 -15 -15 -15 -15 -15 -15 -15 -16 -16 -16 -16 -16 -17 -17 -17 -17 -17 -17 -17 -16 -16 -17 -17 -17 -16 -16 -16 -17 -19 -18 -16 -15 -14 -13 -13 -13 -12 -12 -13 -13 -12
-14 -14 -14 -14 -14 -15 -15 -15 -15 -16 -16 -16 -16 -16 -17 -17 -17 -17 -17 -17 -17 -17 -17 -17 -17 -17 -17 -17 -17 -17 -17 -17 -16 -17 -19 -18 -18 -16 -15 -14 -14 -15 -14 -13 -12 -13 -13
-14 -14 -14 -15 -15 -15 -16 -16 -16 -16 -16 -16 -17 -17 -17 -17 -17 -17 -17 -18 -18 -17 -17 -17 -17 -17 -17 -18 -17 -17 -17 -18 -17 -17 -17 -19 -18 -16 -17 -16 -16 -15 -14 -13 -13 -14 -13
-15 -15 -15 -15 -16 -16 -16 -16 -17 -17 -17 -17 -17 -18 -18 -18 -18 -18 -18 -18 -17 -17 -16 -18 -18 -18 -18 -18 -17 -17 -18 -18 -18 -18 -18 -18 -18 -18 -18 -17 -16 -15 -15 -14 -14 -14 -13
-15 -15 -16 -16 -17 -17 -17 -17 -17 -18 -18 -18 -18 -18 -18 -18 -19 -19 -19 -19 -18 -18 -17 -17 -17 -17 -18 -19 -18 -17 -19 -18 -18 -19 -19 -18 -19 -19 -19 -18 -17 -16 -16 -15 -15 -15 -14
-16 -16 -17 -17 -18 -18 -18 -18 -18 -18 -18 -18 -19 -19 -19 -19 -19 -19 -20 -19 -19 -19 -19 -20 -20 -20 -20 -20 -20 -18 -19 -18 -18 -19 -20 -19 -19 -19 -19 -18 -18 -17 -16 -16 -16 -15 -14
-17 -17 -17 -18 -18 -18 -18 -18 -19 -19 -19 -19 -19 -19 -19 -20 -20 -20 -20 -20 -20 -21 -21 -22 -22 -22 -22 -22 -21 -20 -19 -19 -18 -19 -19 -19 -20 -20 -19 -18 -18 -17 -17 -16 -16 -15 -14
-17 -17 -18 -18 -19 -19 -19 -20 -20 -20 -20 -20 -20 -20 -20 -20 -20 -20 -21 -21 -22 -22 -22 -23 -23 -24 -24 -24 -24 -21 -21 -20 -19 -19 -19 -20 -20 -20 -19 -19 -19 -18 -17 -17 -16 -16 -14
-18 -18 -18 -19 -21 -20 -20 -20 -20 -20 -20 -20 -21 -20 -20 -21 -21 -21 -22 -23 -23 -23 -23 -23 -24 -24 -25 -24 -24 -23 -22 -21 -20 -19 -19 -19 -20 -19 -19 -18 -18 -18 -17 -17 -16 -16 -15
-18 -19 -19 -21 -22 -21 -21 -21 -21 -21 -21 -21 -21 -21 -21 -21 -22 -22 -23 -24 -24 -24 -24 -24 -25 -25 -25 -25 -24 -24 -23 -22 -21 -20 -20 -20 -20 -20 -19 -19 -18 -18 -17 -17 -17 -16 -16
-19 -20 -22 -23 -22 -21 -21 -22 -21 -21 -22 -22 -22 -22 -22 -22 -22 -23 -24 -24 -24 -24 -24 -24 -25 -24 -25 -25 -24 -24 -23 -22 -22 -22 -21 -20 -20 -20 -19 -19 -19 -18 -18 -17 -17 -17 -16
-20 -22 -23 -23 -22 -22 -22 -22 -22 -22 -22 -22 -22 -22 -22 -23 -23 -24 -24 -25 -25 -25 -25 -25 -24 -25 -25 -25 -24 -24 -24 -23 -23 -22 -22 -21 -21 -20 -20 -19 -19 -18 -18 -18 -18 -17 -16
-21 -23 -24 -23 -23 -22 -22 -22 -22 -23 -22 -22 -23 -23 -23 -23 -23 -24 -26 -27 -27 -27 -26 -25 -25 -25 -25 -25 -24 -24 -23 -23 -23 -23 -22 -22 -21 -21 -21 -20 -19 -19 -19 -18 -18 -17 -17
-24 -24 -24 -23 -23 -23 -23 -23 -23 -23 -23 -23 -23 -23 -23 -23 -25 -25 -27 -27 -27 -27 -27 -26 -25 -25 -26 -25 -25 -24 -23 -23 -23 -23 -23 -22 -22 -22 -21 -21 -20 -19 -19 -19 -18 -17 -17
-24 -24 -23 -23 -23 -23 -23 -23 -23 -23 -23 -23 -23 -24 -24 -25 -25 -26 -27 -27 -27 -27 -28 -27 -26 -26 -26 -25 -24 -23 -23 -22 -21 -22 -22 -22 -22 -22 -21 -21 -20 -20 -20 -19 -18 -18 -18
-25 -24 -24 -24 -24 -24 -24 -24 -23 -23 -23 -24 -24 -24 -25 -25 -26 -26 -27 -28 -29 -30 -30 -29 -28 -27 -26 -26 -24 -24 -23 -23 -22 -22 -22 -23 -22 -22 -22 -21 -21 -20 -20 -20 -19 -18 -18
-25 -24 -24 -24 -24 -24 -24 -24 -23 -24 -24 -24 -24 -25 -25 -26 -26 -27 -30 -31 -31 -31 -30 -30 -29 -28 -27 -26 -25 -25 -23 -23 -23 -22 -23 -22 -23 -23 -22 -22 -21 -21 -21 -20 -19 -19 -18
-25 -25 -25 -25 -24 -24 -24 -24 -24 -24 -24 -24 -25 -25 -26 -26 -27 -30 -30 -30 -30 -30 -30 -30 -29 -28 -27 -26 -25 -24 -25 -24 -24 -23 -23 -22 -22 -22 -22 -22 -21 -21 -21 -20 -20 -19 -18
-25 -25 -25 -25 -25 -25 -24 -24 -24 -24 -24 -25 -25 -26 -26 -27 -29 -30 -29 -30 -30 -30 -29 -29 -28 -27 -27 -27 -26 -25 -26 -25 -25 -25 -23 -23 -23 -23 -23 -23 -22 -21 -21 -20 -20 -19 -19
-26 -26 -25 -25 -25 -25 -25 -24 -24 -24 -25 -25 -26 -26 -27 -28 -29 -29 -29 -30 -29 -28 -28 -28 -27 -27 -27 -27 -27 -26 -26 -26 -25 -25 -24 -23 -23 -23 -23 -22 -22 -21 -21 -20 -20 -19 -19
-26 -26 -25 -25 -25 -25 -25 -25 -24 -25 -25 -26 -26 -27 -27 -29 -29 -29 -29 -29 -28 -28 -27 -27 -27 -27 -27 -27 -27 -27 -26 -26 -25 -25 -24 -24 -23 -23 -22 -22 -21 -22 -21 -20 -19 -20 -19
-26 -26 -26 -26 -25 -25 -25 -25 -25 -25 -26 -26 -26 -27 -28 -29 -28 -29 -29 -29 -28 -28 -28 -27 -27 -27 -27 -27 -26 -27 -26 -26 -25 -24 -24 -23 -23 -22 -22 -22 -21 -22 -21 -20 -19 -19 -19
-27 -27 -26 -26 -25 -25 -25 -25 -25 -26 -26 -26 -26 -27 -28 -29 -29 -29 -29 -28 -28 -28 -28 -28 -27 -27 -27 -27 -27 -26 -26 -25 -25 -24 -24 -23 -23 -23 -22 -22 -22 -22 -21 -20 -20 -19 -19
-27 -27 -26 -26 -26 -25 -25 -25 -25 -26 -26 -27 -27 -27 -29 -29 -29 -29 -29 -29 -29 -28 -28 -28 -28 -27 -27 -27 -27 -26 -25 -25 -25 -24 -24 -24 -24 -23 -23 -22 -22 -22 -21 -20 -20 -20 -19
-27 -27 -27 -26 -26 -26 -25 -25 -26 -26 -26 -27 -27 -28 -28 -29 -29 -29 -29 -29 -29 -28 -28 -28 -28 -27 -27 -27 -27 -27 -26 -25 -25 -25 -24 -24 -24 -23 -23 -23 -23 -21 -21 -21 -21 -20 -20

GFSGBSN_500_temp_093.txt.gz
Temp
-12 -12 -11 -12 -12 -12 -12 -11 -11 -11 -11 -10 -11 -11 -11 -11 -11 -10 -10 -11 -11 -11 -12 -11 -11 -12 -12 -12 -12 -12 -11 -12 -12 -13 -14 -13 -13 -13 -12 -13 -13 -12 -12 -12 -12 -11 -11
-12 -12 -12 -11 -11 -12 -12 -12 -12 -12 -12 -11 -11 -11 -12 -12 -12 -11 -11 -12 -12 -12 -12 -12 -12 -12 -12 -13 -13 -13 -13 -14 -14 -14 -14 -14 -14 -14 -13 -14 -13 -13 -12 -12 -13 -12 -12
-12 -12 -12 -12 -12 -12 -12 -12 -12 -12 -12 -12 -12 -12 -12 -13 -13 -12 -13 -13 -13 -13 -13 -12 -12 -13 -13 -14 -14 -15 -15 -15 -15 -15 -15 -14 -14 -14 -15 -15 -14 -14 -13 -13 -12 -13 -13
-12 -12 -12 -13 -13 -13 -13 -13 -13 -12 -12 -12 -13 -13 -13 -13 -13 -13 -13 -14 -14 -14 -14 -13 -13 -13 -14 -14 -14 -15 -16 -16 -16 -16 -16 -16 -15 -15 -16 -16 -15 -15 -15 -13 -13 -13 -13
-12 -12 -12 -13 -13 -13 -13 -13 -13 -13 -13 -13 -13 -13 -14 -14 -14 -14 -14 -14 -14 -14 -14 -14 -14 -14 -14 -15 -15 -16 -16 -16 -16 -16 -16 -16 -16 -16 -16 -16 -16 -16 -14 -16 -15 -14 -13
-12 -13 -13 -13 -13 -13 -13 -13 -14 -13 -14 -14 -14 -14 -14 -14 -15 -15 -15 -15 -15 -15 -15 -16 -15 -15 -15 -15 -16 -16 -16 -16 -17 -17 -17 -17 -16 -17 -16 -16 -16 -17 -16 -16 -17 -16 -14
-13 -13 -13 -13 -14 -14 -14 -14 -14 -14 -14 -14 -15 -15 -14 -15 -16 -16 -16 -16 -16 -16 -17 -16 -16 -15 -16 -16 -16 -16 -17 -17 -17 -17 -17 -17 -17 -16 -17 -17 -17 -18 -18 -16 -17 -17 -16
-14 -14 -14 -14 -14 -14 -14 -14 -15 -15 -15 -15 -15 -15 -16 -16 -16 -16 -17 -17 -17 -16 -16 -17 -16 -16 -17 -17 -17 -17 -17 -17 -17 -17 -17 -18 -17 -17 -18 -18 -17 -18 -18 -17 -18 -18 -17
-15 -14 -15 -15 -14 -14 -15 -15 -15 -15 -15 -15 -16 -16 -17 -17 -17 -17 -17 -17 -17 -17 -16 -16 -16 -16 -17 -17 -17 -18 -18 -18 -18 -18 -18 -19 -18 -18 -19 -18 -18 -17 -18 -19 -19 -19 -18
-14 -14 -15 -15 -15 -15 -15 -15 -15 -15 -16 -16 -17 -17 -17 -18 -17 -17 -17 -17 -17 -17 -17 -17 -16 -17 -17 -18 -19 -18 -19 -19 -19 -19 -20 -20 -20 -20 -19 -18 -18 -17 -19 -21 -21 -20 -18
-14 -14 -15 -15 -15 -15 -16 -16 -16 -16 -16 -17 -18 -18 -18 -19 -18 -18 -18 -17 -17 -17 -18 -18 -18 -19 -19 -19 -19 -21 -20 -21 -21 -21 -22 -20 -21 -23 -23 -19 -19 -18 -19 -20 -20 -19 -19
-15 -15 -16 -15 -15 -16 -16 -16 -16 -16 -16 -18 -18 -19 -19 -20 -19 -19 -18 -18 -18 -18 -19 -20 -19 -19 -20 -20 -21 -23 -23 -23 -23 -23 -23 -22 -22 -23 -23 -23 -20 -20 -19 -20 -20 -20 -19
-16 -16 -16 -16 -16 -16 -16 -17 -16 -16 -17 -19 -20 -20 -20 -20 -19 -19 -19 -19 -19 -19 -20 -20 -20 -20 -22 -22 -22 -25 -27 -25 -25 -25 -23 -24 -24 -23 -22 -22 -21 -20 -20 -20 -20 -19 -17
-17 -17 -16 -17 -17 -17 -17 -17 -17 -17 -18 -19 -21 -21 -21 -20 -20 -20 -20 -19 -20 -20 -20 -20 -21 -22 -23 -23 -24 -27 -27 -25 -26 -26 -24 -23 -24 -23 -22 -22 -21 -20 -20 -21 -20 -19 -19
-17 -17 -17 -17 -17 -17 -18 -17 -18 -19 -20 -21 -21 -21 -21 -20 -20 -20 -20 -20 -21 -20 -20 -21 -22 -23 -24 -25 -26 -26 -27 -26 -25 -24 -24 -24 -23 -22 -23 -22 -22 -21 -20 -20 -19 -18 -18
-18 -18 -18 -18 -18 -18 -18 -19 -21 -20 -21 -22 -22 -21 -21 -21 -20 -20 -20 -21 -21 -21 -21 -22 -23 -23 -24 -25 -26 -26 -26 -25 -24 -24 -24 -23 -23 -22 -22 -22 -21 -21 -21 -21 -20 -20 -20
-18 -18 -18 -19 -19 -19 -19 -22 -22 -23 -23 -23 -22 -21 -21 -21 -21 -21 -21 -21 -21 -22 -23 -23 -23 -24 -24 -25 -25 -25 -25 -25 -24 -24 -24 -24 -23 -22 -22 -22 -21 -20 -20 -20 -20 -20 -20
-19 -19 -19 -19 -19 -20 -21 -23 -24 -23 -24 -24 -23 -22 -22 -21 -21 -21 -21 -22 -22 -23 -23 -23 -24 -26 -25 -24 -24 -24 -25 -25 -24 -23 -23 -23 -22 -22 -21 -21 -21 -22 -21 -20 -20 -19 -20
-19 -19 -20 -20 -20 -21 -23 -25 -24 -25 -24 -24 -23 -23 -22 -22 -22 -22 -22 -23 -23 -23 -25 -27 -29 -29 -27 -25 -24 -24 -24 -24 -24 -23 -23 -22 -22 -21 -21 -21 -21 -21 -21 -21 -20 -20 -19
-20 -20 -20 -21 -22 -24 -26 -24 -25 -25 -24 -24 -23 -23 -22 -22 -22 -23 -23 -23 -24 -26 -28 -29 -30 -30 -29 -27 -25 -25 -25 -24 -24 -23 -22 -22 -21 -21 -20 -20 -20 -20 -20 -20 -21 -21 -20
-20 -21 -21 -22 -23 -26 -26 -25 -25 -25 -24 -24 -23 -23 -23 -23 -23 -24 -24 -26 -27 -27 -28 -29 -29 -29 -29 -29 -26 -26 -24 -25 -24 -23 -23 -22 -22 -21 -21 -20 -21 -21 -21 -21 -21 -21 -20
-21 -21 -22 -23 -24 -25 -25 -26 -25 -25 -24 -24 -23 -23 -23 -23 -24 -24 -26 -27 -27 -28 -28 -29 -29 -29 -29 -28 -26 -26 -25 -24 -24 -22 -23 -22 -22 -22 -21 -22 -22 -22 -22 -21 -21 -20 -20
-22 -22 -23 -24 -24 -25 -26 -25 -25 -25 -25 -24 -24 -23 -23 -24 -24 -25 -26 -27 -27 -27 -27 -28 -28 -28 -28 -27 -26 -25 -24 -24 -24 -23 -22 -22 -22 -22 -22 -22 -22 -22 -22 -22 -21 -21 -20
-23 -23 -24 -25 -25 -26 -26 -25 -25 -25 -25 -24 -24 -24 -24 -25 -25 -26 -27 -27 -27 -27 -27 -27 -28 -27 -27 -26 -25 -25 -24 -24 -24 -23 -22 -22 -22 -22 -22 -22 -22 -22 -22 -22 -21 -21 -21
-23 -24 -25 -25 -25 -26 -26 -26 -25 -25 -25 -24 -24 -24 -25 -25 -25 -27 -27 -27 -28 -27 -27 -27 -28 -27 -26 -26 -25 -25 -25 -25 -24 -24 -23 -22 -22 -22 -22 -23 -23 -23 -22 -22 -21 -21 -20
-24 -25 -25 -25 -26 -26 -26 -26 -26 -25 -25 -25 -24 -24 -25 -25 -26 -27 -27 -27 -28 -27 -27 -27 -27 -27 -26 -26 -25 -25 -25 -25 -24 -23 -23 -23 -23 -23 -23 -23 -23 -22 -22 -21 -21 -21 -20
-25 -25 -26 -26 -27 -27 -26 -26 -26 -25 -25 -25 -25 -25 -25 -25 -26 -27 -27 -27 -28 -27 -27 -27 -27 -27 -27 -26 -25 -25 -25 -25 -25 -25 -25 -24 -23 -23 -22 -22 -22 -22 -21 -21 -21 -21 -20
-25 -26 -26 -26 -27 -26 -26 -26 -26 -26 -25 -25 -25 -25 -26 -26 -26 -28 -28 -28 -28 -27 -27 -27 -27 -27 -27 -26 -26 -26 -25 -25 -24 -24 -24 -23 -23 -23 -22 -22 -22 -21 -21 -21 -21 -20 -20
-25 -25 -25 -26 -26 -27 -26 -26 -26 -26 -25 -25 -26 -26 -26 -26 -27 -28 -28 -28 -28 -28 -27 -27 -27 -27 -27 -27 -26 -26 -25 -25 -25 -24 -24 -23 -23 -23 -22 -22 -22 -22 -22 -21 -21 -21 -21

GFSGBSN_500_temp_096.txt.gz
Temp
-12 -12 -12 -12 -12 -12 -12 -12 -12 -11 -11 -11 -11 -11 -11 -11 -11 -10 -11 -11 -11 -11 -11 -10 -10 -10 -10 -11 -10 -11 -11 -11 -11 -11 -12 -12 -12 -13 -13 -13 -13 -13 -12 -12 -12 -12 -12
-12 -12 -12 -12 -12 -12 -12 -11 -11 -12 -12 -11 -11 -11 -11 -12 -12 -12 -11 -12 -11 -11 -11 -11 -11 -11 -11 -11 -12 -12 -12 -12 -12 -12 -13 -13 -13 -14 -13 -13 -14 -14 -14 -13 -13 -12 -12
-12 -12 -12 -12 -12 -12 -12 -12 -12 -12 -12 -12 -11 -12 -12 -12 -12 -12 -12 -12 -13 -12 -12 -12 -12 -12 -12 -13 -12 -13 -13 -13 -13 -13 -13 -14 -15 -15 -15 -15 -15 -14 -14 -14 -14 -13 -13
-12 -12 -12 -12 -12 -12 -12 -12 -12 -12 -13 -12 -12 -13 -13 -12 -13 -12 -13 -13 -13 -13 -13 -13 -13 -13 -13 -13 -14 -14 -13 -13 -14 -14 -15 -15 -15 -15 -16 -16 -15 -15 -15 -14 -14 -15 -14
-12 -12 -12 -12 -12 -12 -12 -12 -13 -13 -13 -13 -13 -13 -13 -13 -13 -13 -14 -13 -13 -14 -14 -13 -14 -14 -13 -14 -14 -15 -15 -15 -15 -15 -15 -15 -16 -16 -15 -16 -16 -15 -15 -15 -15 -16 -16
-12 -12 -13 -13 -13 -13 -13 -13 -13 -13 -13 -14 -14 -14 -14 -14 -14 -14 -15 -14 -14 -14 -15 -15 -15 -14 -15 -14 -14 -15 -15 -15 -15 -15 -15 -16 -16 -16 -15 -16 -16 -16 -17 -16 -16 -16 -16
-14 -14 -13 -13 -13 -13 -14 -14 -14 -14 -14 -14 -14 -14 -15 -15 -15 -15 -15 -15 -16 -15 -16 -15 -15 -15 -17 -16 -16 -16 -15 -16 -16 -16 -16 -16 -16 -15 -17 -17 -17 -17 -17 -17 -16 -17 -19
-14 -14 -14 -14 -14 -14 -14 -14 -14 -14 -14 -14 -14 -15 -15 -15 -15 -15 -16 -16 -16 -16 -15 -16 -16 -16 -16 -17 -17 -17 -16 -16 -16 -16 -17 -17 -17 -17 -18 -18 -18 -17 -17 -17 -17 -17 -18
-14 -15 -14 -14 -15 -15 -15 -14 -14 -14 -14 -15 -15 -15 -15 -15 -15 -16 -17 -17 -17 -17 -16 -16 -16 -16 -17 -16 -17 -17 -16 -17 -17 -17 -17 -18 -18 -18 -18 -18 -18 -18 -18 -17 -17 -18 -18
-15 -15 -15 -15 -15 -15 -15 -14 -15 -15 -15 -15 -15 -15 -15 -16 -16 -17 -18 -17 -18 -18 -17 -16 -16 -16 -16 -16 -17 -16 -17 -17 -17 -18 -18 -19 -19 -20 -20 -22 -21 -20 -20 -21 -18 -18 -17
-15 -15 -15 -15 -15 -14 -15 -15 -15 -15 -16 -16 -16 -15 -16 -16 -16 -17 -17 -18 -18 -18 -18 -18 -16 -17 -17 -17 -18 -18 -18 -19 -18 -19 -21 -20 -22 -22 -22 -21 -22 -22 -22 -21 -19 -18 -19
-16 -16 -15 -15 -15 -15 -15 -15 -16 -15 -16 -16 -16 -16 -16 -18 -19 -18 -18 -18 -18 -19 -19 -18 -18 -18 -18 -18 -18 -19 -19 -20 -21 -23 -25 -23 -23 -23 -23 -22 -22 -22 -21 -21 -20 -19 -18
-16 -16 -17 -17 -16 -16 -15 -15 -16 -16 -16 -16 -16 -16 -18 -19 -20 -20 -19 -19 -19 -19 -19 -19 -19 -19 -19 -19 -19 -20 -20 -22 -22 -24 -25 -24 -23 -23 -24 -23 -22 -22 -22 -21 -20 -19 -17
-17 -17 -17 -17 -17 -17 -16 -16 -16 -17 -17 -17 -17 -18 -20 -20 -20 -20 -20 -20 -19 -20 -20 -20 -20 -20 -19 -20 -21 -21 -22 -22 -23 -25 -25 -24 -23 -23 -23 -23 -21 -21 -21 -20 -20 -19 -19
-18 -18 -17 -17 -17 -17 -17 -17 -17 -17 -17 -18 -19 -20 -21 -20 -21 -21 -20 -20 -20 -19 -20 -20 -20 -20 -20 -21 -23 -23 -23 -24 -26 -25 -25 -24 -23 -23 -23 -23 -21 -21 -21 -20 -20 -19 -18
-18 -18 -18 -17 -17 -17 -18 -18 -18 -18 -18 -19 -20 -21 -21 -22 -21 -21 -20 -20 -20 -19 -20 -20 -20 -20 -21 -22 -23 -25 -24 -25 -26 -25 -24 -23 -23 -23 -23 -22 -21 -21 -21 -21 -20 -19 -18
-19 -18 -18 -18 -18 -18 -18 -19 -19 -20 -20 -21 -22 -23 -22 -22 -21 -21 -20 -20 -20 -20 -20 -20 -21 -21 -23 -24 -25 -25 -25 -25 -25 -25 -24 -24 -23 -23 -22 -21 -21 -21 -21 -20 -20 -19 -19
-19 -18 -19 -18 -19 -19 -19 -21 -20 -21 -21 -23 -23 -23 -22 -21 -21 -21 -21 -20 -20 -21 -21 -21 -22 -23 -25 -27 -28 -26 -25 -25 -24 -24 -24 -24 -23 -23 -22 -21 -21 -23 -21 -20 -20 -20 -19
-19 -19 -19 -19 -19 -20 -21 -21 -22 -23 -23 -23 -24 -23 -22 -22 -22 -21 -21 -21 -21 -21 -22 -23 -25 -27 -28 -28 -28 -26 -25 -25 -25 -24 -23 -23 -23 -22 -21 -21 -21 -21 -21 -20 -20 -19 -19
-19 -19 -20 -20 -20 -22 -22 -23 -24 -23 -25 -25 -24 -23 -23 -22 -22 -21 -21 -22 -22 -23 -24 -25 -27 -28 -28 -28 -28 -27 -25 -25 -24 -24 -23 -23 -22 -21 -21 -21 -21 -20 -21 -20 -20 -19 -19
-20 -20 -20 -22 -22 -22 -24 -24 -25 -26 -25 -24 -24 -23 -23 -22 -22 -21 -22 -23 -25 -25 -26 -26 -27 -28 -29 -28 -28 -26 -25 -25 -24 -24 -23 -23 -23 -22 -20 -20 -20 -20 -20 -19 -19 -19 -20
-20 -21 -22 -22 -23 -24 -24 -26 -26 -25 -25 -25 -24 -24 -23 -23 -22 -22 -23 -24 -26 -26 -26 -27 -27 -28 -28 -27 -27 -25 -25 -25 -24 -23 -23 -22 -22 -22 -20 -20 -21 -20 -20 -21 -20 -21 -20
-21 -22 -22 -23 -24 -25 -26 -26 -25 -25 -25 -24 -24 -24 -23 -23 -23 -23 -24 -26 -26 -27 -27 -26 -27 -27 -27 -26 -26 -25 -25 -24 -24 -23 -22 -22 -22 -22 -21 -22 -22 -21 -22 -22 -20 -21 -21
-22 -23 -23 -23 -25 -25 -26 -25 -26 -26 -25 -25 -24 -24 -23 -23 -23 -24 -25 -26 -26 -27 -27 -27 -27 -27 -26 -25 -25 -25 -24 -24 -24 -23 -23 -23 -22 -22 -22 -22 -22 -21 -21 -21 -21 -21 -21
-23 -23 -24 -24 -25 -26 -26 -26 -26 -26 -25 -25 -25 -24 -24 -24 -24 -24 -25 -26 -27 -27 -27 -26 -27 -26 -26 -25 -25 -25 -24 -24 -23 -23 -22 -22 -21 -22 -22 -22 -22 -21 -21 -21 -22 -21 -21
-24 -24 -24 -25 -25 -25 -26 -27 -26 -25 -25 -25 -25 -24 -24 -24 -25 -25 -26 -27 -27 -27 -27 -26 -27 -26 -25 -25 -25 -25 -24 -24 -24 -23 -23 -22 -22 -22 -22 -22 -22 -22 -22 -22 -21 -21 -21
-24 -24 -24 -25 -26 -26 -26 -27 -26 -26 -25 -25 -25 -24 -24 -25 -25 -25 -27 -27 -27 -27 -27 -27 -26 -27 -26 -25 -25 -25 -25 -24 -24 -24 -23 -22 -22 -22 -22 -22 -22 -22 -22 -22 -21 -21 -21
-25 -25 -25 -26 -26 -26 -27 -27 -26 -26 -26 -25 -25 -24 -25 -25 -25 -26 -27 -28 -27 -27 -27 -27 -26 -26 -26 -26 -25 -25 -25 -24 -24 -24 -25 -24 -23 -23 -23 -22 -22 -22 -22 -21 -21 -21 -21
-26 -25 -25 -26 -26 -27 -27 -26 -27 -26 -26 -25 -25 -25 -25 -26 -26 -27 -27 -28 -28 -27 -27 -27 -27 -27 -26 -26 -25 -25 -25 -25 -24 -24 -24 -24 -23 -23 -22 -22 -22 -22 -22 -22 -21 -22 -21

GFSGBSN_500_temp_102.txt.gz
Temp
-12 -12 -12 -12 -12 -12 -12 -12 -12 -12 -12 -12 -12 -12 -12 -12 -12 -12 -12 -12 -12 -12 -11 -10 -10 -10 -10 -11 -11 -11 -11 -11 -11 -11 -11 -11 -12 -11 -11 -11 -12 -11 -12 -11 -11 -11 -11
-12 -12 -12 -12 -12 -12 -12 -12 -12 -12 -12 -12 -12 -12 -12 -12 -12 -12 -12 -12 -12 -11 -11 -11 -11 -11 -11 -12 -11 -12 -12 -12 -12 -12 -12 -12 -12 -12 -12 -12 -12 -12 -11 -12 -12 -13 -13
-12 -13 -13 -13 -12 -13 -12 -12 -12 -12 -12 -12 -12 -12 -12 -12 -12 -12 -12 -12 -12 -12 -12 -12 -12 -12 -12 -12 -12 -13 -13 -13 -12 -12 -13 -13 -13 -12 -12 -13 -13 -13 -13 -12 -13 -13 -13
-13 -13 -13 -13 -13 -13 -13 -12 -13 -13 -13 -13 -13 -13 -12 -12 -12 -12 -12 -13 -13 -13 -13 -13 -12 -12 -13 -13 -13 -13 -13 -14 -13 -13 -14 -14 -14 -13 -13 -13 -14 -14 -14 -13 -13 -14 -14
-13 -12 -13 -14 -14 -13 -13 -13 -13 -13 -14 -14 -14 -14 -13 -13 -13 -12 -13 -13 -13 -13 -13 -13 -13 -13 -14 -14 -14 -14 -14 -14 -14 -14 -14 -15 -14 -14 -14 -15 -14 -15 -15 -15 -12 -15 -15
-13 -13 -13 -14 -14 -14 -14 -13 -14 -13 -15 -14 -14 -14 -14 -14 -14 -14 -13 -13 -14 -13 -14 -14 -13 -14 -14 -14 -15 -15 -15 -15 -15 -14 -14 -15 -15 -15 -15 -16 -15 -15 -15 -15 -15 -14 -16
-13 -13 -14 -14 -15 -15 -14 -14 -14 -14 -15 -15 -15 -13 -14 -14 -15 -14 -13 -13 -14 -14 -15 -15 -14 -14 -14 -15 -15 -16 -17 -16 -15 -15 -15 -15 -15 -15 -16 -16 -16 -16 -16 -16 -15 -15 -17
-14 -14 -14 -15 -15 -15 -15 -14 -14 -15 -15 -15 -15 -15 -14 -14 -15 -15 -14 -13 -14 -15 -15 -15 -15 -14 -15 -15 -15 -17 -16 -16 -16 -16 -15 -15 -15 -16 -16 -16 -16 -16 -16 -15 -16 -15 -18
-15 -15 -16 -16 -16 -16 -16 -15 -16 -16 -15 -16 -15 -15 -15 -16 -15 -15 -14 -13 -14 -15 -15 -15 -15 -15 -15 -16 -16 -16 -16 -16 -17 -17 -17 -16 -16 -16 -16 -16 -16 -16 -16 -17 -18 -17 -18
-16 -17 -17 -17 -17 -17 -16 -16 -16 -17 -16 -16 -15 -16 -16 -15 -15 -15 -15 -14 -15 -14 -15 -15 -16 -16 -17 -17 -17 -17 -17 -17 -17 -16 -16 -16 -16 -16 -16 -15 -16 -17 -18 -21 -21 -20 -21
-18 -18 -18 -18 -17 -17 -17 -17 -17 -17 -17 -17 -17 -16 -16 -15 -16 -15 -15 -16 -16 -15 -16 -16 -15 -16 -17 -18 -18 -18 -18 -17 -17 -17 -17 -15 -16 -16 -16 -16 -18 -19 -21 -21 -22 -22 -22
-19 -19 -18 -18 -18 -18 -17 -17 -17 -17 -17 -17 -18 -17 -17 -17 -16 -16 -16 -16 -16 -17 -17 -16 -16 -17 -18 -19 -19 -18 -18 -18 -17 -17 -17 -16 -16 -16 -17 -18 -19 -21 -22 -22 -23 -23 -22
-19 -19 -19 -19 -19 -18 -18 -18 -18 -18 -18 -18 -18 -18 -18 -18 -17 -17 -17 -17 -18 -17 -18 -17 -18 -18 -18 -18 -18 -18 -17 -17 -17 -17 -17 -17 -16 -17 -21 -21 -22 -23 -24 -23 -24 -23 -21
-20 -20 -20 -19 -19 -19 -18 -19 -18 -18 -18 -17 -18 -18 -17 -18 -18 -18 -17 -18 -19 -18 -18 -19 -19 -19 -19 -18 -18 -18 -18 -17 -18 -18 -17 -16 -16 -19 -22 -24 -23 -24 -24 -24 -23 -23 -21
-20 -20 -20 -19 -19 -19 -19 -19 -18 -19 -18 -18 -18 -18 -18 -18 -18 -18 -18 -20 -20 -20 -20 -20 -20 -19 -19 -19 -18 -18 -18 -18 -18 -18 -19 -19 -20 -22 -24 -24 -24 -23 -23 -23 -23 -22 -22
-20 -20 -19 -19 -19 -20 -19 -19 -19 -19 -18 -19 -19 -18 -18 -19 -19 -19 -19 -20 -20 -21 -21 -21 -20 -20 -19 -19 -19 -19 -18 -19 -19 -20 -22 -23 -23 -24 -25 -23 -24 -23 -23 -23 -23 -22 -22
-21 -21 -20 -20 -20 -19 -20 -19 -19 -19 -19 -19 -19 -18 -18 -20 -21 -21 -21 -21 -21 -21 -21 -21 -20 -20 -19 -19 -19 -19 -18 -19 -21 -23 -25 -24 -24 -24 -24 -24 -23 -23 -22 -23 -22 -22 -21
-20 -20 -20 -20 -20 -20 -20 -20 -19 -19 -19 -19 -19 -19 -21 -21 -21 -22 -22 -22 -22 -21 -21 -20 -20 -20 -20 -19 -19 -20 -21 -22 -25 -25 -25 -25 -24 -23 -24 -23 -23 -22 -22 -22 -22 -22 -21
-20 -20 -20 -20 -20 -20 -19 -19 -19 -19 -19 -19 -20 -21 -22 -21 -23 -23 -23 -22 -22 -21 -21 -21 -20 -20 -20 -20 -20 -23 -26 -26 -25 -25 -25 -25 -24 -23 -23 -23 -23 -22 -22 -22 -21 -20 -20
-21 -20 -20 -20 -20 -20 -20 -20 -20 -20 -20 -20 -21 -22 -22 -23 -23 -23 -23 -22 -21 -21 -21 -21 -21 -21 -22 -23 -23 -25 -26 -25 -25 -25 -25 -25 -24 -23 -23 -22 -22 -21 -21 -21 -21 -21 -20
-21 -21 -21 -20 -20 -20 -20 -20 -20 -20 -21 -21 -22 -24 -24 -23 -23 -23 -22 -22 -21 -21 -21 -22 -22 -23 -23 -24 -25 -25 -25 -25 -25 -25 -24 -23 -23 -22 -22 -22 -22 -22 -22 -21 -21 -21 -20
-21 -21 -20 -21 -20 -20 -20 -21 -21 -21 -22 -24 -25 -24 -24 -23 -23 -23 -22 -22 -21 -22 -23 -23 -24 -24 -24 -24 -25 -25 -25 -25 -24 -24 -23 -22 -22 -21 -21 -22 -22 -22 -22 -21 -21 -21 -21
-21 -21 -21 -21 -21 -21 -21 -22 -22 -23 -24 -25 -24 -24 -24 -24 -23 -22 -22 -22 -22 -23 -24 -25 -25 -24 -25 -25 -25 -25 -24 -24 -24 -23 -23 -22 -21 -21 -21 -21 -22 -22 -22 -20 -21 -21 -21
-22 -22 -22 -22 -22 -22 -22 -23 -24 -25 -25 -24 -24 -24 -24 -23 -23 -23 -22 -23 -23 -24 -25 -25 -25 -25 -25 -25 -26 -25 -24 -24 -24 -24 -23 -22 -22 -22 -22 -21 -21 -22 -22 -21 -21 -21 -21
-22 -22 -22 -23 -22 -23 -24 -24 -25 -25 -25 -25 -24 -24 -24 -23 -23 -23 -23 -23 -24 -24 -25 -25 -25 -25 -25 -25 -25 -25 -25 -24 -24 -23 -23 -23 -22 -22 -22 -22 -22 -22 -22 -22 -21 -21 -21
-22 -22 -23 -23 -23 -24 -25 -25 -25 -25 -25 -25 -25 -24 -24 -24 -23 -23 -23 -24 -24 -25 -25 -26 -25 -25 -25 -25 -25 -24 -24 -24 -23 -23 -23 -23 -22 -22 -22 -22 -22 -22 -22 -22 -22 -21 -21
-23 -23 -23 -23 -25 -25 -25 -25 -25 -25 -25 -25 -25 -24 -24 -24 -23 -23 -23 -24 -25 -25 -26 -26 -26 -26 -26 -25 -25 -25 -25 -24 -24 -24 -23 -23 -23 -22 -23 -22 -22 -22 -22 -22 -21 -21 -21
-24 -24 -24 -24 -25 -25 -25 -25 -25 -25 -25 -25 -25 -24 -24 -24 -24 -24 -24 -25 -25 -26 -26 -26 -26 -25 -25 -25 -25 -25 -25 -25 -24 -24 -24 -23 -23 -23 -23 -23 -23 -22 -22 -22 -21 -21 -21
-24 -25 -25 -24 -25 -25 -25 -26 -26 -25 -25 -25 -25 -24 -24 -24 -24 -24 -25 -25 -25 -26 -27 -27 -26 -26 -26 -25 -25 -25 -25 -25 -25 -24 -24 -23 -23 -23 -23 -22 -22 -22 -22 -22 -21 -21 -21

GFSGBSN_500_temp_105.txt.gz
Temp
-11 -12 -12 -11 -12 -12 -12 -12 -12 -12 -12 -11 -12 -12 -12 -12 -12 -12 -12 -12 -11 -11 -11 -11 -12 -11 -11 -11 -11 -10 -10 -10 -11 -11 -11 -11 -11 -11 -11 -11 -11 -10 -11 -11 -10 -11 -12
-12 -12 -12 -12 -12 -12 -12 -12 -12 -12 -12 -12 -12 -12 -12 -12 -12 -12 -11 -12 -11 -11 -11 -11 -11 -12 -11 -12 -11 -11 -12 -12 -12 -12 -12 -12 -12 -11 -11 -12 -12 -12 -11 -12 -12 -12 -13
-12 -12 -12 -12 -12 -12 -13 -13 -13 -12 -12 -12 -12 -12 -12 -12 -12 -12 -12 -12 -12 -11 -11 -11 -11 -11 -12 -13 -11 -12 -12 -12 -12 -12 -13 -13 -13 -13 -12 -13 -13 -13 -12 -12 -13 -13 -13
-13 -12 -12 -13 -12 -12 -13 -13 -13 -13 -13 -13 -13 -13 -13 -12 -12 -12 -12 -12 -13 -12 -12 -11 -11 -11 -12 -12 -12 -13 -13 -13 -13 -13 -13 -14 -13 -13 -13 -14 -14 -14 -13 -12 -13 -14 -15
-13 -13 -13 -13 -13 -12 -13 -13 -13 -14 -14 -14 -14 -13 -13 -13 -14 -13 -14 -13 -13 -13 -13 -13 -13 -12 -13 -13 -13 -13 -14 -14 -14 -14 -14 -14 -14 -14 -14 -14 -14 -15 -14 -13 -14 -14 -14
-13 -13 -13 -13 -13 -13 -13 -13 -13 -14 -14 -15 -14 -14 -14 -14 -13 -13 -14 -14 -13 -13 -13 -13 -13 -14 -14 -14 -14 -14 -14 -14 -14 -14 -15 -16 -15 -15 -15 -15 -15 -15 -15 -14 -13 -15 -15
-13 -13 -14 -13 -14 -14 -13 -13 -14 -14 -15 -15 -15 -15 -14 -14 -14 -14 -14 -13 -14 -13 -14 -14 -13 -13 -14 -14 -14 -15 -15 -14 -15 -15 -15 -15 -15 -15 -16 -16 -16 -15 -15 -15 -15 -15 -15
-14 -14 -14 -14 -14 -14 -14 -14 -14 -15 -16 -16 -16 -15 -15 -15 -15 -15 -15 -14 -14 -14 -14 -14 -13 -13 -14 -14 -14 -15 -14 -14 -15 -15 -16 -16 -16 -16 -16 -16 -16 -16 -16 -16 -15 -16 -16
-14 -14 -15 -14 -15 -15 -15 -15 -15 -15 -16 -16 -15 -15 -15 -16 -15 -16 -16 -15 -15 -14 -14 -14 -14 -13 -14 -15 -14 -15 -15 -15 -15 -16 -16 -16 -16 -17 -16 -17 -17 -16 -16 -16 -16 -15 -16
-16 -15 -15 -15 -15 -16 -16 -16 -16 -16 -17 -17 -17 -16 -16 -16 -16 -17 -17 -16 -16 -16 -15 -15 -15 -14 -14 -15 -16 -15 -16 -16 -17 -16 -16 -16 -16 -17 -17 -17 -17 -16 -17 -17 -17 -17 -15
-17 -17 -17 -17 -17 -17 -17 -18 -18 -17 -18 -18 -17 -17 -17 -17 -18 -17 -17 -16 -16 -16 -17 -16 -15 -15 -16 -17 -17 -17 -17 -18 -18 -17 -17 -17 -17 -17 -17 -17 -17 -16 -17 -17 -18 -18 -19
-19 -19 -19 -19 -19 -19 -19 -19 -19 -19 -18 -18 -18 -19 -19 -19 -18 -18 -18 -17 -17 -17 -16 -16 -16 -17 -18 -18 -18 -18 -19 -18 -18 -18 -18 -17 -17 -17 -17 -16 -17 -16 -17 -17 -19 -20 -20
-20 -20 -20 -20 -20 -20 -20 -19 -19 -19 -19 -20 -19 -19 -18 -18 -18 -18 -18 -18 -18 -17 -18 -17 -17 -18 -19 -19 -19 -19 -20 -19 -19 -18 -18 -17 -17 -17 -17 -16 -16 -17 -18 -18 -20 -21 -21
-20 -20 -20 -20 -20 -20 -20 -19 -19 -20 -19 -19 -19 -19 -19 -19 -18 -18 -19 -18 -18 -17 -17 -18 -18 -19 -19 -20 -20 -20 -19 -19 -19 -18 -17 -17 -16 -16 -16 -19 -18 -18 -21 -22 -23 -22 -22
-20 -20 -20 -21 -21 -20 -20 -20 -20 -20 -20 -20 -19 -20 -20 -19 -19 -19 -19 -19 -18 -18 -19 -19 -19 -20 -19 -20 -21 -20 -19 -19 -18 -18 -18 -17 -16 -16 -19 -19 -20 -20 -22 -24 -23 -23 -22
-20 -20 -21 -21 -21 -20 -20 -20 -20 -20 -20 -20 -20 -20 -20 -19 -19 -19 -19 -19 -19 -20 -20 -20 -21 -21 -21 -21 -20 -19 -18 -18 -18 -18 -17 -18 -17 -20 -21 -21 -23 -23 -25 -24 -24 -23 -22
-20 -20 -21 -21 -20 -20 -21 -20 -20 -20 -20 -20 -20 -19 -20 -19 -19 -19 -19 -19 -20 -21 -21 -21 -21 -21 -21 -20 -20 -19 -19 -18 -18 -19 -19 -20 -22 -24 -24 -24 -23 -23 -24 -23 -23 -23 -22
-20 -20 -21 -21 -21 -21 -21 -20 -21 -21 -20 -20 -20 -19 -19 -19 -19 -19 -20 -21 -21 -21 -22 -21 -22 -21 -21 -20 -19 -19 -19 -19 -20 -21 -22 -24 -24 -25 -24 -23 -24 -23 -23 -23 -23 -22 -22
-20 -20 -21 -21 -21 -20 -20 -20 -21 -20 -21 -20 -20 -20 -20 -20 -20 -21 -21 -21 -22 -22 -22 -22 -21 -21 -20 -20 -19 -20 -20 -21 -23 -24 -24 -24 -25 -24 -24 -23 -23 -23 -23 -23 -22 -22 -22
-20 -21 -21 -20 -20 -21 -20 -20 -20 -20 -20 -20 -20 -20 -20 -21 -22 -22 -22 -22 -22 -22 -22 -21 -21 -21 -21 -20 -20 -21 -21 -23 -25 -24 -24 -24 -24 -24 -24 -23 -23 -23 -22 -22 -22 -21 -21
-20 -20 -20 -20 -20 -21 -21 -21 -21 -20 -20 -21 -20 -21 -22 -22 -22 -22 -23 -23 -23 -22 -22 -22 -21 -21 -21 -22 -23 -23 -24 -24 -24 -23 -24 -23 -23 -23 -23 -23 -23 -22 -21 -21 -21 -21 -21
-21 -21 -21 -21 -21 -21 -21 -21 -21 -21 -21 -21 -21 -22 -23 -23 -23 -23 -23 -23 -23 -22 -22 -22 -22 -22 -23 -24 -24 -24 -23 -24 -24 -23 -23 -23 -23 -22 -22 -22 -22 -22 -22 -21 -21 -21 -21
-22 -21 -21 -21 -21 -21 -21 -21 -21 -21 -21 -21 -23 -23 -23 -24 -23 -23 -24 -23 -22 -23 -23 -22 -22 -23 -24 -25 -24 -24 -24 -24 -23 -23 -23 -23 -22 -22 -22 -22 -22 -22 -22 -22 -21 -21 -21
-22 -21 -21 -21 -21 -21 -21 -21 -21 -22 -23 -23 -24 -24 -24 -24 -24 -24 -23 -23 -23 -23 -23 -23 -23 -25 -25 -25 -24 -24 -24 -23 -24 -23 -23 -23 -22 -23 -22 -22 -22 -22 -22 -22 -21 -21 -21
-21 -21 -21 -22 -22 -22 -21 -22 -22 -23 -23 -23 -24 -25 -25 -25 -24 -23 -23 -23 -23 -23 -24 -24 -25 -25 -25 -25 -25 -24 -24 -24 -23 -24 -23 -23 -22 -22 -23 -22 -22 -22 -22 -22 -21 -21 -21
-22 -22 -22 -22 -22 -22 -23 -23 -24 -23 -23 -24 -25 -25 -25 -25 -24 -23 -23 -23 -23 -24 -24 -25 -25 -25 -25 -25 -25 -24 -23 -23 -23 -23 -23 -22 -22 -22 -22 -22 -22 -22 -22 -22 -22 -22 -21
-23 -23 -22 -23 -23 -24 -24 -24 -24 -24 -25 -25 -26 -26 -25 -24 -23 -23 -23 -23 -24 -24 -25 -25 -25 -25 -25 -25 -25 -25 -24 -24 -23 -23 -23 -23 -22 -22 -22 -22 -23 -22 -22 -22 -21 -21 -21
-23 -23 -23 -24 -24 -24 -24 -25 -25 -25 -26 -25 -25 -25 -25 -24 -24 -23 -24 -24 -24 -25 -25 -26 -26 -25 -25 -25 -25 -25 -24 -24 -23 -23 -23 -23 -23 -23 -23 -22 -22 -22 -22 -22 -21 -21 -21
-24 -24 -24 -25 -25 -24 -25 -26 -26 -26 -25 -25 -25 -25 -25 -24 -24 -23 -24 -24 -25 -25 -26 -26 -26 -26 -25 -25 -25 -25 -24 -24 -24 -23 -23 -23 -23 -23 -22 -22 -22 -22 -22 -22 -21 -21 -21

GFSGBSN_500_temp_108.txt.gz
Temp
-12 -12 -12 -12 -11 -12 -12 -12 -12 -12 -12 -12 -12 -12 -12 -12 -11 -11 -11 -11 -11 -11 -11 -11 -11 -11 -11 -11 -12 -11 -11 -11 -11 -11 -10 -10 -10 -10 -11 -11 -11 -10 -11 -11 -11 -12 -12
-12 -12 -12 -12 -12 -12 -12 -12 -12 -12 -12 -12 -12 -12 -12 -12 -12 -11 -11 -11 -11 -11 -11 -11 -11 -11 -11 -12 -11 -11 -11 -11 -11 -10 -11 -11 -11 -11 -11 -12 -12 -11 -11 -12 -12 -12 -12
-13 -13 -13 -13 -13 -12 -13 -13 -13 -12 -12 -13 -12 -12 -13 -13 -12 -12 -12 -11 -11 -12 -12 -11 -11 -11 -11 -12 -11 -12 -11 -11 -11 -11 -12 -12 -11 -11 -11 -12 -12 -12 -12 -12 -13 -13 -13
-13 -13 -13 -13 -13 -13 -13 -13 -13 -13 -13 -13 -13 -13 -13 -13 -13 -13 -13 -13 -12 -12 -12 -12 -12 -12 -12 -12 -12 -11 -12 -12 -12 -12 -12 -12 -12 -12 -12 -13 -13 -13 -13 -13 -14 -14 -14
-13 -13 -13 -13 -13 -13 -13 -13 -13 -13 -13 -14 -13 -14 -14 -14 -13 -13 -14 -14 -13 -13 -13 -13 -13 -13 -13 -12 -13 -12 -12 -13 -13 -13 -13 -13 -13 -13 -13 -14 -14 -14 -13 -13 -14 -14 -14
-14 -14 -14 -14 -14 -14 -14 -14 -14 -13 -14 -14 -14 -14 -15 -14 -14 -13 -14 -14 -14 -13 -13 -14 -14 -14 -13 -13 -13 -13 -13 -13 -14 -14 -14 -14 -13 -13 -14 -15 -14 -14 -14 -14 -14 -14 -15
-14 -14 -14 -14 -14 -14 -14 -14 -14 -14 -14 -15 -15 -15 -15 -15 -14 -15 -15 -15 -14 -14 -14 -15 -14 -14 -14 -14 -14 -13 -13 -14 -14 -14 -14 -14 -14 -15 -15 -15 -15 -15 -15 -14 -15 -15 -15
-14 -14 -14 -14 -15 -15 -14 -14 -14 -14 -15 -15 -15 -16 -16 -16 -16 -15 -15 -15 -15 -15 -15 -15 -15 -14 -14 -14 -13 -14 -13 -13 -13 -14 -14 -15 -15 -16 -16 -16 -16 -16 -15 -15 -15 -16 -16
-14 -15 -15 -15 -15 -15 -15 -15 -15 -15 -15 -15 -15 -16 -17 -16 -17 -16 -16 -16 -16 -16 -15 -15 -15 -15 -15 -14 -14 -14 -14 -14 -14 -15 -15 -15 -16 -17 -17 -17 -16 -17 -16 -16 -16 -16 -16
-16 -16 -16 -16 -16 -16 -16 -16 -15 -16 -15 -15 -16 -16 -16 -17 -17 -17 -17 -16 -16 -16 -17 -16 -16 -16 -15 -15 -15 -14 -15 -15 -16 -16 -16 -16 -17 -18 -18 -18 -18 -17 -17 -17 -17 -16 -16
-17 -17 -17 -17 -17 -17 -16 -16 -16 -16 -16 -17 -17 -18 -18 -18 -18 -17 -17 -17 -18 -18 -17 -17 -16 -16 -16 -16 -16 -16 -16 -16 -17 -17 -17 -17 -17 -18 -19 -18 -18 -18 -18 -17 -17 -17 -17
-18 -18 -18 -18 -18 -18 -17 -17 -17 -17 -18 -19 -19 -19 -19 -19 -18 -18 -18 -19 -19 -19 -18 -18 -17 -17 -17 -17 -17 -17 -17 -17 -18 -18 -18 -18 -18 -19 -18 -18 -18 -18 -18 -17 -17 -17 -17
-19 -19 -19 -19 -19 -18 -18 -18 -18 -19 -19 -19 -20 -20 -20 -19 -20 -19 -18 -19 -19 -18 -18 -18 -18 -18 -18 -18 -19 -18 -18 -18 -18 -18 -19 -19 -19 -19 -19 -18 -18 -18 -17 -17 -17 -17 -17
-20 -20 -19 -20 -20 -20 -19 -20 -20 -20 -20 -20 -20 -20 -20 -19 -19 -20 -19 -19 -18 -19 -18 -18 -19 -18 -18 -19 -19 -19 -19 -19 -19 -19 -19 -19 -19 -19 -19 -19 -18 -18 -19 -19 -19 -18 -18
-20 -20 -20 -20 -20 -20 -20 -21 -20 -20 -20 -20 -20 -20 -20 -20 -20 -20 -19 -19 -19 -19 -19 -19 -19 -19 -19 -20 -20 -20 -20 -20 -20 -20 -21 -20 -19 -18 -18 -18 -17 -17 -19 -20 -20 -20 -21
-20 -20 -20 -20 -20 -20 -21 -21 -21 -21 -21 -21 -21 -21 -21 -20 -20 -20 -20 -20 -19 -19 -19 -19 -19 -19 -19 -20 -20 -21 -21 -21 -21 -21 -20 -19 -18 -18 -19 -18 -18 -19 -21 -23 -23 -23 -23
-21 -21 -20 -20 -21 -21 -21 -21 -21 -21 -21 -21 -21 -21 -21 -21 -21 -20 -20 -20 -20 -20 -19 -20 -20 -20 -20 -21 -22 -22 -21 -21 -20 -19 -19 -18 -18 -20 -19 -20 -22 -23 -24 -24 -23 -23 -23
-21 -21 -21 -20 -21 -21 -21 -21 -21 -21 -21 -21 -21 -21 -21 -20 -20 -20 -21 -20 -20 -19 -20 -20 -21 -22 -22 -22 -21 -21 -20 -20 -19 -19 -20 -20 -21 -22 -23 -24 -24 -24 -24 -24 -23 -23 -22
-21 -21 -21 -21 -21 -21 -21 -21 -21 -21 -21 -21 -21 -21 -21 -20 -20 -20 -20 -20 -20 -20 -22 -22 -22 -22 -22 -21 -21 -21 -21 -20 -20 -20 -21 -23 -24 -24 -25 -24 -24 -24 -23 -23 -23 -23 -22
-22 -21 -21 -21 -21 -21 -21 -21 -21 -21 -21 -21 -21 -21 -21 -20 -21 -20 -20 -21 -22 -22 -22 -22 -22 -22 -22 -21 -21 -20 -20 -20 -21 -22 -24 -24 -24 -24 -25 -24 -24 -23 -23 -22 -22 -22 -22
-21 -21 -21 -21 -21 -21 -21 -21 -21 -21 -21 -21 -21 -20 -21 -20 -20 -20 -21 -22 -23 -23 -22 -23 -23 -22 -21 -21 -21 -21 -22 -23 -23 -24 -24 -24 -24 -24 -24 -24 -23 -23 -22 -21 -21 -21 -21
-20 -21 -21 -21 -21 -21 -21 -21 -21 -21 -21 -21 -21 -20 -20 -21 -21 -22 -23 -23 -23 -23 -23 -22 -22 -22 -22 -21 -22 -23 -23 -23 -23 -24 -24 -24 -24 -24 -23 -23 -23 -22 -22 -22 -21 -21 -21
-21 -21 -20 -21 -21 -21 -21 -21 -21 -21 -21 -21 -21 -21 -21 -22 -22 -23 -23 -23 -23 -24 -23 -22 -22 -22 -22 -22 -23 -23 -24 -24 -24 -24 -23 -23 -24 -24 -23 -23 -22 -23 -22 -22 -21 -21 -21
-21 -21 -21 -21 -21 -21 -21 -21 -21 -21 -21 -21 -21 -22 -22 -22 -23 -23 -24 -24 -24 -23 -23 -23 -22 -22 -23 -24 -24 -24 -24 -24 -24 -24 -23 -23 -23 -23 -23 -23 -23 -22 -22 -21 -21 -21 -21
-22 -22 -22 -22 -21 -21 -21 -21 -21 -21 -22 -22 -22 -23 -23 -23 -24 -24 -25 -24 -23 -23 -23 -23 -23 -23 -24 -25 -24 -24 -24 -24 -23 -24 -23 -23 -23 -23 -23 -23 -22 -22 -21 -22 -22 -21 -21
-22 -22 -22 -22 -22 -22 -22 -22 -21 -22 -22 -22 -23 -23 -24 -24 -24 -25 -24 -23 -23 -23 -23 -23 -23 -24 -25 -25 -25 -24 -24 -24 -23 -23 -23 -23 -23 -23 -23 -23 -23 -23 -22 -22 -21 -21 -21
-22 -22 -22 -22 -22 -22 -22 -22 -22 -23 -23 -24 -24 -24 -25 -25 -24 -24 -24 -23 -23 -23 -24 -24 -24 -25 -25 -25 -25 -25 -25 -24 -24 -23 -23 -23 -22 -23 -23 -23 -23 -22 -22 -22 -22 -22 -21
-23 -22 -22 -22 -22 -22 -23 -23 -23 -24 -24 -24 -25 -25 -25 -24 -25 -24 -24 -23 -23 -24 -24 -24 -25 -25 -25 -25 -25 -25 -25 -24 -24 -24 -23 -23 -22 -23 -23 -22 -22 -23 -22 -22 -22 -21 -21
-23 -23 -23 -23 -24 -24 -24 -24 -24 -24 -25 -25 -26 -25 -25 -25 -24 -24 -24 -24 -24 -24 -24 -25 -26 -26 -26 -25 -25 -25 -25 -24 -24 -24 -23 -23 -23 -23 -22 -23 -22 -22 -22 -22 -21 -21 -21

GFSGBSN_500_temp_111.txt.gz
Temp
-12 -12 -12 -12 -12 -12 -12 -12 -12 -12 -12 -12 -12 -12 -12 -12 -12 -12 -12 -11 -11 -11 -11 -11 -10 -11 -11 -11 -11 -11 -11 -11 -11 -11 -11 -11 -11 -10 -10 -10 -10 -10 -10 -10 -10 -11 -10
-13 -13 -13 -12 -12 -12 -12 -12 -13 -13 -13 -13 -12 -12 -13 -12 -13 -12 -12 -12 -12 -12 -11 -11 -11 -11 -11 -11 -11 -11 -11 -11 -11 -11 -11 -11 -10 -10 -10 -10 -10 -10 -10 -11 -11 -11 -11
-13 -13 -13 -13 -13 -13 -13 -13 -13 -13 -13 -13 -13 -13 -13 -13 -13 -13 -13 -13 -13 -12 -12 -12 -12 -12 -12 -11 -11 -11 -11 -11 -11 -11 -11 -11 -10 -10 -10 -11 -11 -11 -11 -11 -12 -11 -12
-13 -14 -13 -13 -14 -13 -13 -13 -13 -13 -13 -13 -13 -13 -13 -13 -13 -13 -13 -13 -13 -13 -13 -13 -13 -13 -13 -12 -12 -11 -12 -11 -11 -11 -11 -11 -11 -11 -11 -11 -10 -12 -12 -12 -12 -12 -12
-14 -14 -14 -14 -14 -14 -14 -14 -13 -13 -13 -14 -14 -14 -13 -13 -13 -13 -13 -13 -13 -13 -13 -14 -13 -13 -13 -13 -13 -12 -12 -12 -12 -12 -12 -11 -11 -11 -11 -12 -12 -12 -12 -12 -13 -13 -13
-15 -15 -14 -14 -14 -14 -14 -14 -14 -14 -14 -14 -15 -14 -14 -14 -13 -13 -13 -13 -14 -14 -14 -14 -14 -14 -13 -13 -13 -13 -14 -13 -13 -13 -13 -13 -12 -12 -13 -13 -12 -13 -13 -13 -13 -14 -14
-15 -15 -15 -14 -14 -14 -14 -14 -14 -14 -14 -14 -15 -15 -15 -14 -14 -14 -14 -14 -14 -15 -14 -14 -15 -14 -15 -14 -14 -14 -14 -14 -13 -13 -13 -13 -13 -13 -13 -13 -13 -13 -13 -13 -14 -15 -14
-15 -15 -15 -15 -15 -15 -14 -14 -15 -14 -15 -15 -15 -15 -15 -15 -15 -14 -14 -14 -14 -15 -14 -14 -15 -14 -14 -14 -14 -15 -15 -14 -14 -14 -14 -14 -13 -14 -14 -14 -14 -14 -14 -14 -15 -16 -15
-16 -16 -16 -16 -15 -15 -15 -15 -15 -15 -15 -16 -16 -15 -15 -16 -16 -16 -16 -16 -16 -17 -15 -15 -15 -15 -15 -15 -15 -15 -15 -15 -15 -15 -15 -15 -15 -15 -16 -16 -16 -16 -16 -17 -17 -17 -16
-17 -16 -16 -16 -17 -17 -16 -16 -16 -16 -16 -16 -16 -16 -16 -16 -17 -16 -17 -17 -17 -17 -17 -17 -17 -16 -17 -17 -17 -16 -16 -16 -16 -16 -16 -16 -16 -16 -17 -17 -17 -16 -18 -17 -17 -18 -17
-18 -17 -17 -17 -17 -17 -17 -17 -18 -17 -16 -17 -17 -17 -17 -17 -17 -17 -18 -17 -18 -18 -18 -17 -17 -17 -17 -17 -17 -17 -17 -17 -17 -17 -17 -17 -17 -17 -18 -18 -18 -18 -18 -18 -18 -19 -18
-18 -18 -18 -18 -18 -18 -18 -18 -18 -18 -18 -18 -18 -18 -17 -18 -19 -18 -19 -19 -18 -19 -19 -19 -18 -17 -17 -17 -18 -17 -17 -18 -18 -18 -18 -18 -18 -18 -17 -18 -18 -19 -19 -19 -19 -20 -19
-19 -19 -19 -19 -19 -19 -19 -19 -19 -19 -18 -19 -19 -19 -19 -20 -20 -20 -20 -20 -20 -20 -19 -19 -19 -18 -18 -19 -18 -18 -18 -19 -19 -19 -19 -19 -19 -18 -19 -20 -20 -19 -19 -20 -19 -19 -18
-20 -20 -20 -20 -19 -19 -20 -19 -19 -19 -20 -20 -20 -20 -20 -20 -20 -20 -20 -21 -19 -19 -20 -20 -19 -19 -20 -19 -19 -19 -19 -19 -19 -19 -19 -19 -19 -20 -20 -20 -20 -20 -20 -20 -19 -19 -18
-21 -21 -21 -20 -20 -20 -20 -20 -20 -20 -20 -20 -21 -21 -21 -21 -20 -21 -20 -20 -20 -20 -20 -20 -20 -20 -19 -19 -19 -20 -20 -20 -20 -20 -21 -20 -20 -21 -21 -21 -20 -20 -20 -19 -19 -19 -18
-21 -21 -21 -21 -21 -21 -20 -20 -20 -21 -21 -21 -21 -21 -21 -21 -21 -21 -20 -20 -20 -21 -20 -20 -20 -20 -19 -19 -19 -20 -20 -20 -21 -21 -21 -21 -21 -21 -21 -20 -20 -20 -20 -20 -20 -21 -21
-21 -21 -21 -21 -21 -21 -21 -20 -21 -21 -21 -21 -21 -22 -21 -21 -22 -21 -20 -20 -21 -20 -21 -21 -21 -20 -20 -20 -20 -20 -21 -21 -21 -21 -21 -21 -21 -21 -20 -20 -20 -21 -21 -22 -22 -22 -23
-22 -22 -22 -21 -21 -21 -21 -20 -21 -21 -21 -21 -22 -22 -21 -21 -21 -21 -20 -21 -21 -21 -21 -21 -21 -20 -20 -20 -21 -21 -21 -21 -21 -21 -21 -21 -21 -21 -21 -22 -22 -24 -24 -24 -23 -23 -23
-23 -23 -23 -22 -22 -21 -21 -21 -22 -22 -21 -22 -22 -22 -22 -21 -21 -21 -21 -21 -21 -21 -21 -20 -21 -21 -21 -22 -22 -22 -22 -21 -21 -21 -21 -21 -22 -23 -24 -24 -24 -24 -24 -24 -23 -23 -23
-23 -23 -23 -22 -22 -22 -22 -22 -22 -22 -22 -22 -22 -22 -21 -21 -21 -22 -21 -21 -21 -21 -21 -21 -22 -22 -22 -22 -22 -22 -21 -21 -21 -21 -22 -22 -24 -24 -24 -24 -24 -23 -23 -23 -22 -23 -22
-22 -23 -23 -23 -22 -22 -22 -22 -22 -22 -22 -22 -22 -21 -21 -21 -21 -21 -21 -21 -21 -21 -21 -22 -22 -23 -23 -22 -22 -22 -22 -22 -23 -23 -23 -24 -24 -24 -24 -24 -23 -23 -23 -23 -22 -22 -21
-23 -23 -23 -23 -23 -22 -22 -22 -22 -22 -22 -22 -21 -21 -21 -21 -21 -21 -21 -21 -21 -22 -22 -23 -23 -23 -23 -22 -22 -22 -22 -23 -23 -24 -24 -24 -24 -24 -23 -22 -23 -23 -23 -22 -21 -21 -21
-22 -22 -22 -22 -22 -22 -22 -22 -22 -22 -22 -22 -22 -22 -21 -21 -21 -21 -21 -22 -22 -23 -23 -23 -23 -23 -23 -22 -22 -23 -23 -23 -24 -24 -24 -24 -24 -23 -23 -23 -23 -23 -22 -22 -21 -22 -21
-22 -22 -22 -22 -22 -22 -22 -22 -22 -23 -22 -22 -21 -21 -21 -21 -21 -22 -22 -22 -23 -24 -23 -23 -23 -23 -23 -23 -23 -24 -24 -24 -24 -24 -24 -24 -23 -23 -23 -22 -23 -23 -22 -22 -22 -22 -21
-23 -22 -22 -22 -21 -22 -22 -22 -22 -22 -21 -22 -21 -21 -22 -22 -22 -22 -22 -23 -23 -23 -23 -23 -23 -23 -23 -23 -24 -24 -25 -24 -24 -23 -23 -23 -23 -23 -22 -23 -23 -23 -23 -22 -22 -22 -22
-22 -22 -22 -22 -22 -22 -22 -22 -22 -22 -22 -21 -22 -22 -22 -22 -22 -23 -24 -23 -23 -23 -23 -23 -23 -23 -23 -24 -25 -24 -24 -24 -24 -24 -23 -23 -23 -23 -23 -23 -23 -23 -23 -22 -22 -21 -22
-22 -22 -22 -22 -22 -22 -22 -22 -22 -22 -22 -22 -22 -22 -23 -23 -24 -23 -23 -23 -23 -23 -23 -23 -23 -24 -24 -25 -25 -25 -25 -24 -24 -24 -23 -23 -23 -23 -23 -23 -23 -23 -23 -22 -22 -22 -22
-23 -23 -23 -22 -22 -22 -22 -22 -22 -22 -22 -22 -23 -23 -24 -24 -24 -24 -24 -24 -23 -23 -23 -23 -24 -24 -25 -26 -25 -25 -25 -24 -24 -24 -23 -23 -23 -23 -23 -23 -23 -23 -23 -23 -23 -22 -21
-23 -23 -23 -23 -23 -22 -22 -22 -22 -22 -23 -23 -24 -24 -24 -24 -24 -24 -24 -23 -23 -23 -23 -23 -24 -24 -25 -26 -25 -25 -25 -25 -25 -24 -24 -23 -23 -23 -23 -23 -23 -23 -23 -23 -22 -22 -21

GFSGBSN_500_temp_114.txt.gz
Temp
-12 -12 -12 -12 -12 -12 -12 -12 -12 -12 -12 -12 -12 -12 -12 -12 -12 -12 -12 -12 -12 -12 -12 -11 -11 -11 -11 -11 -10 -10 -10 -10 -10 -10 -11 -11 -11 -11 -11 -11 -11 -10 -10 -10 -10 -10 -10
-13 -12 -12 -13 -13 -13 -13 -13 -13 -13 -13 -12 -12 -12 -12 -13 -13 -12 -12 -12 -12 -12 -12 -12 -11 -11 -11 -11 -11 -11 -11 -10 -10 -11 -11 -11 -11 -11 -11 -11 -10 -10 -10 -10 -10 -10 -10
-13 -13 -14 -14 -14 -13 -13 -13 -13 -13 -13 -13 -13 -13 -13 -13 -13 -12 -12 -12 -12 -12 -12 -12 -12 -12 -12 -12 -11 -12 -12 -11 -11 -11 -10 -11 -11 -11 -11 -11 -11 -11 -10 -10 -11 -11 -11
-14 -14 -14 -14 -14 -14 -14 -14 -14 -14 -14 -14 -13 -13 -14 -13 -13 -12 -12 -13 -13 -13 -12 -12 -12 -12 -12 -12 -12 -12 -12 -12 -12 -11 -11 -11 -11 -11 -11 -11 -10 -11 -11 -11 -11 -11 -11
-15 -15 -15 -14 -14 -14 -14 -14 -14 -14 -14 -14 -14 -14 -14 -14 -13 -13 -13 -13 -13 -13 -13 -13 -12 -12 -12 -13 -13 -12 -12 -13 -13 -12 -12 -12 -12 -12 -12 -12 -12 -11 -11 -11 -12 -11 -12
-15 -15 -15 -15 -15 -15 -14 -15 -15 -15 -15 -14 -14 -14 -14 -14 -14 -14 -14 -13 -13 -13 -13 -13 -13 -13 -12 -12 -13 -13 -13 -13 -13 -13 -13 -13 -13 -13 -13 -13 -13 -13 -12 -12 -12 -12 -12
-16 -16 -15 -15 -15 -15 -15 -15 -15 -15 -15 -15 -15 -15 -14 -14 -14 -14 -14 -14 -13 -13 -13 -14 -14 -13 -13 -13 -13 -13 -13 -14 -14 -14 -15 -14 -14 -14 -14 -13 -13 -13 -13 -13 -13 -13 -13
-16 -16 -16 -16 -16 -16 -16 -15 -16 -16 -15 -16 -15 -15 -15 -15 -15 -15 -15 -14 -14 -14 -13 -14 -14 -14 -14 -13 -13 -13 -13 -14 -15 -15 -15 -15 -15 -15 -14 -14 -14 -14 -14 -14 -14 -13 -13
-16 -16 -16 -16 -16 -17 -16 -16 -16 -16 -16 -16 -16 -16 -16 -15 -16 -15 -15 -15 -15 -14 -15 -14 -15 -14 -14 -13 -14 -14 -14 -15 -16 -16 -16 -16 -16 -15 -15 -15 -15 -15 -15 -16 -16 -15 -15
-17 -17 -17 -16 -17 -17 -17 -17 -17 -17 -17 -17 -17 -16 -16 -17 -16 -16 -16 -16 -16 -15 -16 -15 -14 -14 -15 -15 -15 -15 -16 -17 -16 -17 -17 -17 -17 -16 -16 -16 -16 -17 -17 -17 -17 -17 -16
-19 -18 -18 -17 -17 -17 -17 -17 -18 -17 -18 -18 -18 -18 -18 -18 -18 -17 -17 -17 -16 -16 -18 -16 -15 -16 -16 -17 -17 -17 -17 -17 -18 -18 -18 -17 -17 -17 -18 -17 -17 -18 -17 -18 -18 -18 -17
-19 -19 -19 -19 -19 -18 -18 -18 -18 -18 -18 -18 -18 -18 -18 -18 -19 -19 -18 -18 -18 -18 -18 -18 -17 -17 -17 -18 -18 -18 -18 -18 -19 -19 -18 -18 -18 -18 -18 -18 -18 -18 -18 -18 -19 -19 -18
-20 -20 -20 -19 -19 -19 -19 -19 -19 -19 -20 -20 -19 -19 -18 -19 -19 -19 -19 -19 -19 -20 -18 -18 -18 -18 -19 -19 -19 -19 -19 -19 -19 -19 -19 -19 -19 -19 -20 -19 -19 -19 -19 -20 -20 -20 -19
-21 -21 -20 -20 -20 -20 -20 -20 -20 -20 -20 -19 -19 -19 -19 -19 -20 -20 -20 -20 -20 -19 -19 -20 -20 -20 -20 -20 -20 -19 -19 -19 -19 -19 -19 -19 -19 -19 -20 -20 -20 -20 -20 -21 -20 -21 -22
-22 -21 -21 -21 -21 -21 -20 -20 -20 -20 -20 -20 -20 -20 -20 -20 -21 -20 -21 -20 -20 -20 -20 -20 -20 -20 -20 -20 -20 -20 -20 -19 -19 -20 -20 -19 -20 -20 -21 -20 -21 -20 -21 -21 -21 -21 -20
-22 -22 -22 -22 -22 -22 -21 -21 -21 -21 -20 -20 -20 -21 -21 -21 -21 -21 -21 -21 -21 -21 -20 -20 -21 -21 -21 -21 -20 -20 -20 -20 -19 -20 -20 -20 -21 -21 -21 -21 -21 -22 -21 -21 -20 -20 -20
-22 -22 -22 -22 -22 -22 -22 -22 -22 -21 -21 -21 -21 -21 -21 -21 -21 -21 -21 -21 -21 -21 -21 -21 -21 -21 -21 -21 -21 -21 -21 -20 -20 -20 -21 -21 -22 -22 -22 -22 -21 -21 -21 -20 -21 -21 -22
-24 -23 -22 -22 -22 -22 -22 -22 -22 -21 -21 -21 -21 -22 -21 -21 -22 -21 -21 -21 -21 -21 -21 -21 -22 -22 -21 -21 -21 -21 -21 -21 -21 -21 -22 -22 -22 -21 -21 -21 -21 -21 -22 -22 -23 -24 -23
-24 -24 -24 -23 -22 -22 -23 -22 -22 -21 -21 -22 -22 -22 -22 -22 -21 -21 -21 -21 -21 -21 -21 -22 -22 -21 -21 -21 -21 -22 -22 -22 -22 -22 -22 -21 -21 -21 -22 -23 -23 -24 -24 -24 -24 -24 -23
-25 -25 -24 -24 -23 -23 -23 -22 -21 -22 -22 -22 -23 -23 -22 -22 -21 -21 -21 -21 -21 -22 -22 -21 -21 -21 -22 -22 -21 -22 -22 -22 -23 -22 -21 -21 -21 -22 -23 -24 -24 -24 -24 -24 -23 -23 -23
-25 -25 -25 -24 -24 -24 -23 -22 -22 -23 -23 -22 -22 -23 -22 -21 -21 -21 -21 -22 -22 -22 -21 -21 -21 -21 -22 -22 -22 -22 -22 -22 -22 -23 -23 -23 -23 -23 -24 -24 -24 -24 -24 -24 -23 -23 -22
-26 -25 -24 -24 -24 -24 -23 -23 -23 -23 -23 -23 -22 -22 -21 -21 -22 -21 -21 -21 -21 -22 -21 -21 -22 -22 -22 -22 -23 -23 -22 -22 -23 -23 -23 -23 -23 -23 -23 -23 -23 -23 -24 -23 -23 -22 -21
-27 -26 -24 -24 -24 -24 -24 -23 -24 -23 -23 -22 -22 -22 -22 -22 -22 -22 -21 -22 -22 -22 -21 -22 -23 -23 -23 -23 -23 -23 -23 -23 -23 -23 -24 -23 -24 -23 -23 -23 -23 -23 -23 -23 -22 -22 -22
-25 -24 -24 -24 -24 -24 -24 -24 -24 -23 -23 -22 -22 -22 -22 -22 -22 -22 -22 -22 -22 -22 -22 -23 -23 -23 -23 -23 -23 -23 -24 -24 -24 -24 -23 -23 -23 -23 -23 -23 -23 -23 -22 -22 -22 -21 -22
-23 -23 -23 -24 -23 -24 -24 -23 -23 -23 -22 -22 -22 -22 -22 -22 -22 -22 -22 -21 -22 -22 -22 -23 -23 -23 -23 -23 -23 -24 -24 -24 -24 -24 -23 -23 -23 -23 -22 -23 -22 -22 -22 -22 -22 -22 -21
-23 -23 -23 -23 -23 -23 -23 -23 -23 -23 -22 -22 -22 -22 -22 -22 -22 -22 -22 -22 -22 -23 -23 -23 -24 -23 -23 -23 -24 -24 -25 -24 -24 -24 -23 -23 -23 -23 -23 -23 -22 -22 -23 -23 -22 -22 -22
-23 -23 -23 -23 -23 -22 -22 -23 -23 -22 -22 -22 -22 -22 -22 -22 -22 -22 -22 -22 -23 -23 -24 -23 -23 -23 -24 -24 -24 -25 -25 -25 -24 -24 -24 -23 -23 -23 -23 -23 -23 -23 -23 -22 -22 -22 -22
-23 -23 -23 -23 -23 -23 -22 -22 -23 -23 -22 -22 -22 -22 -22 -22 -22 -22 -23 -23 -23 -24 -23 -23 -23 -23 -23 -24 -24 -25 -25 -25 -24 -24 -24 -24 -23 -23 -23 -23 -23 -23 -23 -22 -22 -22 -22
-23 -23 -23 -22 -23 -23 -23 -23 -22 -22 -22 -22 -22 -22 -22 -22 -23 -23 -23 -23 -23 -23 -23 -23 -23 -23 -24 -24 -25 -25 -25 -25 -25 -24 -24 -24 -23 -23 -23 -23 -23 -23 -23 -23 -23 -22 -22

GFSGBSN_500_temp_117.txt.gz
Temp
-13 -13 -12 -12 -13 -12 -12 -12 -12 -12 -12 -12 -12 -12 -12 -12 -12 -12 -12 -12 -12 -12 -12 -12 -12 -12 -11 -11 -11 -11 -10 -10 -10 -10 -10 -10 -11 -10 -10 -11 -11 -10 -10 -11 -11 -11 -10
-13 -13 -12 -13 -12 -12 -12 -12 -12 -13 -13 -13 -12 -12 -12 -12 -12 -12 -12 -12 -12 -12 -12 -12 -12 -12 -12 -12 -12 -11 -11 -11 -10 -10 -11 -11 -11 -11 -11 -11 -11 -11 -11 -11 -11 -11 -10
-14 -14 -14 -13 -12 -13 -12 -13 -13 -13 -14 -14 -14 -13 -13 -13 -13 -13 -13 -12 -12 -12 -12 -12 -12 -12 -12 -12 -12 -12 -12 -11 -11 -11 -11 -11 -12 -12 -11 -11 -11 -11 -11 -11 -11 -11 -10
-14 -15 -15 -14 -13 -14 -13 -13 -15 -15 -15 -16 -14 -14 -13 -13 -13 -13 -13 -13 -13 -13 -13 -12 -12 -12 -12 -13 -12 -13 -12 -12 -12 -12 -12 -11 -12 -12 -11 -12 -11 -12 -12 -12 -12 -11 -11
-15 -15 -15 -15 -14 -14 -16 -16 -17 -16 -16 -15 -14 -14 -14 -14 -14 -13 -13 -13 -13 -13 -13 -13 -13 -13 -13 -13 -13 -13 -13 -12 -13 -12 -12 -12 -12 -12 -12 -12 -12 -13 -13 -13 -12 -12 -12
-15 -15 -15 -15 -15 -14 -15 -15 -16 -16 -16 -15 -15 -15 -14 -14 -14 -14 -14 -13 -13 -13 -13 -14 -14 -14 -13 -13 -13 -13 -13 -13 -13 -13 -13 -13 -13 -12 -13 -13 -13 -13 -13 -13 -13 -13 -13
-16 -16 -16 -16 -15 -15 -15 -15 -15 -15 -16 -15 -15 -15 -15 -15 -15 -15 -14 -14 -14 -14 -14 -14 -14 -14 -14 -13 -13 -13 -13 -13 -13 -13 -13 -13 -13 -13 -14 -14 -13 -13 -14 -14 -14 -14 -14
-16 -16 -16 -16 -16 -16 -16 -16 -16 -16 -16 -16 -16 -16 -16 -16 -15 -15 -15 -14 -15 -15 -14 -14 -14 -14 -14 -14 -14 -13 -13 -13 -13 -14 -14 -14 -13 -14 -14 -14 -14 -15 -15 -15 -15 -15 -14
-17 -17 -17 -17 -17 -17 -16 -16 -16 -16 -16 -16 -16 -16 -16 -16 -16 -16 -16 -15 -16 -16 -15 -14 -14 -15 -14 -14 -14 -14 -13 -14 -15 -14 -15 -15 -15 -15 -14 -15 -15 -15 -16 -16 -16 -15 -16
-17 -17 -18 -17 -17 -17 -17 -17 -17 -17 -17 -17 -17 -17 -17 -17 -17 -16 -16 -16 -16 -16 -16 -15 -14 -14 -15 -15 -14 -15 -15 -15 -15 -16 -16 -16 -17 -16 -17 -16 -17 -16 -17 -16 -16 -17 -16
-18 -18 -18 -18 -17 -17 -17 -17 -17 -17 -17 -18 -18 -17 -18 -18 -16 -17 -17 -17 -17 -17 -18 -16 -14 -15 -15 -15 -16 -15 -16 -16 -17 -17 -17 -17 -17 -16 -17 -18 -18 -17 -18 -18 -18 -18 -18
-19 -19 -19 -18 -18 -19 -19 -18 -18 -18 -18 -18 -18 -19 -18 -19 -19 -18 -18 -18 -18 -19 -18 -17 -16 -16 -16 -16 -17 -17 -17 -18 -18 -18 -18 -18 -19 -18 -18 -18 -18 -18 -19 -18 -19 -19 -18
-20 -20 -20 -20 -19 -19 -19 -19 -19 -20 -19 -19 -19 -20 -20 -19 -19 -19 -19 -19 -20 -19 -18 -18 -17 -17 -18 -17 -18 -18 -18 -18 -18 -19 -19 -19 -18 -18 -18 -19 -19 -19 -20 -19 -19 -22 -19
-22 -21 -21 -21 -20 -20 -20 -20 -20 -20 -20 -20 -20 -21 -20 -20 -20 -20 -20 -20 -20 -19 -19 -19 -18 -19 -19 -19 -19 -19 -20 -20 -20 -19 -19 -19 -19 -19 -18 -19 -20 -20 -20 -20 -20 -22 -22
-22 -22 -22 -22 -21 -21 -21 -21 -21 -20 -21 -20 -20 -20 -20 -20 -20 -20 -20 -20 -20 -20 -19 -19 -20 -20 -20 -20 -20 -20 -20 -20 -20 -20 -20 -20 -19 -19 -19 -19 -19 -20 -20 -21 -21 -21 -21
-23 -23 -22 -22 -22 -22 -22 -22 -22 -21 -21 -20 -21 -21 -20 -21 -20 -21 -21 -20 -20 -20 -20 -20 -20 -21 -21 -20 -20 -21 -21 -20 -20 -20 -20 -20 -20 -21 -20 -19 -20 -21 -22 -21 -21 -21 -22
-23 -23 -23 -23 -23 -23 -23 -23 -23 -22 -22 -22 -22 -21 -21 -21 -21 -21 -21 -21 -21 -21 -21 -21 -21 -21 -21 -22 -20 -21 -21 -21 -20 -21 -21 -21 -20 -21 -20 -20 -21 -21 -21 -22 -21 -21 -21
-24 -24 -23 -23 -23 -23 -23 -23 -23 -23 -23 -23 -22 -22 -21 -21 -22 -22 -21 -21 -21 -21 -21 -21 -21 -21 -22 -21 -21 -21 -21 -21 -20 -21 -21 -21 -21 -21 -21 -21 -21 -21 -21 -21 -21 -22 -24
-25 -25 -24 -24 -23 -23 -23 -23 -23 -23 -23 -23 -23 -23 -22 -22 -22 -21 -22 -21 -21 -21 -21 -21 -21 -21 -21 -22 -22 -22 -21 -21 -21 -21 -21 -21 -21 -22 -21 -21 -22 -22 -22 -23 -23 -24 -24
-25 -25 -25 -24 -24 -24 -24 -23 -24 -23 -23 -23 -23 -23 -22 -22 -22 -21 -22 -22 -21 -21 -21 -21 -22 -22 -22 -22 -21 -21 -21 -21 -21 -22 -22 -23 -22 -21 -21 -22 -22 -23 -23 -23 -24 -24 -24
-26 -25 -25 -25 -25 -24 -24 -24 -24 -24 -23 -23 -23 -23 -22 -21 -21 -22 -22 -21 -21 -21 -22 -21 -22 -22 -21 -21 -22 -21 -21 -21 -22 -23 -23 -22 -22 -22 -22 -23 -23 -24 -24 -24 -24 -24 -23
-27 -26 -26 -25 -25 -25 -25 -25 -25 -24 -23 -24 -23 -22 -22 -22 -22 -22 -22 -22 -22 -22 -22 -22 -22 -22 -22 -22 -22 -22 -22 -23 -23 -22 -22 -23 -23 -23 -23 -23 -23 -24 -24 -24 -23 -23 -23
-27 -27 -26 -26 -26 -25 -25 -25 -25 -24 -24 -23 -22 -23 -22 -22 -23 -22 -22 -22 -22 -22 -22 -22 -22 -22 -22 -22 -22 -22 -23 -23 -22 -22 -22 -23 -23 -23 -23 -23 -23 -23 -23 -23 -23 -23 -22
-26 -27 -27 -26 -26 -26 -25 -26 -26 -25 -24 -23 -22 -23 -22 -22 -22 -22 -22 -23 -23 -22 -22 -22 -22 -22 -21 -22 -23 -23 -22 -22 -23 -23 -23 -24 -23 -24 -24 -23 -23 -22 -23 -23 -22 -22 -22
-25 -26 -27 -26 -26 -26 -26 -26 -25 -25 -24 -24 -23 -23 -23 -22 -22 -23 -23 -22 -22 -22 -22 -22 -22 -22 -22 -23 -23 -23 -22 -23 -24 -24 -24 -24 -24 -24 -23 -23 -23 -22 -22 -22 -22 -22 -21
-24 -24 -26 -27 -26 -25 -25 -25 -25 -25 -25 -24 -24 -23 -22 -22 -22 -23 -23 -22 -22 -22 -22 -22 -22 -22 -23 -23 -23 -23 -24 -24 -24 -24 -24 -24 -24 -23 -24 -23 -23 -23 -23 -22 -22 -22 -22
-24 -25 -26 -25 -25 -25 -25 -25 -25 -25 -24 -23 -23 -22 -22 -23 -23 -22 -22 -22 -22 -22 -22 -22 -22 -23 -23 -23 -23 -24 -24 -24 -24 -24 -24 -24 -24 -23 -24 -24 -23 -23 -23 -23 -22 -22 -22
-24 -24 -24 -24 -24 -24 -24 -24 -24 -24 -23 -23 -23 -23 -23 -23 -22 -22 -22 -22 -22 -22 -22 -23 -23 -23 -23 -23 -24 -24 -24 -25 -24 -24 -24 -24 -24 -23 -23 -23 -23 -23 -23 -23 -22 -22 -22
-23 -24 -24 -24 -24 -24 -24 -24 -23 -23 -23 -23 -23 -23 -23 -22 -22 -22 -22 -22 -21 -21 -22 -23 -23 -23 -23 -23 -24 -25 -25 -25 -25 -25 -24 -24 -24 -23 -23 -23 -23 -23 -23 -22 -22 -22 -22

GFSGBSN_500_temp_123.txt.gz
Temp
-12 -12 -12 -12 -12 -12 -12 -12 -12 -12 -12 -12 -11 -12 -12 -11 -11 -11 -11 -11 -11 -11 -11 -11 -11 -11 -11 -11 -11 -11 -11 -11 -11 -11 -11 -11 -11 -11 -11 -11 -11 -11 -11 -11 -11 -11 -11
-13 -13 -13 -13 -13 -13 -13 -13 -13 -12 -13 -12 -12 -12 -12 -12 -11 -12 -13 -12 -12 -12 -12 -11 -12 -12 -12 -12 -11 -12 -12 -12 -11 -11 -11 -11 -11 -11 -11 -11 -11 -11 -11 -11 -11 -11 -11
-14 -14 -13 -13 -14 -14 -14 -14 -13 -13 -13 -14 -13 -12 -13 -13 -12 -13 -13 -14 -14 -13 -12 -12 -12 -12 -13 -12 -12 -12 -12 -12 -12 -12 -12 -12 -11 -12 -11 -12 -12 -12 -12 -12 -12 -12 -12
-14 -13 -13 -13 -13 -14 -15 -14 -14 -14 -15 -14 -13 -13 -13 -13 -13 -13 -13 -14 -14 -14 -13 -13 -13 -13 -13 -13 -13 -12 -12 -12 -12 -12 -12 -12 -11 -12 -12 -12 -12 -12 -12 -11 -12 -12 -12
-14 -14 -14 -13 -13 -14 -14 -14 -13 -14 -14 -14 -13 -13 -13 -13 -13 -13 -14 -14 -14 -14 -14 -14 -13 -13 -13 -13 -13 -13 -13 -13 -13 -13 -13 -13 -12 -12 -12 -12 -12 -12 -12 -12 -12 -13 -12
-14 -14 -14 -14 -14 -14 -14 -14 -13 -13 -13 -14 -14 -13 -13 -13 -13 -13 -13 -14 -14 -14 -14 -14 -14 -14 -13 -13 -13 -13 -13 -13 -13 -13 -13 -13 -13 -13 -13 -13 -13 -13 -13 -12 -12 -14 -13
-15 -15 -15 -15 -15 -15 -14 -14 -13 -14 -13 -14 -14 -14 -14 -14 -15 -15 -15 -15 -14 -15 -15 -15 -14 -14 -14 -14 -13 -13 -14 -13 -13 -13 -13 -13 -13 -13 -14 -14 -13 -13 -13 -13 -13 -13 -14
-16 -16 -16 -15 -15 -15 -15 -15 -15 -15 -15 -15 -15 -15 -15 -15 -15 -15 -15 -15 -16 -15 -15 -15 -15 -14 -14 -15 -14 -14 -14 -14 -14 -14 -14 -13 -13 -14 -14 -14 -14 -14 -14 -13 -13 -15 -15
-16 -17 -17 -16 -16 -16 -16 -16 -16 -16 -16 -16 -16 -16 -16 -16 -16 -15 -15 -16 -16 -16 -16 -14 -15 -15 -15 -15 -15 -15 -14 -14 -14 -14 -14 -14 -14 -14 -14 -14 -14 -14 -14 -15 -15 -15 -15
-18 -17 -17 -17 -17 -17 -17 -16 -16 -17 -17 -16 -16 -16 -16 -16 -16 -16 -16 -17 -16 -16 -16 -15 -15 -14 -15 -15 -15 -15 -15 -15 -14 -15 -15 -14 -15 -15 -15 -15 -16 -14 -17 -16 -16 -15 -16
-18 -18 -18 -18 -17 -18 -17 -17 -17 -17 -17 -17 -16 -17 -17 -16 -16 -16 -17 -17 -17 -17 -17 -16 -15 -14 -15 -15 -16 -15 -16 -16 -16 -15 -15 -15 -15 -15 -15 -16 -17 -16 -17 -17 -18 -18 -18
-19 -19 -19 -18 -18 -18 -18 -18 -18 -18 -18 -17 -17 -17 -17 -17 -17 -17 -17 -17 -18 -18 -16 -16 -16 -16 -16 -16 -16 -15 -16 -16 -17 -16 -16 -16 -16 -16 -16 -15 -17 -17 -17 -18 -19 -19 -19
-20 -20 -20 -19 -19 -19 -19 -18 -18 -18 -18 -18 -18 -18 -18 -18 -18 -18 -18 -18 -18 -17 -16 -17 -17 -16 -15 -16 -16 -16 -17 -17 -18 -17 -17 -16 -16 -17 -17 -17 -17 -18 -19 -19 -19 -19 -19
-21 -21 -21 -21 -20 -20 -20 -20 -19 -19 -19 -19 -19 -19 -19 -18 -19 -19 -19 -19 -19 -16 -17 -18 -19 -17 -16 -16 -16 -18 -17 -17 -18 -18 -18 -17 -16 -19 -18 -18 -18 -18 -20 -21 -21 -20 -20
-22 -22 -22 -22 -21 -21 -21 -20 -21 -21 -20 -20 -20 -20 -20 -19 -20 -20 -20 -21 -17 -17 -18 -19 -21 -20 -17 -17 -19 -18 -17 -17 -18 -18 -17 -18 -17 -19 -20 -21 -20 -20 -20 -21 -22 -21 -21
-22 -22 -22 -22 -22 -22 -22 -22 -22 -22 -22 -21 -21 -21 -21 -21 -21 -21 -21 -21 -18 -18 -19 -20 -21 -21 -19 -18 -19 -20 -20 -18 -18 -20 -19 -19 -19 -20 -21 -21 -21 -21 -21 -21 -22 -22 -21
-23 -23 -23 -23 -22 -22 -22 -22 -22 -22 -23 -22 -22 -22 -22 -22 -22 -22 -22 -21 -20 -20 -21 -21 -21 -21 -21 -20 -21 -20 -20 -20 -20 -19 -19 -20 -20 -20 -21 -21 -21 -22 -21 -21 -21 -21 -22
-24 -24 -23 -23 -23 -23 -23 -22 -23 -23 -23 -23 -23 -23 -22 -22 -23 -22 -22 -21 -21 -21 -20 -21 -21 -21 -21 -21 -21 -21 -21 -21 -20 -20 -20 -21 -21 -21 -21 -21 -21 -21 -21 -22 -22 -22 -22
-25 -24 -24 -24 -24 -23 -23 -23 -23 -23 -23 -24 -23 -24 -23 -23 -23 -22 -22 -22 -21 -21 -21 -21 -21 -21 -21 -22 -22 -21 -22 -22 -21 -21 -21 -21 -21 -21 -20 -21 -21 -21 -21 -22 -22 -22 -22
-26 -26 -25 -25 -25 -25 -24 -24 -24 -24 -24 -24 -24 -24 -24 -24 -23 -23 -22 -22 -22 -21 -22 -22 -21 -21 -21 -21 -22 -21 -22 -22 -22 -22 -21 -22 -21 -21 -21 -21 -21 -21 -22 -22 -23 -23 -24
-27 -27 -26 -26 -26 -26 -25 -25 -25 -24 -24 -25 -25 -25 -24 -23 -23 -23 -23 -22 -22 -22 -22 -22 -22 -21 -21 -21 -22 -22 -22 -22 -22 -21 -22 -22 -21 -21 -21 -21 -22 -21 -22 -22 -24 -24 -24
-27 -26 -26 -26 -26 -26 -26 -25 -25 -25 -25 -26 -25 -25 -24 -24 -24 -24 -23 -22 -22 -22 -22 -23 -22 -22 -22 -22 -23 -23 -23 -22 -22 -21 -22 -22 -21 -21 -22 -22 -22 -22 -22 -23 -23 -24 -24
-27 -27 -27 -27 -26 -26 -26 -26 -26 -26 -26 -26 -26 -25 -25 -24 -24 -24 -23 -23 -22 -23 -23 -23 -23 -22 -22 -22 -22 -22 -22 -22 -22 -22 -22 -22 -22 -22 -22 -22 -22 -23 -23 -24 -24 -24 -23
-28 -28 -28 -28 -28 -27 -27 -27 -27 -27 -27 -26 -26 -26 -25 -25 -24 -24 -23 -23 -23 -23 -23 -23 -23 -23 -22 -23 -22 -22 -22 -22 -21 -21 -22 -22 -22 -22 -22 -22 -23 -23 -23 -23 -23 -23 -23
-27 -28 -28 -29 -29 -29 -28 -28 -28 -28 -27 -27 -27 -27 -26 -25 -25 -24 -23 -23 -24 -23 -24 -23 -23 -23 -23 -23 -23 -22 -22 -22 -22 -22 -22 -23 -23 -22 -23 -23 -23 -23 -23 -23 -23 -23 -23
-27 -27 -27 -28 -29 -30 -30 -29 -28 -28 -28 -27 -27 -27 -26 -26 -25 -24 -24 -23 -23 -23 -23 -23 -23 -23 -23 -23 -22 -22 -22 -22 -22 -22 -23 -23 -23 -23 -23 -23 -23 -23 -23 -23 -23 -23 -23
-26 -26 -27 -27 -28 -30 -31 -30 -29 -28 -28 -27 -27 -27 -26 -26 -25 -25 -23 -24 -24 -23 -23 -23 -23 -23 -23 -23 -23 -22 -22 -22 -23 -23 -23 -23 -23 -23 -24 -24 -23 -23 -23 -23 -23 -23 -23
-25 -26 -26 -27 -28 -29 -30 -30 -29 -28 -28 -27 -27 -27 -26 -26 -25 -25 -24 -24 -23 -23 -23 -23 -23 -23 -23 -23 -23 -22 -23 -23 -23 -23 -23 -24 -24 -24 -24 -24 -23 -23 -23 -23 -23 -23 -23
-25 -25 -26 -27 -28 -28 -30 -30 -29 -28 -28 -27 -27 -26 -26 -26 -25 -24 -23 -23 -23 -23 -23 -24 -23 -23 -22 -23 -23 -23 -23 -24 -24 -24 -23 -24 -24 -24 -24 -24 -24 -23 -24 -23 -23 -23 -23

GFSGBSN_500_temp_129.txt.gz
Temp
-12 -12 -12 -12 -12 -11 -11 -11 -11 -11 -11 -11 -11 -11 -11 -11 -11 -11 -11 -11 -11 -11 -11 -10 -10 -10 -10 -10 -11 -11 -11 -11 -11 -11 -11 -11 -12 -11 -11 -11 -11 -11 -11 -11 -12 -12 -12
-13 -13 -13 -12 -12 -12 -12 -12 -11 -12 -11 -12 -12 -12 -12 -12 -12 -12 -11 -12 -11 -11 -11 -11 -11 -11 -11 -11 -12 -12 -11 -11 -12 -12 -12 -12 -12 -12 -12 -11 -11 -11 -12 -12 -12 -12 -12
-14 -13 -13 -13 -14 -13 -13 -13 -12 -12 -12 -12 -13 -13 -13 -13 -13 -12 -12 -12 -12 -13 -12 -12 -12 -11 -11 -11 -12 -13 -13 -12 -12 -12 -12 -12 -12 -12 -12 -12 -12 -12 -12 -12 -12 -12 -12
-14 -14 -14 -14 -14 -14 -14 -14 -13 -13 -13 -13 -13 -13 -13 -14 -13 -13 -13 -12 -12 -13 -12 -12 -12 -12 -13 -12 -12 -13 -13 -13 -12 -13 -13 -12 -12 -13 -12 -12 -12 -12 -12 -12 -12 -12 -13
-14 -14 -14 -14 -14 -14 -14 -14 -14 -14 -14 -14 -14 -14 -13 -13 -14 -13 -13 -12 -13 -13 -12 -12 -13 -13 -13 -13 -13 -13 -13 -13 -13 -13 -13 -13 -13 -13 -13 -13 -13 -13 -12 -12 -13 -13 -13
-14 -15 -14 -15 -14 -14 -14 -14 -14 -14 -14 -14 -14 -14 -14 -14 -14 -14 -13 -14 -13 -14 -13 -14 -13 -13 -14 -13 -13 -14 -14 -13 -13 -13 -13 -14 -13 -14 -13 -13 -13 -13 -13 -13 -13 -13 -13
-14 -14 -14 -15 -15 -14 -14 -14 -14 -14 -14 -14 -14 -14 -14 -14 -14 -14 -14 -14 -14 -14 -13 -14 -13 -14 -13 -14 -14 -14 -13 -13 -14 -14 -14 -14 -14 -15 -14 -14 -14 -14 -14 -13 -13 -13 -13
-15 -15 -15 -15 -15 -15 -15 -15 -15 -15 -15 -15 -15 -14 -14 -14 -14 -14 -14 -14 -14 -14 -14 -14 -14 -13 -14 -13 -13 -15 -14 -14 -14 -14 -14 -14 -14 -14 -14 -14 -14 -14 -14 -13 -13 -13 -14
-17 -16 -16 -16 -16 -16 -16 -15 -15 -15 -15 -15 -15 -15 -15 -15 -15 -14 -15 -15 -14 -13 -13 -14 -14 -13 -15 -14 -14 -15 -14 -15 -14 -14 -14 -14 -14 -14 -14 -14 -14 -14 -14 -14 -14 -14 -14
-18 -18 -17 -17 -17 -17 -17 -16 -16 -16 -16 -16 -16 -16 -16 -16 -15 -15 -16 -16 -15 -15 -14 -12 -15 -13 -14 -14 -14 -15 -15 -15 -15 -15 -15 -14 -15 -15 -15 -15 -15 -14 -15 -15 -15 -14 -14
-19 -19 -19 -18 -18 -18 -17 -17 -17 -17 -17 -17 -17 -17 -17 -16 -16 -17 -17 -16 -16 -16 -15 -14 -13 -14 -14 -15 -15 -15 -15 -15 -15 -15 -15 -15 -15 -15 -15 -15 -15 -15 -15 -15 -15 -15 -15
-20 -20 -19 -19 -19 -19 -19 -18 -18 -18 -18 -18 -18 -18 -17 -17 -17 -17 -17 -17 -17 -17 -15 -15 -14 -14 -15 -15 -16 -16 -16 -16 -16 -16 -15 -16 -15 -15 -16 -16 -16 -16 -16 -16 -16 -16 -15
-21 -21 -21 -21 -20 -20 -20 -19 -19 -19 -19 -19 -19 -18 -18 -18 -18 -18 -18 -18 -18 -17 -15 -15 -15 -15 -16 -16 -16 -16 -16 -16 -16 -16 -16 -16 -16 -17 -17 -16 -17 -17 -17 -17 -16 -17 -16
-22 -21 -22 -22 -22 -22 -21 -20 -20 -20 -20 -20 -19 -19 -19 -19 -19 -19 -19 -19 -18 -16 -16 -17 -16 -16 -16 -16 -16 -16 -17 -17 -17 -17 -17 -17 -16 -17 -18 -18 -18 -18 -18 -19 -18 -18 -17
-22 -22 -22 -22 -22 -22 -22 -22 -22 -21 -21 -21 -21 -20 -20 -20 -20 -20 -20 -21 -18 -17 -17 -18 -18 -17 -17 -17 -17 -17 -17 -17 -17 -18 -18 -18 -17 -18 -19 -19 -19 -19 -19 -20 -21 -20 -20
-24 -23 -23 -22 -22 -22 -22 -23 -22 -22 -22 -22 -22 -21 -21 -21 -22 -22 -22 -21 -19 -17 -18 -18 -19 -19 -18 -18 -18 -18 -18 -18 -18 -18 -19 -19 -19 -19 -19 -20 -20 -21 -21 -21 -21 -22 -21
-25 -24 -24 -23 -23 -23 -22 -22 -23 -23 -22 -22 -22 -22 -21 -21 -22 -23 -23 -21 -20 -19 -19 -19 -20 -20 -19 -20 -19 -19 -19 -19 -19 -20 -20 -20 -20 -19 -20 -20 -21 -21 -21 -22 -23 -22 -22
-26 -25 -25 -25 -24 -23 -23 -23 -23 -23 -23 -23 -22 -22 -22 -22 -23 -23 -22 -21 -21 -21 -20 -20 -20 -21 -21 -20 -20 -20 -20 -20 -19 -20 -20 -21 -21 -20 -20 -21 -21 -21 -22 -22 -23 -22 -22
-27 -26 -26 -26 -25 -24 -23 -24 -23 -23 -23 -23 -23 -23 -23 -23 -24 -22 -22 -22 -22 -22 -22 -21 -21 -22 -22 -21 -21 -21 -21 -21 -21 -21 -21 -21 -20 -21 -21 -21 -22 -22 -22 -22 -23 -22 -21
-28 -27 -27 -26 -26 -26 -25 -24 -24 -24 -24 -24 -24 -24 -24 -23 -24 -23 -22 -22 -22 -22 -22 -22 -22 -22 -22 -22 -22 -21 -21 -21 -21 -21 -21 -22 -21 -21 -21 -22 -22 -22 -22 -22 -22 -21 -21
-29 -28 -28 -27 -27 -27 -26 -25 -24 -24 -24 -24 -25 -24 -23 -23 -22 -22 -23 -23 -23 -22 -22 -22 -22 -22 -22 -22 -22 -22 -22 -22 -21 -21 -22 -22 -22 -22 -22 -22 -22 -22 -21 -22 -22 -22 -21
-31 -30 -29 -28 -27 -29 -29 -26 -25 -25 -25 -25 -25 -24 -24 -23 -23 -24 -24 -23 -23 -23 -23 -22 -22 -22 -23 -23 -23 -23 -22 -22 -21 -21 -22 -22 -23 -22 -22 -22 -22 -21 -21 -22 -22 -22 -22
-32 -31 -30 -29 -30 -29 -29 -28 -26 -26 -27 -26 -25 -25 -24 -24 -24 -24 -23 -22 -23 -24 -23 -23 -23 -24 -23 -23 -23 -23 -23 -23 -22 -22 -23 -23 -22 -23 -22 -22 -22 -21 -22 -22 -22 -22 -22
-33 -32 -32 -31 -31 -30 -29 -29 -28 -27 -27 -27 -26 -26 -25 -24 -24 -23 -23 -24 -24 -24 -24 -24 -23 -24 -23 -24 -23 -23 -23 -23 -23 -23 -22 -22 -23 -23 -22 -22 -22 -22 -22 -23 -22 -23 -23
-33 -33 -32 -32 -31 -31 -30 -29 -28 -28 -28 -27 -27 -27 -26 -26 -25 -25 -24 -24 -24 -24 -24 -23 -24 -24 -24 -23 -24 -23 -23 -23 -23 -23 -23 -23 -23 -23 -23 -22 -22 -22 -23 -23 -23 -23 -23
-33 -33 -32 -32 -32 -31 -30 -29 -29 -29 -28 -28 -28 -28 -28 -27 -26 -26 -25 -25 -25 -24 -24 -24 -24 -24 -24 -24 -24 -24 -24 -23 -23 -23 -23 -23 -23 -23 -23 -22 -22 -23 -23 -24 -24 -24 -23
-31 -31 -32 -32 -31 -31 -30 -30 -29 -29 -29 -28 -28 -28 -28 -27 -26 -26 -25 -25 -25 -24 -24 -24 -24 -24 -24 -24 -24 -23 -23 -24 -23 -23 -23 -23 -23 -23 -23 -23 -23 -23 -24 -24 -24 -23 -23
-30 -30 -31 -31 -30 -30 -29 -29 -29 -29 -29 -28 -28 -28 -28 -28 -27 -26 -26 -25 -25 -25 -24 -24 -25 -24 -24 -24 -24 -23 -24 -24 -24 -24 -23 -24 -23 -23 -23 -24 -23 -24 -24 -24 -24 -24 -23
-28 -29 -29 -30 -30 -30 -30 -29 -29 -29 -29 -29 -29 -28 -28 -28 -27 -27 -27 -26 -25 -25 -25 -24 -24 -24 -24 -25 -24 -24 -24 -24 -24 -23 -23 -23 -23 -23 -24 -24 -24 -24 -24 -24 -24 -24 -24

GFSGBSN_500_temp_132.txt.gz
Temp
-12 -12 -12 -12 -11 -11 -11 -11 -11 -11 -11 -11 -11 -11 -11 -11 -11 -11 -11 -11 -11 -11 -11 -11 -11 -11 -10 -10 -11 -10 -10 -10 -10 -11 -11 -10 -11 -11 -11 -11 -11 -11 -11 -11 -12 -11 -11
-13 -13 -12 -12 -12 -12 -12 -12 -12 -12 -12 -12 -12 -12 -12 -11 -12 -12 -12 -12 -12 -11 -11 -12 -11 -11 -11 -11 -11 -11 -11 -10 -11 -12 -12 -12 -12 -12 -12 -11 -11 -12 -12 -12 -12 -12 -12
-13 -13 -13 -13 -13 -13 -13 -12 -12 -12 -12 -12 -12 -12 -12 -12 -12 -12 -12 -12 -12 -12 -12 -12 -13 -12 -12 -11 -12 -12 -11 -11 -11 -12 -12 -12 -12 -12 -12 -12 -12 -12 -12 -12 -12 -12 -12
-13 -14 -14 -14 -14 -13 -13 -13 -13 -13 -13 -13 -13 -13 -13 -13 -13 -13 -13 -13 -12 -13 -13 -13 -13 -13 -13 -12 -12 -12 -12 -11 -11 -11 -11 -12 -12 -12 -12 -12 -12 -12 -12 -12 -12 -12 -12
-14 -15 -15 -15 -14 -14 -14 -14 -14 -14 -14 -14 -14 -13 -14 -13 -13 -13 -13 -13 -13 -13 -13 -13 -13 -13 -13 -13 -13 -12 -12 -12 -12 -12 -12 -12 -13 -13 -13 -13 -13 -13 -12 -13 -13 -13 -13
-15 -15 -15 -14 -14 -14 -14 -14 -14 -14 -14 -14 -14 -14 -14 -14 -14 -14 -14 -13 -13 -13 -13 -13 -13 -13 -13 -14 -13 -13 -13 -13 -14 -13 -13 -12 -13 -14 -13 -13 -13 -13 -13 -13 -13 -13 -13
-15 -15 -15 -15 -15 -14 -14 -15 -15 -14 -15 -14 -14 -14 -14 -14 -14 -14 -14 -14 -13 -13 -13 -13 -13 -13 -13 -14 -14 -14 -14 -13 -14 -15 -14 -13 -13 -15 -14 -14 -13 -14 -14 -13 -14 -14 -13
-16 -16 -16 -15 -15 -15 -15 -15 -15 -15 -15 -14 -14 -14 -14 -14 -14 -14 -14 -14 -14 -14 -13 -14 -13 -13 -14 -14 -13 -14 -14 -14 -14 -14 -14 -13 -13 -14 -14 -14 -14 -14 -13 -13 -13 -14 -13
-17 -17 -17 -17 -16 -16 -16 -15 -15 -15 -15 -15 -15 -15 -15 -14 -14 -14 -15 -15 -15 -14 -13 -14 -14 -13 -15 -13 -13 -15 -15 -15 -14 -15 -15 -14 -14 -15 -14 -14 -14 -14 -14 -14 -13 -14 -14
-18 -18 -18 -18 -18 -17 -17 -16 -16 -16 -16 -16 -16 -15 -15 -16 -15 -16 -16 -16 -16 -15 -14 -12 -14 -13 -14 -14 -13 -15 -15 -14 -14 -15 -15 -14 -15 -15 -15 -15 -15 -14 -15 -14 -14 -14 -14
-19 -19 -19 -19 -19 -19 -18 -18 -17 -17 -17 -17 -17 -16 -17 -16 -16 -17 -17 -16 -16 -16 -15 -13 -13 -13 -14 -15 -14 -15 -15 -15 -15 -15 -15 -15 -15 -15 -16 -16 -16 -16 -16 -16 -16 -16 -15
-20 -20 -20 -20 -19 -19 -19 -19 -19 -18 -18 -18 -18 -17 -17 -17 -17 -18 -18 -18 -17 -18 -15 -14 -13 -14 -15 -15 -15 -15 -15 -15 -16 -16 -15 -16 -15 -16 -16 -16 -16 -17 -17 -17 -16 -16 -15
-21 -21 -20 -20 -20 -20 -20 -19 -19 -19 -20 -19 -19 -18 -18 -18 -18 -18 -18 -18 -18 -17 -15 -15 -15 -15 -16 -15 -16 -16 -16 -16 -16 -16 -16 -16 -16 -16 -17 -17 -17 -17 -17 -17 -17 -17 -16
-22 -21 -21 -21 -21 -21 -20 -20 -20 -20 -20 -19 -19 -20 -20 -19 -19 -19 -19 -19 -18 -16 -16 -17 -17 -16 -17 -17 -17 -17 -17 -16 -17 -17 -17 -17 -17 -17 -17 -18 -18 -18 -18 -19 -18 -18 -17
-23 -23 -22 -22 -22 -22 -21 -21 -21 -20 -20 -20 -20 -20 -20 -19 -19 -20 -20 -21 -18 -17 -17 -18 -18 -18 -17 -18 -17 -17 -17 -17 -17 -18 -18 -18 -18 -18 -18 -18 -19 -19 -19 -19 -20 -20 -19
-25 -25 -24 -23 -22 -22 -22 -22 -22 -22 -21 -21 -21 -21 -20 -20 -20 -21 -22 -21 -18 -18 -18 -18 -19 -19 -18 -18 -18 -18 -18 -18 -19 -19 -19 -18 -19 -19 -19 -19 -19 -20 -20 -20 -21 -21 -20
-27 -26 -26 -25 -24 -23 -22 -23 -23 -23 -23 -23 -23 -22 -21 -21 -22 -22 -22 -21 -19 -19 -19 -18 -19 -19 -19 -19 -19 -19 -19 -19 -19 -20 -20 -19 -20 -19 -20 -20 -20 -20 -21 -21 -21 -21 -22
-29 -27 -27 -26 -26 -25 -24 -23 -24 -23 -24 -24 -23 -23 -22 -23 -23 -23 -22 -21 -20 -20 -20 -20 -20 -20 -20 -20 -20 -20 -20 -20 -20 -20 -21 -21 -21 -21 -21 -20 -20 -21 -21 -21 -22 -21 -21
-30 -28 -28 -28 -27 -27 -26 -25 -24 -24 -24 -24 -25 -24 -24 -24 -24 -23 -22 -22 -21 -21 -21 -21 -21 -21 -21 -21 -21 -21 -21 -21 -21 -21 -21 -21 -21 -21 -21 -21 -21 -21 -21 -21 -22 -22 -20
-31 -29 -29 -28 -28 -28 -28 -27 -25 -25 -25 -25 -25 -25 -25 -25 -25 -24 -23 -23 -23 -22 -22 -22 -21 -22 -22 -22 -22 -22 -21 -22 -22 -22 -21 -22 -22 -22 -22 -22 -22 -22 -21 -21 -22 -22 -22
-31 -30 -30 -30 -29 -29 -28 -28 -28 -26 -26 -26 -26 -25 -24 -24 -24 -23 -23 -23 -23 -23 -23 -22 -22 -22 -22 -22 -23 -22 -22 -22 -22 -22 -22 -22 -22 -22 -22 -22 -23 -22 -21 -22 -22 -22 -22
-32 -32 -31 -31 -31 -29 -28 -28 -29 -28 -27 -26 -26 -25 -25 -24 -24 -24 -24 -23 -23 -23 -23 -23 -23 -23 -23 -22 -23 -23 -23 -23 -22 -22 -22 -22 -22 -22 -22 -22 -22 -21 -21 -22 -22 -22 -21
-32 -32 -32 -31 -31 -30 -29 -29 -29 -29 -28 -27 -26 -26 -25 -25 -24 -24 -23 -23 -23 -23 -23 -23 -23 -23 -23 -23 -24 -24 -23 -23 -23 -23 -23 -23 -23 -22 -22 -22 -23 -22 -22 -22 -22 -22 -22
-32 -33 -32 -32 -32 -31 -30 -30 -30 -28 -29 -28 -27 -27 -26 -25 -25 -24 -24 -24 -24 -24 -24 -24 -24 -24 -24 -24 -24 -24 -23 -23 -23 -23 -24 -23 -23 -23 -23 -23 -22 -22 -22 -22 -22 -22 -22
-33 -33 -33 -32 -32 -32 -31 -30 -30 -29 -29 -29 -28 -27 -27 -26 -25 -25 -25 -24 -25 -25 -24 -24 -24 -24 -24 -24 -24 -24 -23 -23 -23 -23 -24 -23 -23 -24 -23 -23 -22 -22 -23 -22 -22 -23 -23
-33 -33 -33 -33 -32 -32 -31 -30 -29 -30 -30 -30 -29 -28 -27 -27 -26 -26 -25 -25 -25 -25 -24 -24 -24 -24 -25 -24 -24 -24 -24 -23 -23 -24 -24 -23 -24 -24 -23 -23 -22 -23 -23 -22 -22 -23 -24
-33 -33 -33 -33 -32 -32 -32 -31 -30 -30 -30 -30 -29 -28 -28 -27 -27 -26 -26 -25 -25 -25 -25 -24 -25 -25 -25 -24 -24 -24 -24 -24 -23 -23 -23 -24 -24 -24 -24 -24 -23 -23 -23 -23 -23 -23 -23
-33 -33 -33 -33 -33 -32 -32 -31 -31 -30 -30 -30 -29 -29 -29 -28 -27 -27 -26 -26 -26 -25 -25 -25 -25 -25 -24 -24 -24 -24 -24 -24 -24 -24 -24 -24 -24 -24 -24 -24 -23 -24 -24 -24 -24 -24 -24
-31 -32 -33 -33 -33 -32 -32 -31 -31 -31 -30 -30 -30 -29 -29 -28 -27 -27 -27 -27 -26 -26 -26 -25 -25 -25 -25 -25 -24 -24 -24 -24 -24 -24 -24 -24 -24 -24 -24 -23 -23 -23 -24 -24 -24 -24 -24